[[{"header":{"parameterUnit":"m.s-1","parameterCategory":1,"la1":30.6,"la2":29.2853,"lo1":-89.7004,"lo2":-87.6739,"dy":0.0162,"dx":0.0183,"nx":112,"ny":82,"refTime":"2023-08-13T06:00:00:Z","depth":0,"parameterNumber":2,"parameterNumberName":"U-component_of_WINDS"},"data":[0.0,0.0,0.0,0.0,0.0,0.0,0.0,0.0,0.0,0.0,0.0,0.0,0.0,0.0,0.0,0.0,0.0,0.0,0.0,0.0,0.0,0.0,0.0,0.0,0.0,0.0,0.0,0.0,0.0,0.0,0.0,0.0,0.0,0.0,0.0,0.0,0.0,0.0,0.0,0.0,0.0,0.0,0.0,0.0,0.0,0.0,0.0,0.0,0.0,0.0,0.0,0.0,0.0,0.0,0.0,0.0,0.0,0.0,0.0,0.0,0.0,0.0,0.0,0.0,0.0,0.0,0.0,0.0,0.0,0.0,0.0,0.0,0.0,0.0,0.0,0.0,0.0,0.0,0.0,0.0,0.0,0.0,0.0,0.0,0.0,0.0,0.0,0.0,0.0,0.0,-2.193,-2.3732,-3.4325,-4.2813,-4.6556,-4.7697,-4.5551,-3.9301,0.0,0.0,0.0,0.0,0.0,0.0,0.0,0.0,0.0,0.0,0.0,0.0,0.0,0.0,0.0,0.0,0.0,0.0,0.0,0.0,0.0,0.0,0.0,0.0,0.0,0.0,0.0,0.0,0.0,0.0,0.0,0.0,0.0,0.0,0.0,0.0,0.0,0.0,0.0,0.0,0.0,0.0,0.0,0.0,0.0,0.0,0.0,0.0,0.0,0.0,0.0,0.0,0.0,0.0,0.0,0.0,0.0,0.0,0.0,0.0,0.0,0.0,0.0,0.0,0.0,0.0,0.0,0.0,0.0,0.0,0.0,0.0,0.0,0.0,0.0,0.0,0.0,0.0,0.0,0.0,0.0,0.0,0.0,0.0,0.0,0.0,0.0,0.0,0.0,0.0,0.0,0.0,0.0,0.0,0.0,0.0,0.0,0.0,0.0,0.0,0.0,0.0,0.0,0.0,-2.6313,-3.563,-4.1054,-4.4583,-4.6042,-4.5442,-4.3104,-3.8676,0.0,0.0,0.0,0.0,0.0,0.0,0.0,0.0,0.0,0.0,0.0,0.0,0.0,0.0,0.0,0.0,0.0,0.0,0.0,0.0,0.0,0.0,0.0,0.0,0.0,0.0,0.0,0.0,0.0,0.0,0.0,0.0,0.0,0.0,0.0,0.0,0.0,0.0,0.0,0.0,0.0,0.0,0.0,0.0,0.0,0.0,0.0,0.0,0.0,0.0,0.0,0.0,0.0,0.0,0.0,0.0,0.0,0.0,0.0,0.0,0.0,0.0,0.0,0.0,0.0,0.0,0.0,0.0,0.0,0.0,0.0,0.0,0.0,0.0,0.0,0.0,0.0,0.0,0.0,0.0,0.0,0.0,0.0,0.0,0.0,0.0,0.0,0.0,0.0,0.0,0.0,0.0,0.0,0.0,0.0,0.0,0.0,0.0,0.0,0.0,0.0,0.0,0.0,-2.4599,-2.9232,-3.6533,-4.1698,-4.443,-4.4027,-4.4595,-4.2688,-3.7438,-3.5663,0.0,0.0,0.0,0.0,0.0,0.0,0.0,0.0,0.0,0.0,0.0,0.0,0.0,0.0,0.0,0.0,0.0,0.0,0.0,0.0,0.0,0.0,0.0,0.0,0.0,0.0,0.0,0.0,0.0,0.0,0.0,0.0,0.0,0.0,0.0,0.0,0.0,0.0,0.0,0.0,0.0,0.0,0.0,0.0,0.0,0.0,0.0,0.0,0.0,0.0,0.0,0.0,0.0,0.0,0.0,0.0,0.0,0.0,0.0,0.0,0.0,0.0,0.0,0.0,0.0,0.0,0.0,0.0,0.0,0.0,0.0,0.0,0.0,0.0,0.0,0.0,0.0,0.0,0.0,0.0,0.0,0.0,0.0,0.0,0.0,0.0,0.0,0.0,0.0,0.0,0.0,0.0,0.0,0.0,0.0,0.0,0.0,0.0,0.0,0.0,0.0,0.0,-2.8197,-3.1292,-3.5077,-3.992,-4.268,-4.2345,-4.2826,-4.1056,-3.6039,-3.3511,0.0,0.0,0.0,0.0,0.0,0.0,0.0,0.0,0.0,0.0,0.0,0.0,0.0,0.0,0.0,0.0,0.0,0.0,0.0,0.0,0.0,0.0,0.0,0.0,0.0,0.0,0.0,0.0,0.0,0.0,0.0,0.0,0.0,0.0,0.0,0.0,0.0,0.0,0.0,0.0,0.0,0.0,0.0,0.0,0.0,0.0,0.0,0.0,0.0,0.0,0.0,0.0,0.0,0.0,0.0,0.0,0.0,0.0,0.0,0.0,0.0,0.0,0.0,0.0,0.0,0.0,0.0,0.0,0.0,0.0,0.0,0.0,0.0,0.0,0.0,0.0,0.0,0.0,0.0,0.0,0.0,0.0,0.0,0.0,0.0,0.0,0.0,0.0,0.0,0.0,0.0,0.0,0.0,0.0,0.0,0.0,0.0,0.0,0.0,0.0,0.0,0.0,-2.7842,-3.2406,-3.5186,-3.6845,-3.8966,-4.2039,-3.8623,-3.5789,-3.4677,-3.0594,0.0,0.0,0.0,0.0,0.0,0.0,0.0,0.0,0.0,0.0,0.0,0.0,0.0,0.0,0.0,0.0,0.0,0.0,0.0,0.0,0.0,0.0,0.0,0.0,0.0,0.0,0.0,0.0,0.0,0.0,0.0,0.0,0.0,0.0,0.0,0.0,0.0,0.0,0.0,0.0,0.0,0.0,0.0,0.0,0.0,0.0,0.0,0.0,0.0,0.0,0.0,0.0,0.0,0.0,0.0,0.0,0.0,0.0,0.0,0.0,0.0,0.0,0.0,0.0,0.0,0.0,0.0,0.0,0.0,0.0,0.0,0.0,0.0,0.0,0.0,0.0,0.0,0.0,0.0,0.0,0.0,0.0,0.0,0.0,0.0,0.0,0.0,0.0,0.0,0.0,0.0,0.0,0.0,0.0,0.0,0.0,0.0,0.0,0.0,0.0,0.0,0.0,-2.6663,-3.0378,0.0,-3.604,-3.7484,-3.8141,-3.7533,-3.5454,-3.1581,0.0,0.0,0.0,0.0,0.0,0.0,0.0,0.0,0.0,0.0,0.0,0.0,0.0,0.0,0.0,0.0,0.0,0.0,0.0,0.0,0.0,0.0,0.0,0.0,0.0,0.0,0.0,0.0,0.0,0.0,0.0,0.0,0.0,0.0,0.0,0.0,0.0,0.0,0.0,0.0,0.0,0.0,0.0,0.0,0.0,0.0,0.0,0.0,0.0,0.0,0.0,0.0,0.0,0.0,0.0,0.0,0.0,0.0,0.0,0.0,0.0,0.0,0.0,0.0,0.0,0.0,0.0,0.0,0.0,0.0,0.0,0.0,0.0,0.0,0.0,0.0,0.0,0.0,0.0,0.0,0.0,0.0,0.0,0.0,0.0,0.0,0.0,0.0,0.0,0.0,0.0,0.0,0.0,0.0,0.0,0.0,0.0,0.0,0.0,0.0,0.0,0.0,-2.2636,-2.5794,-2.9212,0.0,-3.4557,-3.5605,-3.5304,-3.5007,-3.3236,-2.9326,0.0,0.0,0.0,0.0,0.0,0.0,0.0,0.0,0.0,0.0,0.0,0.0,0.0,0.0,0.0,0.0,0.0,0.0,0.0,0.0,0.0,0.0,0.0,0.0,0.0,0.0,0.0,0.0,0.0,0.0,0.0,0.0,0.0,0.0,0.0,0.0,0.0,0.0,0.0,0.0,0.0,0.0,0.0,0.0,0.0,0.0,0.0,0.0,0.0,0.0,0.0,0.0,0.0,0.0,0.0,0.0,0.0,0.0,0.0,0.0,0.0,0.0,0.0,0.0,0.0,0.0,0.0,0.0,0.0,0.0,0.0,0.0,0.0,0.0,0.0,0.0,0.0,0.0,0.0,0.0,0.0,0.0,0.0,0.0,0.0,0.0,0.0,0.0,0.0,0.0,0.0,0.0,0.0,0.0,0.0,0.0,0.0,0.0,0.0,0.0,0.0,0.0,-2.1189,-2.5449,-2.9355,-3.1258,-3.2123,-3.3004,-3.4284,-3.056,-2.8232,0.0,0.0,0.0,0.0,0.0,0.0,0.0,0.0,0.0,0.0,0.0,0.0,0.0,0.0,0.0,0.0,0.0,0.0,0.0,0.0,0.0,0.0,0.0,0.0,0.0,0.0,0.0,0.0,0.0,0.0,0.0,0.0,0.0,0.0,0.0,0.0,0.0,0.0,0.0,0.0,0.0,0.0,0.0,0.0,0.0,0.0,0.0,0.0,0.0,0.0,0.0,0.0,0.0,0.0,0.0,0.0,0.0,0.0,0.0,0.0,0.0,0.0,0.0,0.0,0.0,0.0,0.0,0.0,0.0,0.0,0.0,0.0,0.0,0.0,0.0,0.0,0.0,0.0,0.0,0.0,0.0,0.0,0.0,0.0,0.0,0.0,0.0,0.0,0.0,0.0,0.0,0.0,0.0,0.0,0.0,0.0,0.0,0.0,0.0,0.0,0.0,0.0,0.0,-2.2784,-2.6314,-2.9499,-3.133,-3.2123,-3.2721,-3.3258,-3.1571,-2.9483,-2.7052,0.0,0.0,0.0,0.0,0.0,0.0,0.0,0.0,0.0,0.0,0.0,0.0,0.0,0.0,0.0,0.0,0.0,0.0,0.0,0.0,0.0,0.0,0.0,0.0,0.0,0.0,0.0,0.0,0.0,0.0,0.0,0.0,0.0,0.0,0.0,0.0,0.0,0.0,0.0,0.0,0.0,0.0,0.0,0.0,0.0,0.0,0.0,0.0,0.0,0.0,0.0,0.0,0.0,0.0,0.0,0.0,0.0,0.0,0.0,0.0,0.0,0.0,0.0,0.0,0.0,0.0,0.0,0.0,0.0,0.0,0.0,0.0,0.0,0.0,0.0,0.0,0.0,0.0,0.0,0.0,0.0,0.0,0.0,0.0,0.0,0.0,0.0,0.0,0.0,0.0,0.0,0.0,0.0,0.0,0.0,0.0,0.0,0.0,0.0,0.0,0.0,0.0,-2.2957,-2.6159,-2.8936,-3.0323,-3.0971,-3.1462,-3.1742,-3.0895,-2.9026,-2.595,0.0,0.0,0.0,0.0,0.0,0.0,0.0,0.0,0.0,0.0,0.0,0.0,0.0,0.0,0.0,0.0,0.0,0.0,0.0,0.0,0.0,0.0,0.0,0.0,0.0,0.0,0.0,0.0,0.0,0.0,0.0,0.0,0.0,0.0,0.0,0.0,0.0,0.0,0.0,0.0,0.0,0.0,0.0,0.0,0.0,0.0,0.0,0.0,0.0,0.0,0.0,0.0,0.0,0.0,0.0,0.0,0.0,0.0,0.0,0.0,0.0,0.0,0.0,0.0,0.0,0.0,0.0,0.0,0.0,0.0,0.0,0.0,0.0,0.0,0.0,0.0,0.0,0.0,0.0,0.0,0.0,0.0,0.0,0.0,0.0,0.0,0.0,0.0,0.0,0.0,0.0,0.0,0.0,0.0,0.0,0.0,0.0,0.0,0.0,0.0,0.0,0.0,-2.2266,-2.5333,-2.781,-2.8832,-2.9227,-2.96,-3.0096,-2.9199,-2.7585,-2.5207,0.0,0.0,0.0,0.0,0.0,0.0,0.0,0.0,0.0,0.0,0.0,0.0,0.0,0.0,0.0,0.0,0.0,0.0,0.0,0.0,0.0,0.0,0.0,0.0,0.0,0.0,0.0,0.0,0.0,0.0,0.0,0.0,0.0,0.0,0.0,0.0,0.0,0.0,0.0,0.0,0.0,0.0,0.0,0.0,0.0,0.0,0.0,0.0,0.0,0.0,0.0,0.0,0.0,0.0,0.0,0.0,0.0,0.0,0.0,0.0,-3.6689,0.0,0.0,0.0,0.0,0.0,0.0,0.0,0.0,0.0,0.0,0.0,0.0,0.0,0.0,0.0,0.0,0.0,0.0,0.0,0.0,0.0,0.0,0.0,0.0,0.0,0.0,0.0,0.0,0.0,0.0,0.0,0.0,0.0,0.0,0.0,0.0,0.0,0.0,0.0,0.0,0.0,-2.304,-2.4824,-2.6814,-2.9205,-2.8465,-2.8311,-2.9639,-2.9193,-2.7862,-2.5603,-2.0584,0.0,0.0,0.0,0.0,0.0,0.0,0.0,0.0,0.0,0.0,0.0,0.0,0.0,0.0,0.0,0.0,0.0,0.0,0.0,0.0,0.0,0.0,0.0,0.0,0.0,0.0,0.0,0.0,0.0,0.0,0.0,0.0,0.0,0.0,0.0,0.0,0.0,0.0,0.0,0.0,0.0,0.0,0.0,0.0,0.0,0.0,0.0,0.0,0.0,0.0,0.0,0.0,0.0,0.0,0.0,0.0,0.0,0.0,0.0,0.0,-3.7815,0.0,0.0,0.0,0.0,0.0,0.0,0.0,0.0,0.0,0.0,0.0,0.0,0.0,0.0,0.0,0.0,0.0,0.0,0.0,0.0,0.0,0.0,0.0,0.0,0.0,0.0,0.0,0.0,0.0,0.0,0.0,0.0,0.0,0.0,0.0,0.0,0.0,0.0,0.0,0.0,-2.283,-2.4577,-2.6226,-2.7469,-2.6891,-2.6609,-2.7178,-2.7221,-2.6299,-2.4105,-2.1176,0.0,0.0,0.0,0.0,0.0,0.0,0.0,0.0,0.0,0.0,0.0,0.0,0.0,0.0,0.0,0.0,0.0,0.0,0.0,0.0,0.0,0.0,0.0,0.0,0.0,0.0,0.0,0.0,0.0,0.0,0.0,0.0,0.0,0.0,0.0,0.0,0.0,0.0,0.0,0.0,0.0,0.0,0.0,0.0,0.0,0.0,0.0,0.0,0.0,0.0,0.0,0.0,0.0,0.0,-4.162,-4.1449,-4.1673,-4.1405,-4.0815,-4.0087,-3.9817,-3.9732,0.0,0.0,0.0,0.0,0.0,0.0,0.0,0.0,0.0,0.0,0.0,0.0,0.0,0.0,0.0,0.0,0.0,0.0,0.0,0.0,0.0,0.0,0.0,0.0,0.0,-3.0304,-3.1813,0.0,0.0,0.0,0.0,0.0,0.0,0.0,0.0,0.0,0.0,0.0,0.0,-2.2752,-2.4324,-2.5388,-2.5384,-2.5175,-2.4898,-2.464,-2.508,-2.4581,-2.279,-2.344,-2.3389,0.0,0.0,0.0,0.0,0.0,0.0,0.0,0.0,0.0,0.0,0.0,0.0,0.0,0.0,0.0,0.0,0.0,0.0,0.0,0.0,0.0,0.0,0.0,0.0,0.0,0.0,0.0,0.0,0.0,0.0,0.0,0.0,-3.8757,-3.9565,0.0,0.0,0.0,0.0,0.0,0.0,0.0,0.0,0.0,0.0,0.0,0.0,0.0,0.0,-4.1162,-4.3538,-4.4766,-4.4875,-4.6488,-4.6345,-4.4688,-4.4703,-4.4446,-4.3944,-4.3166,0.0,-3.9056,-3.8142,0.0,0.0,0.0,0.0,0.0,0.0,0.0,0.0,0.0,0.0,0.0,0.0,0.0,0.0,0.0,0.0,0.0,0.0,0.0,0.0,0.0,0.0,-3.0408,-2.9559,-3.0938,-3.2103,0.0,-2.9448,-2.8333,-2.6763,0.0,0.0,0.0,0.0,0.0,0.0,0.0,0.0,-2.4566,-2.3537,-2.3272,-2.5218,-2.4208,-2.3709,-2.4529,-2.508,-2.5119,-2.451,-2.5014,-2.5014,-2.4238,-2.349,0.0,0.0,0.0,0.0,0.0,0.0,0.0,0.0,0.0,0.0,0.0,0.0,0.0,0.0,0.0,0.0,0.0,0.0,0.0,0.0,0.0,0.0,0.0,0.0,0.0,0.0,0.0,0.0,0.0,-3.7578,-3.9758,-3.9161,-3.8495,-3.6881,0.0,0.0,0.0,0.0,0.0,0.0,0.0,0.0,0.0,-4.0671,-4.2378,-4.3828,-4.5002,-4.6489,-4.748,-4.7976,-4.8196,-4.771,-4.6619,-4.6112,-4.5418,-4.4553,-4.4215,-4.3081,-4.139,-4.024,-3.843,-3.6315,0.0,0.0,0.0,0.0,0.0,-3.5368,-3.7043,0.0,0.0,0.0,0.0,0.0,0.0,0.0,0.0,0.0,0.0,0.0,0.0,0.0,0.0,-2.9729,-3.0806,-3.1689,-3.0717,-3.0058,-2.928,0.0,-2.7784,-2.728,-2.5439,0.0,0.0,0.0,0.0,0.0,-2.206,-2.2943,-2.363,-2.408,-2.3929,-2.3949,-2.4406,-2.5009,-2.5506,-2.5726,-2.5981,-2.5791,-2.5179,-2.5241,-2.4747,0.0,0.0,0.0,0.0,0.0,0.0,0.0,0.0,0.0,0.0,0.0,0.0,0.0,0.0,0.0,0.0,0.0,0.0,0.0,0.0,0.0,0.0,0.0,0.0,0.0,0.0,0.0,0.0,-3.9727,-4.1104,-3.92,-3.9986,-3.9277,0.0,0.0,0.0,0.0,0.0,0.0,-3.957,-4.135,-4.2892,-4.4103,-4.6104,-4.7535,-4.8361,-4.8948,-4.9682,-5.049,-4.9242,-4.84,-4.7966,-4.7103,-4.5924,-4.4587,-4.479,-4.4418,-4.3606,-4.21,-4.0189,-3.8108,-3.7364,-3.5926,0.0,-3.6163,-3.6654,-3.6772,-3.8819,-3.9039,-3.8278,-3.7364,0.0,-3.2779,-2.9643,0.0,0.0,0.0,0.0,-2.8218,-2.7709,0.0,-2.9894,-2.9445,-3.0328,-3.1091,-3.0417,-3.0268,-2.9939,0.0,-2.8996,-2.8704,-2.6642,0.0,0.0,0.0,0.0,-2.1725,-2.1779,-2.3278,-2.4067,-2.321,-2.3677,-2.4269,-2.4748,-2.5177,-2.5793,-2.6673,-2.7074,-2.696,-2.6168,-2.6752,-2.6004,-2.3655,0.0,0.0,0.0,0.0,0.0,0.0,0.0,0.0,0.0,0.0,0.0,0.0,0.0,0.0,0.0,0.0,0.0,0.0,0.0,0.0,0.0,0.0,0.0,0.0,0.0,0.0,0.0,0.0,0.0,-4.1912,-4.4592,0.0,0.0,0.0,0.0,-4.0744,-4.1534,-4.302,-4.5351,-4.559,-4.6728,-4.9058,-5.0068,-5.0949,-5.1738,-5.1775,-5.2215,-5.3004,-5.0637,-4.9295,-4.8795,-4.7935,-4.6446,-4.4621,-4.5331,-4.5213,-4.4401,-4.2861,-4.0933,-3.887,-3.8125,-3.7347,-3.662,-3.6738,-3.7652,-3.8751,-3.821,-3.7533,-3.6992,-3.7635,-3.5544,-3.2336,-3.0207,-2.8633,0.0,0.0,-2.7595,-2.767,-2.7625,-2.8128,-2.8682,-2.8667,-2.9624,-3.0387,-2.9759,-2.9624,-2.943,0.0,-2.8622,-2.8173,-2.6564,0.0,-2.3595,-2.3584,-2.5664,-2.721,-2.7235,-2.5199,-2.3603,-2.3129,-2.3257,-2.4082,-2.5855,-2.5682,-2.604,-2.7386,-2.8724,-2.8876,-2.753,-2.8128,-2.6946,-2.3655,-2.2996,0.0,0.0,0.0,0.0,0.0,0.0,0.0,0.0,0.0,0.0,0.0,0.0,0.0,0.0,0.0,0.0,0.0,0.0,0.0,0.0,0.0,0.0,0.0,0.0,0.0,0.0,0.0,0.0,-4.597,-4.7548,0.0,-4.436,-4.4153,-4.4415,-4.4929,-4.6709,-4.8159,-4.9003,-5.005,-5.0747,-5.1096,-5.1903,-5.2491,-5.2766,-5.2766,-5.2931,-5.3188,-5.1279,-5.0065,-4.9421,-4.7631,-4.6508,-4.5829,-4.5252,-4.5111,-4.5229,-4.4181,-4.2439,-4.0392,-4.0138,-3.8988,-3.7618,-3.8548,-3.8937,-3.8954,-3.87,-3.8125,-3.7182,-3.5094,-3.3004,-3.091,-2.8873,-2.8229,-2.8053,-2.7186,-2.756,-2.8128,-2.7679,-2.7754,-2.8053,-2.8502,-2.8607,-2.8682,-2.8906,-2.8607,-2.8218,-2.7979,-2.8293,-2.8815,-2.9524,-2.8414,-2.7739,-2.8554,-2.6624,-2.5014,-2.5017,-2.4163,-2.3848,-2.462,-2.4681,-2.4972,-2.5635,-2.6025,-2.6421,-2.6893,-2.7801,-2.7694,-2.6363,-2.735,-2.6572,-2.3655,-2.2577,-2.1814,0.0,0.0,0.0,0.0,0.0,0.0,0.0,0.0,0.0,0.0,0.0,0.0,0.0,0.0,0.0,0.0,0.0,0.0,0.0,0.0,0.0,0.0,0.0,0.0,0.0,0.0,-4.8548,-4.7394,-4.9619,-5.0147,-4.7287,-4.8094,-4.8985,-4.9536,-5.1353,-5.2417,-5.2417,-5.3427,-5.3647,-5.2839,-5.3335,-5.3482,-5.3206,-5.3206,-5.3206,-5.3188,-5.1573,-5.0441,-4.9757,-4.7939,-4.6769,-4.6169,-4.5569,-4.5133,-4.4908,-4.4401,-4.3014,-4.1221,-4.1474,-4.0375,-3.8717,-3.9445,-3.9411,-3.8886,-3.8125,-3.7364,-3.6241,-3.3167,-3.1368,-3.016,-2.8373,-2.8046,-2.8068,-2.7171,-2.756,-2.8143,-2.7745,-2.7625,-2.7679,-2.8143,-2.7904,-2.7694,-2.8158,-2.7889,-2.7625,-2.7625,-2.8128,-2.8921,-2.9991,-2.9953,-3.0175,-3.1318,-2.8521,-2.5937,-2.5078,-2.4106,-2.39,-2.4858,-2.5168,-2.5313,-2.5313,-2.5893,-2.6363,-2.6572,-2.7006,-2.6752,-2.5659,-2.6871,-2.6318,-2.3655,-2.2128,-2.1141,-2.0677,0.0,0.0,0.0,0.0,0.0,0.0,0.0,0.0,0.0,0.0,0.0,0.0,0.0,0.0,0.0,0.0,0.0,0.0,0.0,0.0,0.0,0.0,0.0,-4.3258,-4.7605,-4.9567,-4.6336,-5.1014,-5.3227,-4.9932,-5.2548,-5.4454,-5.4473,-5.5207,-5.5647,-5.5629,-5.5592,-5.5225,-5.4436,-5.4381,-5.3995,-5.3225,-5.3206,-5.3206,-5.3151,-5.1573,-5.0464,-4.9784,-4.8856,-4.7411,-4.558,-4.6273,-4.5365,-4.3453,-4.3436,-4.254,-4.1271,-4.1982,-4.1373,-3.9986,-3.9259,-3.8954,-3.8599,-3.6383,-3.5131,-3.4148,-3.2104,-3.1022,-3.0256,-2.8951,-2.8091,-2.7625,-2.7625,-2.7625,-2.7625,-2.7625,-2.7625,-2.7625,-2.7625,-2.7625,-2.756,-2.7595,-2.7595,-2.7595,-2.7595,-2.8098,-2.8353,-2.7679,-2.9017,-3.0383,-3.1299,-3.1393,0.0,-2.7976,-2.5354,-2.3686,-2.3686,-2.448,-2.5052,-2.5038,-2.5386,-2.5869,-2.6497,-2.6512,-2.6198,-2.554,-2.6737,-2.6183,-2.3565,-2.1665,-2.0064,-1.8732,0.0,0.0,0.0,0.0,0.0,0.0,0.0,0.0,0.0,0.0,0.0,0.0,0.0,0.0,0.0,0.0,0.0,0.0,0.0,0.0,0.0,0.0,-4.7451,-4.6817,-5.0067,-5.2856,-5.376,-5.4237,-5.4597,-5.4829,-5.5092,-5.55,-5.6106,-5.6895,-5.7079,-5.651,-5.5904,-5.5225,-5.4436,-5.383,-5.3427,-5.3206,-5.3206,-5.2913,-5.2307,-5.1298,-5.0391,-4.9628,-4.8321,-4.7446,-4.6956,-4.6169,-4.5194,-4.4215,-4.3656,-4.254,-4.1221,-4.1424,-4.0916,-3.9986,-3.9259,-3.8311,-3.7212,-3.6028,-3.5131,-3.4252,-3.258,-3.1347,-3.0348,-2.9432,-2.8448,-2.7625,-2.7625,-2.7625,-2.7625,-2.7625,-2.7625,-2.7625,-2.7625,-2.7625,-2.749,-2.6961,-2.6856,-2.6856,-2.6856,-2.7395,-2.785,-2.7655,-2.8024,-2.8591,-2.9477,0.0,0.0,-2.9419,-2.7319,-2.5716,-2.5577,-2.5923,-2.5986,-2.5461,-2.5523,-2.548,0.0,-2.4702,-2.4148,-2.3505,-2.3834,-2.3236,-2.1545,-2.0991,-2.0288,0.0,0.0,0.0,0.0,0.0,0.0,0.0,0.0,0.0,0.0,0.0,0.0,0.0,0.0,0.0,0.0,0.0,0.0,0.0,0.0,0.0,0.0,-4.7214,-5.0529,-5.076,-5.2779,-5.4799,-5.628,-5.5725,-5.5693,-5.6805,-5.6571,-5.6627,-5.7226,-5.774,-5.7648,-5.684,-5.6675,-5.5923,-5.4454,-5.4271,-5.3885,-5.3225,-5.2876,-5.2454,-5.1977,-5.0839,-5.005,-4.9554,-4.832,-4.768,0.0,-4.6354,-4.5199,-4.3987,-4.3223,-4.2066,0.0,0.0,0.0,0.0,0.0,-3.7313,-3.6129,-3.5064,-3.4404,-3.3795,-3.2307,-3.1174,-3.0295,-2.9624,-2.8717,-2.7894,-2.7675,-2.7625,-2.7625,-2.7625,-2.7784,-2.7859,-2.729,-2.759,-2.7664,-2.6437,-2.6617,-2.6841,-2.6288,0.0,0.0,-2.7715,-2.8062,-2.8419,-2.8388,-2.8388,-2.8495,0.0,-2.767,-2.6756,-2.6071,-2.6336,-2.6318,-2.5674,-2.5615,0.0,0.0,0.0,-2.343,-2.3071,-2.2817,0.0,0.0,0.0,-2.1201,0.0,0.0,0.0,0.0,-2.0034,-2.0019,0.0,0.0,0.0,0.0,0.0,0.0,0.0,0.0,0.0,0.0,0.0,0.0,0.0,0.0,0.0,0.0,-4.9698,-5.2799,-5.453,-5.5299,-5.5703,-5.5703,-5.5982,-5.633,-5.6795,-5.7005,-5.7353,-5.7894,-5.7895,-5.7556,-5.684,0.0,0.0,0.0,0.0,-5.4693,-5.3096,-5.2454,-5.1995,-5.1701,-5.0362,-4.9627,-4.9426,-4.8655,-4.7977,-4.7342,-4.6621,-4.5145,-4.3242,-4.25,-4.1339,-4.0138,-4.073,-4.0104,-3.87,-3.7297,-3.6231,0.0,0.0,0.0,0.0,-3.1647,-3.0797,-3.0208,-2.9673,-2.9042,-2.8367,-2.786,-2.766,-2.761,-2.7535,-2.7919,-2.8053,-2.6782,-2.7395,-2.7754,-2.5899,-2.6422,-2.6901,-2.5719,-2.753,-2.8861,-2.7715,-2.8637,-2.9163,-2.7925,-2.8631,0.0,-2.6606,-2.7095,-2.7096,-2.5854,0.0,0.0,-2.5674,-2.5615,-2.5031,-2.3684,-2.3595,-2.3535,-2.3385,-2.2862,-2.2532,-2.2499,-2.2458,-2.2203,-2.1695,-2.1186,-2.1201,-2.168,-2.1021,-2.0378,0.0,0.0,0.0,0.0,0.0,0.0,0.0,0.0,0.0,0.0,0.0,0.0,0.0,0.0,0.0,-4.9174,-5.2217,-5.4587,-5.628,-5.6049,-5.5703,-5.5703,-5.5484,-5.5633,-5.634,-5.5833,-5.6028,-5.7412,-5.7235,-5.6969,-5.6822,-5.695,0.0,-5.4454,-5.4546,-5.3849,-5.2252,-5.2729,-5.1995,-5.005,0.0,0.0,-4.8545,-4.8379,-4.7977,-4.7349,-4.6033,-4.4653,-4.319,-4.1938,-4.0882,-4.0037,-3.9597,-3.8886,-3.8007,-3.711,-3.5893,-3.459,-3.3711,-3.3,-3.2357,-3.1478,-3.0797,-3.0293,-3.0166,-2.9361,0.0,-2.8383,-2.8008,-2.7505,-2.6916,-2.6871,-2.6782,-2.5989,-2.5989,-2.5944,-2.497,-2.5016,-2.5121,-2.4821,-2.6093,-2.7081,-2.6826,-2.8338,-2.9355,-2.8509,-2.8166,-2.7634,-2.6653,-2.7186,-2.726,-2.6482,-2.6991,-2.6901,-2.5704,-2.5615,-2.5031,-2.3684,-2.3595,-2.3131,-2.2113,-2.1949,-2.1635,-2.1111,-2.1096,-2.1291,-2.1695,-2.2099,-2.2084,-2.168,-2.1021,-2.0647,0.0,0.0,0.0,0.0,0.0,0.0,0.0,0.0,0.0,0.0,0.0,-3.2663,0.0,0.0,-4.7168,-5.2458,-5.4748,-5.6117,-5.6879,-5.5962,-5.5172,-5.5109,-5.5282,-5.546,-5.5614,-5.5479,-5.5734,-5.6718,-5.643,-5.6014,-5.5629,-5.5978,-5.5464,-5.3849,-5.3812,-5.3225,-5.1995,-5.1591,-5.0784,-4.9591,-4.9572,-4.9114,-4.8306,-4.8306,-4.8132,-4.7779,-4.6436,-4.5052,-4.36,-4.1509,-4.0206,-3.9462,-3.8734,-3.8227,-3.7719,-3.6197,-3.5148,-3.4336,-3.322,-3.2594,-3.2195,-3.1427,-3.1015,-3.0699,-3.0393,-2.9892,-2.9271,-2.8685,-2.8025,-2.74,-2.6774,-2.6587,-2.6348,-2.536,-2.5615,-2.5734,-2.4403,-2.4642,-2.4911,-2.4238,-2.545,-2.6482,-2.6153,-2.747,-2.8353,-2.7694,-2.7021,-2.6363,-2.5689,-2.6467,-2.6692,-2.5719,-2.6497,-2.6677,-2.5689,-2.4986,-2.4313,-2.364,-2.331,-2.2847,-2.2218,-2.1874,-2.1545,-2.1216,-2.1201,-2.1365,-2.1695,-2.2667,-2.2802,-2.2173,-2.1859,-2.1156,0.0,0.0,0.0,0.0,0.0,0.0,0.0,0.0,-2.7304,-2.8818,-3.1389,-3.5238,-4.1321,-4.5149,-4.9284,-5.5057,-5.6537,-5.7037,-5.7273,-5.5803,-5.46,-5.4282,-5.4818,-5.5055,-5.4696,-5.5066,-5.548,-5.5809,-5.5618,-5.5172,-5.4436,-5.5152,-5.4858,-5.3261,-5.3206,-5.2747,-5.1775,-5.0472,-4.9664,-4.9334,-4.8802,-4.8471,-4.8306,-4.8306,-4.8176,-4.7819,-4.6266,-4.473,-4.3219,-4.1011,-3.9648,-3.892,-3.8193,-3.7736,-3.7229,-3.5233,-3.4404,-3.41,-3.2747,-3.2188,-3.1968,-3.1376,-3.119,-3.1112,-3.0601,-3.0393,-3.0081,-2.8996,-2.8186,-2.7551,-2.6796,-2.6587,-2.6288,-2.5106,-2.554,-2.5764,-2.4148,-2.4537,-2.4896,-2.3804,-2.5016,-2.6004,-2.533,-2.6213,-2.6901,-2.6632,-2.6033,-2.5375,-2.4672,-2.5555,-2.5809,-2.4701,-2.5689,-2.6138,-2.548,-2.4298,-2.3595,-2.3595,-2.3131,-2.2802,-2.2724,-2.2039,-2.1635,-2.1515,-2.1635,-2.1695,-2.1695,-2.2981,-2.3281,-2.2724,-2.2724,-2.1739,-2.3474,-2.3657,-2.4953,-2.7585,-2.763,-2.7843,0.0,0.0,-3.0472,-3.2098,-3.5019,-3.8459,-4.2427,-4.6236,-5.0592,-5.6131,-5.6477,-5.6566,-5.8134,-5.6233,-5.4368,-5.3455,-5.3414,-5.3451,-5.3411,-5.3765,-5.4173,-5.4576,-5.4875,-5.4862,-5.4442,-5.5152,-5.4858,-5.3261,-5.3206,-5.2472,-5.0949,-5.0765,-4.9921,-4.8453,-4.9132,-4.904,-4.8306,-4.8306,-4.7652,-4.6367,-4.3807,-4.1885,-4.0525,-4.0239,-3.9648,-3.892,-3.8193,-3.7077,-3.5774,-3.4844,-3.4083,-3.3406,-3.256,-3.185,-3.1309,-3.1224,-3.119,-3.119,-3.1112,-3.0757,-3.0166,-2.9496,-2.8856,-2.8121,-2.6916,-2.6587,-2.6408,-2.5674,-2.5166,-2.4746,-2.4522,-2.4148,-2.3774,-2.3625,-2.4268,-2.4627,-2.3939,-2.4448,-2.533,-2.6422,-2.6033,-2.5375,-2.4672,-2.4701,-2.4792,-2.4597,-2.5285,-2.545,-2.4746,-2.4044,-2.3595,-2.3595,-2.3535,-2.3251,-2.2739,-2.2039,-2.1425,-2.0842,-2.1395,-2.1695,-2.1695,-2.2981,-2.3281,-2.2724,-2.2724,-2.2248,-2.5144,-2.5819,-2.6982,-2.8647,-2.9134,-2.9576,-3.106,-3.1472,-3.1888,-3.3003,-3.6044,-3.9761,-4.3882,-4.7879,-5.1951,0.0,-5.7351,-5.7402,-5.7044,-5.5292,-5.348,-5.1934,-5.1741,-5.1933,-5.2414,-5.2839,-5.3261,-5.3673,-5.3583,-5.3567,-5.3683,-5.4014,-5.3683,-5.2546,-5.205,-5.1261,-5.0105,-4.9591,-4.9003,-4.8306,-4.8673,-4.8416,-4.7609,-4.7609,-4.6864,-4.5431,-4.3501,-4.2143,-4.1163,-3.9932,-3.9022,-3.8294,-3.7533,-3.6315,-3.4878,-3.4134,-3.3389,-3.2645,-3.1901,-3.1444,-3.119,-3.119,-3.119,-3.119,-3.119,-3.1015,-3.0601,-2.9673,-2.8923,-2.8182,-2.6922,-2.6303,-2.5959,-2.5674,-2.5106,-2.4582,-2.4582,-2.4088,-2.3595,-2.3595,-2.3834,-2.3939,-2.3655,-2.4492,-2.5121,-2.4881,-2.4612,-2.4343,-2.4059,-2.4373,-2.4582,-2.4582,-2.4522,-2.4328,-2.4059,-2.3759,-2.3595,-2.3595,-2.3595,-2.3325,-2.2739,-2.2039,-2.138,-2.0722,-2.1365,-2.1515,-2.1126,-2.2787,-2.3281,-2.2724,-2.2724,-2.2532,-2.5658,-2.6622,-2.7633,-2.8811,-2.9598,-3.0145,-3.0401,-3.1253,-3.2188,-3.2933,-3.618,-4.0164,-4.4357,-4.8224,-5.2068,-5.6014,-5.7016,-5.6916,-5.5832,-5.4077,-5.2457,-5.1234,-5.0663,-5.0664,-5.1491,-5.2066,-5.2437,-5.2503,-5.2634,-5.2735,-5.2881,-5.2876,-5.2601,-5.2013,-5.1004,-5.0178,-4.9591,-4.8728,-4.8306,-4.8306,-4.8306,-4.7884,-4.7057,-4.6486,-4.5651,-4.462,-4.3091,-4.2153,-4.1652,-3.979,-3.8565,-3.7838,-3.7077,-3.5723,-3.4134,-3.3609,-3.2933,-3.2171,-3.1444,-3.119,-3.119,-3.119,-3.119,-3.119,-3.119,-3.119,-3.0975,-2.9935,-2.9286,-2.8666,-2.7439,-2.6771,-2.6376,-2.6201,-2.5588,-2.5108,-2.5108,-2.468,-2.4349,-2.4349,-2.4349,-2.4322,-2.4152,-2.4774,-2.4897,-2.3788,-2.3595,-2.3595,-2.3595,-2.4029,-2.4343,-2.4343,-2.3894,-2.3595,-2.3595,-2.3595,-2.3595,-2.3595,-2.3266,-2.2877,-2.2428,-2.159,-2.1006,-2.0722,-2.1365,-2.1545,-2.1261,-2.2832,-2.337,-2.2936,-2.2936,-2.2936,-2.3841,-2.4569,-2.5386,-2.7348,-2.8176,-2.8749,-2.9864,-3.0683,-3.1427,-3.2171,-3.5736,-3.9796,-4.33,-4.6537,-5.0202,-5.4803,-5.4537,-5.4071,-5.5003,-5.2848,-5.1403,-5.1988,-5.0503,-4.9779,0.0,-5.1432,-5.1599,-5.0835,-5.2253,-5.2832,-5.2095,-5.2032,-5.2013,-5.1995,-5.0453,-4.9609,-4.9591,-4.8728,-4.8306,-4.8306,-4.8306,-4.7884,-4.702,-4.4956,-4.396,-4.3808,-4.1842,-4.0938,-4.0839,-3.9552,-3.8565,-3.7838,-3.7077,-3.5419,-3.344,-3.3406,-3.2933,-3.2171,-3.1444,-3.119,-3.119,-3.119,-3.119,-3.119,-3.119,-3.119,-3.1055,-3.0435,-3.0234,-2.9946,-2.8748,-2.8417,-2.8258,-2.765,-2.6929,-2.6346,-2.6346,-2.6262,-2.6222,-2.6222,-2.6222,-2.6045,-2.5508,-2.487,-2.4245,-2.3681,-2.3595,-2.3595,-2.3595,-2.3625,-2.3625,-2.3625,-2.361,-2.3595,-2.3595,-2.3595,-2.3595,-2.3595,-2.2443,-2.1739,-2.1724,-2.0453,-2.0049,-2.0707,-2.1365,-2.1994,-2.2664,-2.3281,-2.3595,-2.3565,-2.3565,-2.3565,-2.3585,-2.5261,-2.703,-2.7954,-2.849,-2.8883,-2.9282,-3.0311,-3.1258,-3.1512,-3.4093,-3.7196,-4.004,-4.4155,-4.8031,-5.0858,-5.3093,-5.4207,-5.3473,-5.3023,-5.218,-5.0627,-5.0812,0.0,0.0,0.0,0.0,-5.0722,-5.1228,-5.1428,-5.121,-5.1206,-5.0949,-5.0398,-4.9866,-4.9315,-4.8746,-4.8453,-4.8306,-4.8306,-4.7223,-4.6581,-4.625,-4.4455,-4.3652,-4.3543,-4.211,-4.1235,-4.0621,-3.8973,-3.7838,-3.7026,-3.5757,-3.4506,-3.3339,-3.2848,-3.2188,-3.1512,-3.1275,-3.119,-3.119,-3.119,-3.119,-3.119,-3.119,-3.119,-3.1055,-3.0477,-3.0293,-3.0123,-2.9316,-2.9104,-2.9058,-2.8857,-2.8225,-2.7723,-2.7723,-2.738,-2.688,-2.6415,-2.6278,-2.5974,-2.4932,-2.4932,-2.4891,-2.4312,-2.3894,-2.3595,-2.3595,-2.3595,-2.3595,-2.3595,-2.3595,-2.3595,-2.3595,-2.3221,-2.3161,-2.3565,-2.2398,-2.1695,-2.1695,-2.0842,-2.0258,-2.0034,-2.0692,-2.1365,-2.2024,-2.2682,-2.3191,-2.3595,-2.3595,-2.3385,-2.4937,-2.6405,-2.7731,-2.8434,-2.8489,-2.8459,-2.8732,-2.9406,-3.0095,-3.05,-3.2605,-3.5102,-3.7621,-4.1613,-4.5181,-4.7268,-4.9884,-5.1576,-5.1261,-5.131,-5.1074,-5.0234,-5.0967,-5.1105,0.0,0.0,0.0,-5.0523,-5.0619,-5.0651,-5.0563,-5.0423,-5.0123,-4.9609,-4.9297,-4.8857,-4.8324,-4.8306,-4.8159,-4.7865,-4.6526,-4.5755,-4.5424,-4.4085,-4.3497,-4.3426,-4.202,-4.1144,-4.0554,-3.8397,-3.706,-3.6248,-3.4979,-3.388,-3.2949,-3.2459,-3.1816,-3.119,-3.119,-3.119,-3.119,-3.119,-3.119,-3.119,-3.119,-3.119,-3.1112,-3.074,-3.0617,-3.0477,-2.9892,-2.9717,-2.9673,-2.9451,-2.9021,-2.8676,-2.8676,-2.8527,-2.8125,-2.7421,-2.7273,-2.6795,-2.532,-2.489,-2.4618,-2.4297,-2.3879,-2.3595,-2.3595,-2.3595,-2.3595,-2.3595,-2.3595,-2.3595,-2.3595,-2.3041,-2.2847,-2.3236,-2.2054,-2.1335,-2.1335,-2.0707,-2.0258,-2.0049,-2.0483,-2.1036,-2.1695,-2.1874,-2.2173,-2.2562,-2.2323,-2.2113,-2.7608,-2.7864,-2.7651,-2.877,-2.822,-2.7546,-2.8259,-2.8134,-2.8185,-2.9179,-3.1239,-3.3603,0.0,0.0,-4.1965,-4.4317,-4.5479,-4.682,-4.8807,-4.8306,-4.858,0.0,0.0,0.0,0.0,0.0,0.0,-5.0217,0.0,-5.046,-5.007,-4.9713,-4.9517,-4.9517,-4.8728,-4.8306,-4.8306,-4.8269,-4.7865,-4.7075,-4.625,-4.5443,-4.4672,-4.3864,-4.3461,-4.3334,-4.1486,-4.0671,-4.0412,-3.783,-3.6315,-3.5537,-3.4742,-3.3575,-3.2364,-3.2256,-3.1782,-3.119,-3.119,-3.119,-3.119,-3.119,-3.119,-3.119,-3.119,-3.119,-3.119,-3.119,-3.119,-3.1055,-3.0477,-3.0351,-3.0208,-2.9629,-2.9371,-2.9296,-2.9296,-2.9761,-2.9939,-2.9194,-2.8975,-2.836,-2.6606,-2.4843,-2.3683,-2.361,-2.3625,-2.364,-2.3595,-2.3595,-2.3595,-2.3595,-2.3565,-2.3565,-2.3595,-2.2996,-2.2679,-2.2724,-2.144,-2.0722,-2.0722,-2.0049,-1.9989,-2.0647,-2.0662,-2.0991,-2.165,-2.1021,-2.0722,-2.0692,-2.0049,-2.0049,-2.8442,-2.916,-2.9971,-2.9977,-2.907,-2.8236,-2.8427,-2.8814,-2.8885,-2.7969,-2.9804,-3.1854,0.0,0.0,0.0,-4.4145,-4.7099,0.0,-5.1464,-5.1974,0.0,-5.2018,0.0,-5.3172,-5.1722,-5.1779,0.0,0.0,-5.0088,-4.9626,-4.9247,-4.8827,-4.8636,-4.8636,-4.8416,-4.8306,-4.8306,-4.7719,-4.7315,-4.7095,-4.57,-4.4911,-4.4672,-4.3864,-4.3167,-4.2546,-4.1253,-4.0028,-3.8868,-3.7418,-3.6315,-3.5487,-3.4184,-3.3457,-3.2983,-3.1884,-3.136,-3.119,-3.119,-3.119,-3.119,-3.119,-3.119,-3.119,-3.119,-3.119,-3.119,-3.119,-3.119,-3.1151,-3.1015,-3.0975,-3.0918,-3.0797,-3.0727,-3.069,-3.069,-3.0825,-3.07,-2.9956,-2.8632,-2.7316,-2.6446,-2.5524,-2.4643,-2.3756,-2.4044,-2.4178,-2.367,-2.3595,-2.3595,-2.3595,-2.3191,-2.3101,-2.3565,-2.2577,-2.2158,-2.2679,-2.144,-2.0722,-2.0722,-2.0049,-1.9765,-1.9944,-1.9944,-2.0288,-2.0961,-2.0797,-2.0722,-2.0722,-2.0528,-2.0004,-3.1102,-3.1846,-3.2462,-3.1502,-3.0497,-2.9481,-2.8434,-2.8383,-2.8331,-2.7525,-2.8615,0.0,-3.1261,-3.507,0.0,0.0,0.0,0.0,-5.0722,-5.1349,-5.1752,0.0,-5.3055,0.0,-5.2011,-5.1914,-5.1568,0.0,-5.0135,-4.9589,-4.9171,-4.8779,-4.8477,-4.8306,-4.8306,-4.8141,-4.7792,-4.7352,-4.6764,-4.6049,-4.5149,-4.4525,-4.4158,-4.3332,-4.2727,-4.2216,0.0,-3.9195,-3.8267,-3.6526,-3.5334,-3.4539,-3.3372,-3.2713,-3.2324,-3.1512,-3.119,-3.119,-3.119,-3.119,-3.119,-3.119,-3.119,-3.119,-3.119,-3.119,-3.119,-3.119,-3.119,-3.119,-3.119,-3.119,-3.119,-3.119,-3.119,-3.119,-3.119,-3.119,-3.0886,-2.982,-2.7985,-2.6459,-2.5908,-2.535,-2.4645,-2.3741,-2.3924,-2.4044,-2.3655,-2.3595,-2.349,-2.3221,-2.2877,-2.2697,-2.2757,-2.1844,-2.1425,-2.1799,-2.0842,-2.0258,-2.0258,-1.9884,-1.969,-1.969,-1.969,-1.9735,-1.9824,-1.954,-1.9221,-1.8937,-1.8672,-1.8298,-3.4459,-3.4859,-3.4688,-3.3134,-3.2107,-3.0826,-2.8482,-2.7687,-2.7444,-2.7442,0.0,-2.8744,-3.0769,-3.4117,-3.7332,-3.9726,0.0,-4.5819,-4.8964,-4.9182,-4.9841,-5.2028,-5.2279,-5.2186,-5.1914,-5.1914,-5.1568,-5.076,-5.0377,-4.9974,-4.9532,-4.9108,-4.8728,-4.8306,-4.8306,-4.7921,-4.7131,-4.7003,-4.6195,-4.4709,-4.4599,-4.4176,-4.3461,-4.2671,-4.2249,-4.2014,0.0,0.0,-3.7895,-3.558,-3.4134,-3.3339,-3.2577,-3.1901,-3.1326,-3.1241,-3.119,-3.119,-3.119,-3.119,-3.119,-3.119,-3.119,-3.119,-3.119,-3.119,-3.119,-3.119,-3.119,-3.119,-3.119,-3.119,-3.119,-3.119,-3.119,-3.119,-3.119,-3.1123,-3.0666,-2.9381,-2.7554,-2.6072,-2.5442,-2.4879,-2.4307,-2.3681,-2.3595,-2.3595,-2.3595,-2.3595,-2.3355,-2.2742,-2.2607,-2.2323,-2.1739,-2.1096,-2.0722,-2.0722,-2.0154,-1.9779,-1.969,-1.969,-1.9645,-1.9555,-1.9555,-1.9226,-1.8568,-1.7966,-1.7354,-1.6697,-1.6159,-1.6159,-3.5983,-3.5715,-3.5214,-3.4294,-3.2871,-3.1219,-2.9246,-2.8747,0.0,0.0,-2.809,-2.9578,-3.0185,-3.3311,-3.7336,-4.2052,-4.3977,-4.6557,-5.1367,-5.1313,-5.1154,0.0,-5.2822,-5.2843,0.0,0.0,0.0,0.0,0.0,0.0,-4.9532,-4.9108,-4.8728,-4.8306,-4.8306,-4.7921,-4.7131,-4.6452,-4.5626,-4.4709,-4.403,-4.3626,-4.3461,-4.2671,-4.1937,-4.1225,0.0,0.0,-3.6358,-3.5518,-3.4494,-3.3339,-3.2577,-3.2205,-3.2019,-3.141,-3.119,-3.119,-3.119,-3.119,-3.119,-3.119,-3.119,-3.119,-3.119,-3.119,-3.119,-3.119,-3.119,-3.119,-3.119,-3.119,-3.119,-3.119,-3.119,-3.119,-3.119,-3.0717,-3.0226,-2.9973,-2.8598,-2.7197,-2.626,-2.5527,-2.4752,-2.3767,-2.3595,-2.3595,-2.3595,-2.3595,-2.3355,-2.2742,-2.2188,-2.1814,-2.171,-2.1096,-2.0722,-2.0722,-2.0602,-2.0288,-1.9705,-1.969,-1.9435,-1.8882,-1.8867,-1.8553,-1.7861,-1.7757,-1.7354,-1.6712,-1.6592,-1.6338,-3.657,-3.6843,-3.6685,-3.478,-3.3565,-3.2002,-2.8771,0.0,0.0,0.0,-2.7602,-2.909,-3.1172,-3.3763,0.0,-4.0838,-4.2261,-4.454,-4.9263,-4.9079,0.0,-5.1897,-5.2078,-5.1969,0.0,0.0,0.0,0.0,0.0,0.0,-4.9532,-4.893,-4.8329,-4.77,-4.77,-4.7095,-4.5883,-4.548,-4.4874,-4.4066,-4.3681,-4.3497,-4.3442,-4.2231,-4.1479,-4.1005,0.0,0.0,-3.6291,-3.5171,-3.4133,-3.3077,-3.2123,-3.1715,-3.1664,-3.1326,-3.119,-3.119,-3.119,-3.119,-3.119,-3.119,-3.119,-3.119,-3.119,-3.119,-3.119,-3.119,-3.119,-3.119,-3.119,-3.119,-3.119,-3.119,-3.119,-3.1089,-3.0717,-3.004,-2.9397,-2.8991,-2.801,-2.7007,-2.6286,-2.5842,-2.5335,-2.4552,-2.4199,-2.4032,-2.4032,-2.3522,-2.2877,-2.2233,-2.1575,-2.1036,-2.0677,-2.0363,-2.0183,-2.0183,-2.0183,-2.0034,-1.969,-1.969,-1.9375,-1.8717,-1.8702,-1.8208,-1.7174,-1.7174,-1.6846,-1.6234,-1.6234,-1.6069,-3.6812,-3.7519,-3.7721,-3.4894,-3.3979,-3.2581,-2.8204,-2.7138,0.0,-2.6841,-2.7198,-2.8601,-3.2013,-3.3809,-3.5708,0.0,-3.9643,-4.168,-4.6187,-4.6286,-4.7303,0.0,-5.1043,0.0,0.0,0.0,0.0,0.0,0.0,0.0,0.0,-4.8664,-4.785,-4.7131,-4.6948,-4.6159,-4.4727,-4.4709,-4.4213,-4.3222,-4.3222,-4.3149,-4.2928,-4.1497,-4.0855,-4.073,0.0,0.0,0.0,-3.503,-3.3818,-3.2654,-3.1688,-3.1291,-3.119,-3.119,-3.119,-3.119,-3.119,-3.119,-3.119,-3.119,-3.119,-3.119,-3.119,-3.119,-3.119,-3.119,-3.119,-3.119,-3.119,-3.119,-3.119,-3.119,-3.1072,-3.0801,-3.0243,-2.9381,-2.8552,-2.7943,-2.7334,-2.6741,-2.6101,-2.6129,-2.5995,-2.5313,-2.4816,-2.4576,-2.4576,-2.3671,-2.2707,-2.1937,-2.1308,-2.0647,-1.9959,-1.9899,-1.9839,-1.969,-1.969,-1.969,-1.969,-1.9555,-1.9166,-1.8508,-1.8358,-1.7682,-1.6502,-1.6502,-1.6263,-1.5799,-1.5799,-1.5799,-3.6971,-3.7023,-3.6838,-3.4722,-3.3814,-3.2361,-2.813,0.0,-2.8334,-2.7063,-2.765,-2.9083,-3.1399,-3.1941,-3.3191,-3.659,-3.7229,-3.9071,-4.4226,-4.5453,-4.6797,-4.9514,0.0,0.0,0.0,0.0,0.0,0.0,0.0,0.0,0.0,-4.8383,-4.7562,-4.7113,-4.6397,-4.559,-4.4727,-4.4709,-4.3938,-4.2415,-4.2415,-4.2029,-4.1295,-4.0414,-4.001,-3.9955,0.0,0.0,0.0,-3.5533,-3.4054,-3.1893,-3.1787,-3.1507,-3.119,-3.119,-3.119,-3.119,-3.119,-3.119,-3.119,-3.119,-3.119,-3.119,-3.119,-3.119,-3.119,-3.119,-3.119,-3.119,-3.119,-3.119,-3.119,-3.119,-3.0683,-3.0192,-3.0125,-2.8958,-2.7909,-2.7806,-2.7739,-2.7347,-2.6201,-2.6557,-2.6585,-2.5394,-2.5144,-2.5144,-2.5144,-2.4483,-2.3597,-2.2474,-2.1918,-2.1335,-2.0677,-2.0617,-2.0348,-1.972,-1.969,-1.969,-1.969,-1.9106,-1.8493,-1.7802,-1.7189,-1.6547,-1.5888,-1.5888,-1.5858,-1.5799,-1.5799,-1.5799,-3.6576,-3.7162,-3.7166,-3.53,-3.3667,-3.1634,-2.8305,0.0,-2.6791,-2.6552,-2.76,-2.9342,-3.1937,-3.2494,-3.3325,-3.5728,0.0,0.0,-4.0869,-4.1319,-4.2866,-4.7433,0.0,0.0,0.0,0.0,0.0,0.0,0.0,0.0,0.0,-4.7872,-4.68,-4.57,-4.5351,-4.48,-4.3993,-4.3497,-4.2928,-4.2286,-4.1809,-4.1423,-4.1075,-4.0267,-3.99,-3.9827,0.0,0.0,0.0,-3.5186,-3.4002,-3.2598,-3.2332,-3.2109,-3.195,-3.1677,-3.1565,-3.1545,-3.1291,-3.119,-3.119,-3.119,-3.119,-3.119,-3.119,-3.119,-3.119,-3.119,-3.119,-3.119,-3.119,-3.0869,-3.0548,-3.0548,-2.9973,-2.9313,-2.8839,-2.8619,-2.8247,-2.7317,-2.752,-2.7501,-2.657,-2.6652,-2.6701,-2.6173,-2.5872,-2.5689,-2.5689,-2.4798,-2.4026,-2.3647,-2.2378,-2.1188,-2.019,-2.0094,-1.9974,-1.9705,-1.969,-1.969,-1.969,-1.9046,-1.8388,-1.7697,-1.704,-1.6383,-1.5799,-1.5799,-1.5799,-1.5799,-1.5799,-1.5799,-3.5333,-3.6399,-3.6787,-3.5214,-3.3326,-3.1219,0.0,0.0,-2.6942,-2.714,-2.8501,-3.0405,-3.2839,-3.296,-3.3218,-3.4908,0.0,-3.439,-3.8078,-3.8517,-4.0183,0.0,0.0,0.0,0.0,0.0,0.0,0.0,0.0,0.0,0.0,-4.7087,-4.6078,-4.4745,-4.425,-4.3718,-4.3149,-4.2359,-4.1827,-4.157,-4.102,-4.0506,-4.0029,-3.9441,-3.9056,0.0,0.0,0.0,0.0,-3.495,-3.4027,-3.3184,-3.2858,-3.2616,-3.2451,-3.2127,-3.1915,-3.1752,-3.1487,-3.1291,-3.119,-3.119,-3.119,-3.119,-3.119,-3.119,-3.119,-3.119,-3.119,-3.114,-3.092,-3.0497,-3.0108,-3.0108,-2.9533,-2.889,-2.8569,-2.8755,-2.8586,-2.7283,-2.7638,-2.7858,-2.686,-2.6877,-2.6945,-2.6725,-2.6401,-2.6227,-2.6227,-2.5464,-2.4839,-2.4601,-2.3174,-2.1706,-2.0392,-2.0109,-1.9899,-1.969,-1.969,-1.969,-1.969,-1.9046,-1.8388,-1.7697,-1.704,-1.6383,-1.5799,-1.5799,-1.5799,-1.5799,-1.5799,-1.5799,-3.3114,-3.4294,-3.522,-3.3949,-3.2704,-3.1324,-2.9501,-2.9644,-2.9973,-2.9386,-3.081,-3.2576,-3.3953,-3.2833,-3.2256,-3.3943,-3.3481,0.0,-3.6372,-3.82,0.0,0.0,0.0,0.0,0.0,0.0,0.0,0.0,0.0,0.0,0.0,0.0,-4.5477,-4.4744,-4.3167,-4.2323,-4.2304,-4.1515,-4.0726,-3.9918,-3.9918,-3.9074,-3.7544,-3.7544,0.0,0.0,0.0,0.0,0.0,-3.499,-3.4298,-3.3214,-3.3184,-3.2921,-3.2484,-3.2484,-3.2196,-3.1789,-3.1789,-3.1528,-3.119,-3.119,-3.119,-3.119,-3.119,-3.119,-3.119,-3.119,-3.119,-3.1021,-3.0311,-3.0125,-3.0108,-3.0108,-2.9533,-2.9194,-2.9922,-2.9499,-2.8755,-2.796,-2.8433,-2.8484,-2.6962,-2.7317,-2.7554,-2.681,-2.6691,-2.6691,-2.6691,-2.6691,-2.6219,-2.5127,-2.4331,-2.3294,-2.1822,-2.1081,-2.0423,-1.9735,-1.969,-1.969,-1.969,-1.9046,-1.8388,-1.7697,-1.704,-1.6383,-1.5799,-1.5799,-1.5799,-1.5799,-1.5799,-1.5799,-3.2499,-3.3296,-3.3759,-3.3364,-3.193,-3.0507,-2.9973,-2.9547,-2.9393,-3.001,-3.139,-3.2829,-3.3999,-3.3757,-3.3776,-3.4911,-3.4353,0.0,0.0,0.0,0.0,0.0,0.0,0.0,0.0,0.0,0.0,0.0,0.0,0.0,0.0,0.0,-4.4983,-4.4239,-4.32,-4.2538,-4.2304,-4.0414,-3.9331,-3.9074,-3.7973,-3.7165,-3.667,-3.667,0.0,0.0,0.0,0.0,0.0,-3.4412,-3.3945,-3.3606,-3.3606,-3.3522,-3.3361,-3.3075,-3.2872,-3.2681,-3.2022,-3.1733,-3.1565,-3.1291,-3.119,-3.119,-3.119,-3.119,-3.119,-3.119,-3.0835,-3.0395,-3.0176,-2.933,-2.8687,-2.9211,-2.8349,-2.7621,-2.8383,-2.8349,-2.796,-2.7199,-2.7672,-2.7858,-2.686,-2.6894,-2.6962,-2.6725,-2.6691,-2.6691,-2.6691,-2.6691,-2.6219,-2.4974,-2.4281,-2.3254,-2.1698,-2.1144,-2.068,-2.0139,-2.0124,-1.994,-1.9495,-1.854,-1.7939,-1.7697,-1.6637,-1.6189,-1.6398,-1.5994,-1.5799,-1.5799,-1.5799,-1.5799,-3.147,-3.2082,-3.2472,-3.2472,-3.1409,0.0,-3.073,-3.0494,-3.0498,-3.1525,-3.2684,-3.3769,-3.4557,-3.441,-3.4487,-3.5372,-3.4776,-3.4507,0.0,0.0,0.0,0.0,0.0,0.0,0.0,0.0,0.0,0.0,0.0,0.0,0.0,0.0,-4.4059,-4.345,-4.2408,-4.1757,-4.1557,-3.9338,-3.8248,-3.823,-3.6909,-3.6138,-3.5807,0.0,0.0,0.0,0.0,0.0,0.0,-3.4009,-3.3807,-3.3807,-3.3807,-3.3807,-3.3762,-3.3522,-3.3332,-3.3105,-3.2533,-3.2092,-3.1752,-3.1507,-3.1142,-3.0784,-3.0784,-3.0784,-3.0734,-3.0446,-3.004,-2.9617,-2.933,-2.8499,-2.7943,-2.8433,-2.7807,-2.7334,-2.8095,-2.8264,-2.8044,-2.7266,-2.7503,-2.7588,-2.6826,-2.6691,-2.6691,-2.6691,-2.6691,-2.6691,-2.6691,-2.6454,-2.5983,-2.5196,-2.428,-2.3226,-2.2061,-2.1374,-2.0797,-2.0348,-2.0314,-2.0076,-1.9523,-1.8601,-1.7951,-1.7697,-1.6682,-1.6219,-1.6353,-1.5964,-1.5799,-1.5799,-1.5799,-1.5799,0.0,-3.0754,-3.1286,-3.1311,-3.1117,-3.1074,-3.1723,-3.2233,0.0,-3.3724,-3.4547,-3.5226,-3.5523,-3.4872,-3.4564,-3.5372,-3.4814,0.0,0.0,0.0,0.0,0.0,0.0,0.0,0.0,0.0,0.0,0.0,0.0,0.0,0.0,0.0,0.0,-4.2276,-4.0854,-4.0151,-4.0207,-3.829,-3.7312,-3.7294,-3.6505,-3.5697,-3.4899,0.0,0.0,0.0,0.0,0.0,0.0,-3.3807,-3.3807,-3.3807,-3.3807,-3.3807,-3.3807,-3.3807,-3.355,-3.3243,-3.3214,-3.2595,-3.1793,-3.1686,-3.0911,-3.0023,-2.9956,-2.9989,-2.9888,-2.9178,-2.8941,-2.8738,-2.801,-2.7755,-2.7722,-2.7772,-2.7739,-2.796,-2.8738,-2.8856,-2.8602,-2.7875,-2.7705,-2.752,-2.6826,-2.6691,-2.6674,-2.6623,-2.6623,-2.659,-2.6539,-2.5947,-2.549,-2.5389,-2.4137,-2.3093,-2.2514,-2.1583,-2.0846,-2.0382,-2.0314,-2.0093,-1.9687,-1.8986,-1.8343,-1.7697,-1.704,-1.6383,-1.5799,-1.5799,-1.5799,-1.5799,-1.5799,-1.5799,-3.1109,0.0,-3.0096,-3.0393,-3.0646,-3.1148,0.0,-3.2957,-3.3485,-3.4577,-3.512,-3.5605,-3.6281,-3.5757,-3.5257,-3.5468,-3.5334,-3.5026,0.0,0.0,0.0,0.0,0.0,0.0,0.0,0.0,0.0,0.0,0.0,0.0,0.0,0.0,0.0,-4.0063,-3.8823,-3.8539,-3.9359,-3.6869,-3.5605,-3.5587,-3.478,-3.4284,-3.4082,0.0,0.0,0.0,0.0,0.0,0.0,-3.3807,-3.3807,-3.3807,-3.3807,-3.3807,-3.3807,-3.3807,-3.3734,-3.3606,-3.3302,-3.2649,-3.1734,-3.0469,-2.9675,-2.9127,-2.8535,-2.8772,-2.9211,-2.9025,-2.8552,-2.8061,-2.784,-2.7385,-2.7114,-2.7689,-2.7385,-2.7165,-2.7926,-2.7638,-2.7182,-2.6996,-2.6962,-2.6894,-2.6725,-2.6691,-2.6505,-2.5947,-2.5862,-2.5642,-2.5067,-2.4879,-2.4323,-2.3207,-2.2784,-2.1916,-2.0378,-2.098,-2.1275,-2.0862,-2.0516,-2.0064,-1.9485,-1.8498,-1.7847,-1.7697,-1.704,-1.6383,-1.5799,-1.5799,-1.5799,-1.5799,-1.5799,-1.5799,-3.1953,-3.1221,-3.0563,-3.1151,-3.1469,-3.2015,-3.3448,-3.3575,-3.3772,-3.5015,-3.5091,-3.5161,-3.6007,-3.6103,-3.5938,-3.5611,-3.583,0.0,0.0,0.0,0.0,0.0,0.0,0.0,0.0,0.0,0.0,0.0,0.0,0.0,0.0,0.0,0.0,0.0,-3.7553,-3.7413,-3.8365,-3.6384,-3.5361,-3.5225,-3.4375,-3.3928,-3.3807,0.0,0.0,0.0,0.0,0.0,-3.2687,-3.2687,-3.2926,-3.3256,-3.3256,-3.3476,-3.3807,-3.3807,-3.3568,-3.323,-3.3003,-3.2281,-3.1224,-2.9909,-2.9145,-2.8595,-2.7978,-2.7875,-2.7926,-2.7926,-2.7621,-2.73,-2.73,-2.6759,-2.6387,-2.7131,-2.6725,-2.6404,-2.7148,-2.6725,-2.6099,-2.5744,-2.5676,-2.5676,-2.5676,-2.5406,-2.5169,-2.5101,-2.4526,-2.3951,-2.3528,-2.3219,-2.2694,-2.187,-2.1465,-2.0827,-1.9803,-2.0262,-2.0567,-2.0526,-2.0129,-1.9814,-1.9641,-1.8423,-1.7592,-1.7284,-1.6769,-1.6376,-1.6039,-1.5885,-1.5799,-1.5799,-1.5799,-1.5799,-3.2577,-3.2192,-3.1898,-3.2467,-3.2779,-3.3253,-3.4438,-3.4167,-3.4017,-3.5249,-3.4911,-3.4661,-3.5526,-3.6238,0.0,0.0,0.0,0.0,0.0,0.0,0.0,0.0,0.0,0.0,0.0,0.0,0.0,0.0,0.0,0.0,0.0,0.0,0.0,0.0,-3.6668,-3.6511,-3.72,-3.6215,-3.5603,-3.5371,-3.4624,-3.4067,-3.3684,-3.3684,0.0,0.0,0.0,0.0,-3.1384,-3.1256,-3.1696,-3.2412,-3.2284,-3.2651,-3.3275,-3.3385,-3.2852,-3.2063,-3.2063,-3.1401,-3.0463,-2.9492,-2.8699,-2.8068,-2.7657,-2.7012,-2.6436,-2.6521,-2.6607,-2.6674,-2.6556,-2.6065,-2.5744,-2.6234,-2.5879,-2.5609,-2.6218,-2.5778,-2.5084,-2.4441,-2.4222,-2.4154,-2.4154,-2.3646,-2.341,-2.393,-2.2919,-2.209,-2.1972,-2.1397,-2.0957,-2.0865,-2.0247,-1.9782,-1.9614,-1.9325,-1.9329,-1.9731,-1.9358,-1.9216,-1.9411,-1.8266,-1.7343,-1.6753,-1.6448,-1.6274,-1.6219,-1.5926,-1.5754,-1.5649,-1.5754,-1.5754,-3.2412,-3.3018,-3.3293,-3.2742,-3.355,-3.4507,-3.4663,-3.4775,-3.4969,-3.5412,-3.5391,-3.5565,0.0,-3.6622,-3.6466,0.0,0.0,0.0,0.0,0.0,0.0,0.0,0.0,0.0,0.0,0.0,0.0,0.0,0.0,0.0,0.0,0.0,0.0,0.0,0.0,-3.5681,-3.5816,-3.5191,-3.4862,-3.4821,-3.4689,-3.4108,-3.3125,-3.3125,-3.2556,0.0,0.0,0.0,-3.1347,-3.0668,-3.0852,-3.1513,-3.0834,-3.065,-3.0834,-3.1513,-3.0834,-2.9544,-2.9544,-2.966,-2.9557,-2.803,-2.7263,-2.6876,-2.6463,-2.5855,-2.5313,-2.5688,-2.6218,-2.6556,-2.593,-2.5693,-2.5473,-2.4949,-2.476,-2.4709,-2.4797,-2.4255,-2.3697,-2.3579,-2.3054,-2.2649,-2.2649,-2.2547,-2.231,-2.1796,-2.1498,-2.1109,-2.0424,-2.0238,-1.9959,-1.9316,-1.913,-1.8713,-1.7773,-1.7923,-1.8217,-1.8628,-1.8156,-1.7666,-1.7205,-1.6966,-1.6702,-1.6382,-1.6328,-1.6163,-1.5885,-1.5827,-1.5514,-1.4989,-1.5544,-1.5499,-3.1843,-3.2852,-3.375,-3.3568,-3.4692,-3.5962,-3.6528,-3.6179,-3.5821,-3.6099,0.0,0.0,0.0,0.0,-3.6774,-3.6964,0.0,0.0,0.0,0.0,0.0,0.0,0.0,0.0,0.0,0.0,0.0,0.0,0.0,0.0,0.0,0.0,0.0,0.0,0.0,0.0,-3.5493,-3.4795,-3.4594,-3.4907,-3.4452,-3.3847,-3.3208,-3.2718,-3.1955,0.0,0.0,-3.0005,-2.9384,-2.8594,-2.8723,-2.942,-2.9053,-2.9163,-2.9549,-2.9475,-2.898,-2.8301,-2.786,-2.7803,-2.7809,-2.6856,-2.6451,-2.6223,-2.5669,-2.4977,-2.4488,-2.4904,-2.5236,-2.5423,-2.5084,-2.4712,-2.4323,-2.3985,-2.3596,-2.341,-2.3816,-2.3004,-2.2192,-2.2192,-2.16,-2.1049,-2.1049,-2.0737,-2.0483,-2.0551,-1.9875,-1.9232,-1.8853,-1.8802,-1.8691,-1.8352,-1.8318,-1.8097,-1.7606,-1.7356,-1.7271,-1.7472,-1.7988,-1.7642,-1.6186,-1.6482,-1.6453,-1.5938,-1.5591,-1.555,-1.5743,-1.5424,-1.5304,-1.5364,-1.5664,-1.5634,-3.0779,-3.188,-3.3022,-3.3334,-3.496,-3.6836,-3.815,-3.7395,-3.6575,-3.719,0.0,0.0,0.0,-3.6131,0.0,0.0,0.0,0.0,0.0,0.0,0.0,0.0,0.0,0.0,0.0,0.0,0.0,0.0,0.0,0.0,0.0,0.0,0.0,0.0,0.0,0.0,-3.4891,-3.4237,-3.4131,-3.456,-3.3719,-3.2959,-3.2316,-3.1618,-3.0772,-2.9771,-2.9096,-2.8361,-2.7524,-2.667,-2.6796,-2.7493,-2.731,-2.7732,-2.8338,-2.7328,-2.72,-2.7402,-2.6594,-2.6447,-2.6515,-2.6018,-2.5855,-2.5726,-2.4892,-2.4147,-2.3659,-2.4064,-2.3915,-2.3687,-2.3926,-2.3562,-2.3054,-2.2682,-2.2175,-2.1938,-2.2479,-2.1566,-2.0653,-2.0653,-2.0027,-1.9478,-1.9478,-1.9029,-1.8826,-1.9393,-1.8515,-1.7811,-1.7811,-1.7811,-1.7811,-1.7811,-1.7659,-1.754,-1.754,-1.7016,-1.6631,-1.6462,-1.749,-1.7287,-1.5426,-1.6035,-1.6133,-1.5496,-1.4968,-1.4986,-1.5589,-1.506,-1.5052,-1.5574,-1.5724,-1.5634,-2.898,-2.9806,-3.052,-3.0717,-3.339,-3.6472,-3.8404,-3.7718,-3.7147,-3.8777,0.0,0.0,0.0,-3.6098,0.0,0.0,0.0,0.0,0.0,0.0,0.0,0.0,0.0,0.0,0.0,0.0,0.0,0.0,0.0,0.0,0.0,0.0,0.0,0.0,0.0,0.0,-3.3083,-3.3026,-3.3026,-3.3038,-3.2231,-3.0906,-2.9127,-2.907,-2.8457,-2.7443,-2.7177,-2.7046,-2.6897,-2.5887,-2.5952,-2.6612,-2.586,-2.6062,-2.6594,-2.5034,-2.5401,-2.6576,-2.5768,-2.597,-2.6484,-2.5693,-2.5436,-2.5228,-2.4068,-2.3185,-2.2676,-2.3106,-2.2177,-2.1278,-2.2228,-2.2429,-2.204,-2.0576,-2.0187,-2.017,-2.0221,-1.9638,-1.9063,-1.9063,-1.8471,-1.7963,-1.7963,-1.7907,-1.7912,-1.7941,-1.7879,-1.7811,-1.7811,-1.7811,-1.7811,-1.7811,-1.7185,-1.6783,-1.6783,-1.6733,-1.6411,-1.5714,-1.5781,-1.546,-1.4596,-1.5291,-1.551,-1.5138,-1.4859,-1.4892,-1.5237,-1.4928,-1.4812,-1.4872,-1.5514,-1.5111,-2.8319,-2.9567,-3.0894,-3.0674,-3.2516,-3.4848,-3.6843,-3.7814,-3.8354,-3.8469,-3.8661,0.0,0.0,0.0,0.0,0.0,0.0,0.0,0.0,0.0,0.0,0.0,0.0,0.0,0.0,0.0,0.0,0.0,0.0,0.0,0.0,0.0,0.0,0.0,0.0,0.0,0.0,-2.9775,-2.8986,-2.9006,-3.0275,-3.0508,-2.9756,-2.872,-2.7931,-2.7357,-2.6786,-2.6373,-2.6098,-2.5189,-2.4949,-2.5034,-2.4226,-2.4392,-2.4979,-2.3859,-2.4171,-2.4997,-2.419,-2.4116,-2.4226,-2.3419,-2.3162,-2.3033,-2.2361,-2.1652,-2.127,-2.2167,-2.1188,-2.0286,-2.2074,-2.1841,-2.0926,-2.0187,-1.9647,-1.9316,-1.9316,-1.8741,-1.8352,-1.8809,-1.8302,-1.7811,-1.7811,-1.7811,-1.7811,-1.7811,-1.7811,-1.7811,-1.7811,-1.7811,-1.7811,-1.7811,-1.7134,-1.6343,-1.5409,-1.5325,-1.502,-1.4294,-1.5088,-1.5054,-1.387,-1.4366,-1.4383,-1.3801,-1.3366,-1.3399,-1.3961,-1.3264,-1.357,-1.4782,-1.421,-1.412,-2.7662,-2.8796,-3.0162,-2.9717,-3.096,-3.2826,-3.5016,-3.6979,-3.8415,-3.861,-3.8511,-3.751,-3.4705,0.0,0.0,0.0,0.0,0.0,0.0,0.0,0.0,0.0,0.0,0.0,0.0,0.0,0.0,0.0,0.0,0.0,0.0,0.0,0.0,0.0,0.0,0.0,0.0,-2.7084,-2.6208,-2.6217,-2.7698,-2.8275,-2.7967,-2.6813,-2.6203,-2.5982,-2.5373,-2.494,-2.4642,-2.3969,-2.3597,-2.3382,-2.2832,-2.296,-2.3382,-2.2813,-2.296,-2.3364,-2.2813,-2.263,-2.2538,-2.1969,-2.1803,-2.1713,-2.1207,-2.0699,-2.0499,-2.15,-2.0527,-1.9707,-2.1906,-2.1216,-1.9829,-1.9391,-1.8927,-1.8555,-1.8555,-1.8166,-1.7963,-1.8454,-1.8149,-1.7811,-1.7811,-1.7811,-1.7811,-1.7811,-1.7811,-1.7811,-1.7811,-1.7811,-1.7625,-1.7168,-1.6644,-1.5849,-1.4596,-1.4494,-1.4293,-1.3768,-1.4407,-1.4355,-1.3447,-1.3839,-1.366,-1.2702,-1.236,-1.2437,-1.2886,-1.2584,-1.3032,-1.4139,-1.3436,-1.3256,-2.688,-2.72,-2.7735,-2.7403,-2.8555,-3.0513,-3.3168,-3.5088,-3.7032,-3.9548,-3.8061,-3.5844,-3.4447,0.0,0.0,0.0,0.0,0.0,0.0,0.0,0.0,0.0,0.0,0.0,0.0,0.0,0.0,0.0,0.0,0.0,0.0,0.0,0.0,0.0,0.0,0.0,0.0,-2.5337,-2.5307,-2.5226,-2.4409,-2.361,-2.2812,-2.2793,-2.2793,-2.2793,-2.2592,-2.2498,-2.2475,-2.2135,-2.1932,-2.1803,-2.1803,-2.1803,-2.1803,-2.1803,-2.1803,-2.1803,-2.1803,-2.1784,-2.1784,-2.1784,-2.1784,-2.1584,-2.0758,-2.0484,-2.0599,-2.1132,-2.0192,-1.9471,-2.1458,-2.0443,-1.8707,-1.7997,-1.7811,-1.7811,-1.7811,-1.7811,-1.7811,-1.7811,-1.7772,-1.7794,-1.7811,-1.7794,-1.7794,-1.7794,-1.7794,-1.7794,-1.7794,-1.7794,-1.7219,-1.5747,-1.5595,-1.5291,-1.4528,-1.4477,-1.4477,-1.4477,-1.3537,-1.3121,-1.3379,-1.3822,-1.3415,-1.2024,-1.211,-1.2174,-1.219,-1.3241,-1.3436,-1.2816,-1.3466,-1.2694,-2.7193,-2.7603,-2.8493,-2.7816,-2.9021,-3.0861,-3.2797,-3.4832,0.0,0.0,-3.6802,-3.5002,-3.3544,0.0,0.0,0.0,0.0,0.0,0.0,0.0,0.0,0.0,0.0,0.0,0.0,0.0,0.0,0.0,0.0,0.0,0.0,0.0,0.0,0.0,0.0,0.0,0.0,0.0,-2.0357,-2.0925,-2.0076,-2.1097,-2.3687,-2.309,-2.2793,-2.2793,-2.2738,-2.2642,-2.2475,-2.2135,-2.1977,-2.1858,-2.1156,-2.1253,-2.1729,-2.1106,-2.1272,-2.1711,-2.1106,-2.0519,-2.0039,-2.0039,-1.9656,-1.9253,-1.9565,-1.9656,-1.9806,-2.0529,-1.99,-1.9219,-2.0207,-1.9437,-1.8473,-1.8766,-1.8478,-1.8035,-1.7856,-1.7811,-1.7811,-1.7811,-1.7371,-1.7185,-1.771,-1.6948,-1.6424,-1.6948,-1.6576,-1.6255,-1.6255,-1.6255,-1.59,-1.4936,-1.4834,-1.4327,-1.3058,-1.2807,-1.2723,-1.2672,-1.2251,-1.2348,-1.3086,-1.245,-1.1862,-1.1448,-1.0884,-1.0572,-1.0572,-1.0902,-1.1416,-1.2089,-1.1835,-1.1619,-2.7106,-2.731,-2.8195,-2.8772,-2.9996,-3.1499,-3.3119,0.0,0.0,0.0,0.0,-3.4483,0.0,0.0,0.0,0.0,0.0,0.0,0.0,0.0,0.0,0.0,0.0,0.0,0.0,0.0,0.0,0.0,0.0,0.0,0.0,0.0,0.0,0.0,0.0,0.0,0.0,0.0,0.0,-1.8581,-1.8056,-1.9124,-2.159,-2.102,-2.0954,-2.1281,-2.0908,-2.065,-2.0443,-2.0558,-2.055,-2.0418,-2.0144,-2.0335,-2.0756,-2.0225,-2.0354,-2.0737,-2.0207,-1.9711,-1.9305,-1.9305,-1.8959,-1.8665,-1.9143,-1.9305,-1.9384,-1.9766,-1.9448,-1.8985,-1.8967,-1.8499,-1.8062,-1.8228,-1.792,-1.7483,-1.7025,-1.6931,-1.6931,-1.6931,-1.6559,-1.639,-1.6847,-1.6187,-1.5747,-1.6208,-1.5866,-1.5595,-1.5595,-1.5341,-1.5003,-1.4545,-1.3988,-1.3278,-1.2381,-1.1899,-1.1637,-1.1575,-1.1319,-1.1414,-1.1988,-1.174,-1.1349,-1.0807,-1.0443,-1.0009,-0.9503,-1.0009,-1.0383,-1.0642,-1.0518,-1.0369,-2.6794,-2.6667,-2.7227,-2.9909,-3.1294,-3.237,-3.3817,-3.471,-3.5328,-3.5703,0.0,0.0,0.0,0.0,0.0,0.0,0.0,0.0,0.0,0.0,0.0,0.0,0.0,0.0,0.0,0.0,0.0,0.0,0.0,0.0,0.0,0.0,0.0,0.0,0.0,0.0,0.0,0.0,0.0,0.0,-1.7583,-1.7606,-1.7678,-1.769,-1.8126,-1.8838,-1.8049,-1.7562,-1.7396,-1.81,-1.8248,-1.8102,-1.8809,-1.9124,-1.9179,-1.9179,-1.9179,-1.9179,-1.9179,-1.9087,-1.8977,-1.9051,-1.9032,-1.8992,-1.9051,-1.9069,-1.9023,-1.8783,-1.875,-1.8605,-1.78,-1.7567,-1.7363,-1.6698,-1.6588,-1.6472,-1.575,-1.5595,-1.5595,-1.5595,-1.5544,-1.5511,-1.5595,-1.5494,-1.5392,-1.5392,-1.5274,-1.5223,-1.5291,-1.4648,-1.419,-1.419,-1.299,-1.2162,-1.2094,-1.1403,-1.0981,-1.0967,-1.0616,-1.0431,-1.0463,-1.139,-1.1323,-1.0105,-1.0376,-0.9965,-0.8815,-1.0024,-1.0024,-0.892,-0.9593,-0.9201,-2.7453,-2.709,-2.7203,-2.9678,-3.1832,-3.3453,-3.3802,-3.3526,-3.3556,-3.4722,-3.4259,0.0,0.0,0.0,0.0,0.0,0.0,0.0,0.0,0.0,0.0,0.0,0.0,0.0,0.0,0.0,0.0,0.0,0.0,0.0,0.0,0.0,0.0,0.0,0.0,0.0,-1.7968,-1.662,-1.5931,0.0,-1.586,-1.6169,-1.6798,-1.7427,-1.7799,-1.7972,-1.7779,-1.7675,-1.7604,-1.7577,-1.7533,-1.7465,-1.7433,-1.7789,-1.8353,-1.8353,-1.8353,-1.8353,-1.8353,-1.7527,-1.6573,-1.7202,-1.6995,-1.6591,-1.722,-1.7422,-1.7389,-1.7351,-1.7231,-1.7052,-1.6825,-1.6548,-1.6168,-1.5383,-1.5819,-1.6237,-1.5709,-1.5595,-1.5595,-1.5595,-1.5138,-1.4919,-1.5494,-1.4631,-1.387,-1.387,-1.2838,-1.2297,-1.2923,-1.2314,-1.1823,-1.1823,-1.1553,-1.1113,-1.0541,-1.0232,-1.0021,-0.9933,-0.9751,-0.9797,-1.0183,-0.9813,-0.9485,-0.9182,-0.8755,-0.8394,-0.8109,-0.8919,-0.9175,-0.892,-0.9593,-0.9473,-2.6606,-2.6631,-2.7181,-2.9604,-3.1439,-3.2651,-3.2651,-3.232,-3.2317,-3.3312,0.0,0.0,0.0,0.0,0.0,0.0,0.0,0.0,0.0,0.0,0.0,0.0,0.0,0.0,0.0,0.0,0.0,0.0,0.0,0.0,0.0,0.0,0.0,0.0,0.0,0.0,-1.6758,-1.5449,-1.4999,-1.5386,-1.4939,-1.5151,-1.5951,-1.6752,-1.6907,-1.6503,-1.6503,-1.6465,-1.6443,-1.6673,-1.6715,-1.6659,-1.6886,-1.7214,-1.7532,-1.7532,-1.7532,-1.7532,-1.7532,-1.6982,-1.634,-1.6762,-1.6615,-1.634,-1.6762,-1.6908,-1.6817,-1.6431,-1.6525,-1.6551,-1.5742,-1.563,-1.5491,-1.4574,-1.4914,-1.528,-1.4687,-1.4565,-1.4565,-1.4565,-1.3954,-1.3684,-1.4411,-1.3633,-1.2753,-1.2363,-1.1603,-1.1248,-1.1671,-1.135,-1.1096,-1.1096,-1.0775,-1.0419,-1.0035,-0.9618,-0.9338,-0.9267,-0.9144,-0.9175,-0.9429,-0.8848,-0.8637,-0.889,-0.8559,-0.8214,-0.7899,-0.8244,-0.8424,-0.8439,-0.8784,-0.8754,-2.5333,-2.608,-2.7328,-2.9457,-3.0595,0.0,-3.1182,-3.1182,-3.1241,0.0,0.0,0.0,0.0,0.0,0.0,0.0,0.0,0.0,0.0,0.0,0.0,0.0,0.0,0.0,0.0,0.0,0.0,0.0,0.0,0.0,0.0,0.0,0.0,0.0,0.0,-1.5117,-1.4961,-1.4258,-1.4258,-1.4961,-1.4228,-1.4228,-1.4887,-1.5672,-1.5734,-1.5189,-1.5036,-1.4903,-1.4856,-1.5346,-1.5536,-1.5572,-1.622,-1.6571,-1.6688,-1.6688,-1.6688,-1.6688,-1.6688,-1.6597,-1.6468,-1.6321,-1.6376,-1.6468,-1.6321,-1.6285,-1.6175,-1.5637,-1.5728,-1.5744,-1.4727,-1.4554,-1.4494,-1.3811,-1.3795,-1.3785,-1.3312,-1.3312,-1.3328,-1.3057,-1.25,-1.228,-1.2905,-1.2381,-1.1722,-1.118,-1.0876,-1.0758,-1.0893,-1.0791,-1.0707,-1.0707,-1.0166,-0.9798,-0.979,-0.9217,-0.8858,-0.8858,-0.876,-0.8705,-0.8705,-0.8345,-0.8355,-0.8804,-0.8756,-0.8454,-0.7899,-0.7899,-0.7899,-0.7899,-0.7899,-0.7959,-2.4833,-2.6484,-2.7879,0.0,-2.9769,-3.0356,0.0,0.0,-3.0028,0.0,0.0,0.0,0.0,0.0,0.0,0.0,0.0,0.0,0.0,0.0,0.0,0.0,0.0,0.0,0.0,0.0,0.0,0.0,0.0,0.0,0.0,0.0,-1.5176,-1.4297,-1.4277,0.0,-1.3242,-1.3125,-1.3125,-1.3223,-1.3066,-1.3001,-1.3075,-1.3889,-1.4593,-1.5151,-1.4401,-1.4069,-1.3994,-1.3297,-1.3346,-1.3903,-1.3896,-1.47,-1.5857,-1.5857,-1.5857,-1.5857,-1.5857,-1.5398,-1.4719,-1.4015,-1.4242,-1.4689,-1.3985,-1.3776,-1.3904,-1.4499,-1.3521,-1.2621,-1.3894,-1.2949,-1.1857,-1.2522,-1.2118,-1.1722,-1.2314,-1.2956,-1.3007,-1.1669,-1.1333,-1.1282,-1.1383,-1.0808,-1.0504,-1.1011,-1.0009,-0.9433,-1.0051,-0.9591,-0.9196,-0.9196,-0.9111,-0.8998,-0.8873,-0.8779,-0.8729,-0.8729,-0.8717,-0.8705,-0.8705,-0.8492,-0.8396,-0.8464,-0.8178,-0.7989,-0.7899,-0.7899,-0.7899,-0.7899,-0.7899,-0.8199,-2.4318,-2.4924,-2.5419,0.0,-2.7236,-2.7622,-2.8081,0.0,0.0,0.0,0.0,0.0,0.0,0.0,0.0,0.0,0.0,0.0,0.0,0.0,0.0,0.0,0.0,0.0,0.0,0.0,0.0,0.0,0.0,0.0,0.0,-1.4913,-1.4507,-1.4115,-1.3651,0.0,-1.2891,-1.2422,-1.2168,-1.2187,-1.2595,-1.2776,-1.2772,-1.3084,-1.3445,-1.3791,-1.3863,-1.3632,-1.3195,-1.2774,-1.2757,-1.2979,-1.2887,-1.3477,-1.4412,-1.4368,-1.4628,-1.5031,-1.5031,-1.4499,-1.3765,-1.3427,-1.3243,-1.3086,-1.2719,-1.2637,-1.2701,-1.3068,-1.2545,-1.205,-1.2726,-1.2144,-1.1473,-1.179,-1.1469,-1.1079,-1.1028,-1.1586,-1.1789,-1.0707,-1.0825,-1.0842,-1.0009,-0.9946,-0.9967,-0.989,-0.9315,-0.901,-0.9337,-0.9095,-0.8891,-0.8891,-0.8891,-0.8869,-0.8818,-0.8818,-0.8818,-0.8818,-0.8818,-0.8818,-0.8818,-0.8538,-0.8403,-0.8403,-0.8068,-0.7941,-0.8009,-0.7941,-0.7899,-0.7899,-0.7899,-0.8049,-2.285,0.0,-2.2978,-2.419,-2.465,-2.4997,0.0,0.0,0.0,0.0,0.0,0.0,0.0,0.0,0.0,0.0,0.0,0.0,0.0,0.0,0.0,0.0,0.0,0.0,0.0,0.0,0.0,0.0,0.0,0.0,-1.5296,-1.4517,-1.3983,-1.3772,-1.2965,-1.2441,-1.2246,-1.1582,-1.1387,-1.1602,-1.1976,-1.215,-1.2141,-1.2301,-1.2247,-1.2084,-1.2901,-1.2926,-1.2353,-1.2122,-1.2087,-1.2167,-1.2095,-1.2499,-1.3095,-1.3017,-1.3361,-1.3893,-1.3893,-1.349,-1.2968,-1.2766,-1.2407,-1.2058,-1.1856,-1.1801,-1.1838,-1.204,-1.1763,-1.1468,-1.1747,-1.1368,-1.0948,-1.1018,-1.0792,-1.0487,-1.0318,-1.0419,-1.0419,-1.0068,-1.0284,-1.0195,-0.9078,-0.9354,-0.954,-0.8976,-0.8891,-0.8891,-0.8891,-0.8891,-0.8891,-0.8891,-0.8891,-0.888,-0.8863,-0.8852,-0.8852,-0.8852,-0.8852,-0.8858,-0.8891,-0.8575,-0.8428,-0.8479,-0.8096,-0.7956,-0.8049,-0.7956,-0.7899,-0.7899,-0.7899,-0.7989,-1.9748,-2.0682,0.0,-2.1968,-2.2556,0.0,0.0,0.0,0.0,0.0,0.0,0.0,0.0,0.0,0.0,0.0,0.0,0.0,0.0,0.0,0.0,0.0,0.0,0.0,0.0,0.0,0.0,0.0,0.0,0.0,-1.5296,-1.4484,-1.3658,-1.2891,-1.2021,-1.1208,-1.0449,-1.0391,-1.0781,-1.1582,-1.0738,-1.0334,-1.0369,-1.1121,-1.1023,-1.0286,-1.1156,-1.1502,-1.1406,-1.0579,-1.0641,-1.1256,-1.1187,-1.1622,-1.2261,-1.2188,-1.2187,-1.2223,-1.2223,-1.2205,-1.204,-1.126,-1.1498,-1.1966,-1.1187,-1.0967,-1.1113,-1.1893,-1.0821,-0.9793,-1.1245,-1.0331,-0.9219,-0.9907,-0.9535,-0.9382,-1.0741,-0.9975,-0.9213,-0.9866,-0.9455,-0.8993,-0.8908,-0.8925,-0.8942,-0.8908,-0.8891,-0.8891,-0.8891,-0.8891,-0.8891,-0.8891,-0.8891,-0.8852,-0.8729,-0.8717,-0.8717,-0.8717,-0.8717,-0.876,-0.8891,-0.8575,-0.8492,-0.8681,-0.8164,-0.7899,-0.7914,-0.7899,-0.7899,-0.7899,-0.7899,-0.8229,-1.9381,0.0,0.0,-2.0849,-2.118,-2.162,0.0,0.0,0.0,0.0,0.0,0.0,0.0,0.0,0.0,0.0,0.0,0.0,0.0,0.0,0.0,0.0,0.0,0.0,0.0,0.0,0.0,0.0,0.0,0.0,-1.4405,-1.3098,-1.247,-1.2727,-1.1935,-1.1383,-1.1133,-1.1133,-1.1016,-1.0762,-1.0379,-1.0205,-1.0213,-1.0444,-1.0398,-1.0113,-1.0421,-1.0579,-1.054,-1.0229,-1.0251,-1.0479,-1.0368,-1.0821,-1.1476,-1.1377,-1.1654,-1.2095,-1.2095,-1.1764,-1.1278,-1.0985,-1.0755,-1.0506,-1.0223,-1.0131,-1.0186,-1.0488,-1.0021,-0.9529,-0.9996,-0.9579,-0.908,-0.9253,-0.9095,-0.9044,-0.9569,-0.9264,-0.8976,-0.9247,-0.9078,-0.8891,-0.8891,-0.8891,-0.8891,-0.8891,-0.8891,-0.8891,-0.8891,-0.8891,-0.8891,-0.8891,-0.8891,-0.888,-0.884,-0.8829,-0.8829,-0.8829,-0.8829,-0.8863,-0.8891,-0.8575,-0.8441,-0.8504,-0.8109,-0.7941,-0.8023,-0.7941,-0.7899,-0.7899,-0.7899,-0.8034,-1.9305,0.0,0.0,0.0,0.0,-2.0317,0.0,0.0,0.0,0.0,0.0,0.0,0.0,0.0,0.0,0.0,0.0,0.0,0.0,0.0,0.0,0.0,0.0,0.0,0.0,0.0,0.0,0.0,0.0,0.0,-1.3952,-1.2597,-1.1844,-1.1857,-1.1347,-1.1247,-1.1602,-1.1309,-1.1016,-1.0723,-1.0379,-1.0205,-1.0193,-1.0157,-1.0113,-1.0094,-1.0094,-1.0094,-1.0094,-1.0094,-1.0086,-1.0061,-0.9944,-1.0214,-1.0656,-1.0537,-1.0847,-1.1287,-1.1287,-1.0939,-1.0498,-1.0498,-1.0131,-0.9698,-0.9698,-0.9698,-0.9691,-0.9641,-0.9534,-0.9403,-0.9274,-0.9129,-0.9022,-0.8925,-0.8891,-0.8891,-0.8891,-0.8891,-0.8891,-0.8891,-0.8891,-0.8891,-0.8891,-0.8891,-0.8891,-0.8891,-0.8891,-0.8891,-0.8891,-0.8891,-0.8891,-0.8891,-0.8891,-0.8891,-0.8891,-0.8891,-0.8891,-0.8891,-0.8891,-0.8891,-0.8891,-0.8575,-0.8403,-0.8403,-0.8068,-0.7941,-0.8037,-0.7941,-0.7899,-0.7899,-0.7899,-0.7899,0.0,0.0,0.0,0.0,0.0,0.0,0.0,0.0,0.0,0.0,0.0,0.0,0.0,0.0,0.0,0.0,0.0,0.0,0.0,0.0,0.0,0.0,0.0,0.0,0.0,0.0,0.0,0.0,0.0,-1.4905,-1.3969,-1.3113,-1.1938,-1.033,-1.0257,-1.068,-1.1582,-1.0762,-1.0742,-1.1543,-1.0641,-1.0198,-1.0193,-1.0205,-1.0164,-1.0094,-1.0094,-1.0094,-1.0094,-1.0094,-1.0065,-0.9987,-0.9927,-0.9863,-0.9784,-0.9717,-0.9698,-0.9698,-0.9698,-0.9698,-0.9698,-0.9698,-0.9698,-0.9698,-0.9698,-0.9698,-0.9683,-0.9542,-0.9403,-0.9284,-0.9129,-0.9011,-0.8891,-0.8891,-0.8891,-0.8891,-0.8891,-0.8891,-0.8891,-0.8891,-0.8891,-0.8891,-0.8891,-0.8891,-0.8891,-0.8891,-0.8891,-0.8891,-0.8891,-0.8891,-0.8891,-0.8891,-0.8891,-0.8891,-0.8891,-0.8891,-0.8891,-0.8891,-0.8891,-0.8891,-0.8891,-0.8575,-0.8403,-0.8403,-0.8068,-0.7899,-0.7899,-0.7899,-0.7899,-0.7899,-0.7899,-0.7899,-1.9305,0.0,0.0,0.0,0.0,0.0,0.0,0.0,0.0,0.0,0.0,0.0,0.0,0.0,0.0,0.0,0.0,0.0,0.0,0.0,0.0,0.0,0.0,0.0,0.0,0.0,0.0,0.0,0.0,-1.4368,-1.2235,-1.1884,-1.1854,-1.2063,-1.1467,-1.1286,-1.1602,-1.1367,-1.1035,-1.0664,-1.0358,-1.0203,-1.0193,-1.0154,-1.0129,-1.0094,-1.0094,-1.0094,-1.0094,-1.0094,-1.0065,-0.9987,-0.9927,-0.9863,-0.9784,-0.9717,-0.9698,-0.9698,-0.9698,-0.9698,-0.9698,-0.9698,-0.9698,-0.9698,-0.9698,-0.9698,-0.9698,-0.9649,-0.9542,-0.9394,-0.9149,-0.9011,-0.8891,-0.8891,-0.8891,-0.8891,-0.8891,-0.8891,-0.8891,-0.8891,-0.8891,-0.8891,-0.8891,-0.8891,-0.8891,-0.8891,-0.8891,-0.8891,-0.8891,-0.8891,-0.8891,-0.8891,-0.8891,-0.8891,-0.8891,-0.8891,-0.8891,-0.8891,-0.8891,-0.8891,-0.8891,-0.8575,-0.8403,-0.8403,-0.8068,-0.7899,-0.7899,-0.7899,-0.7899,-0.7899,-0.7899,-0.7899,-1.9305,-1.9305,-1.9305,0.0,0.0,0.0,-1.8867,-1.9161,0.0,0.0,0.0,0.0,0.0,0.0,0.0,0.0,0.0,0.0,0.0,0.0,0.0,0.0,0.0,0.0,0.0,0.0,0.0,0.0,-1.6068,-1.5371,-1.3143,-1.2332,-1.203,-1.2215,-1.1394,-1.0987,-1.1014,-1.1035,-1.0801,-1.0293,-1.0236,-1.0195,-1.0193,-1.0141,-1.0094,-1.0094,-1.0094,-1.0094,-1.0094,-1.0074,-1.003,-0.996,-0.9881,-0.9818,-0.9754,-0.9721,-0.9698,-0.9698,-0.9698,-0.9698,-0.9698,-0.9698,-0.9698,-0.9698,-0.9698,-0.9698,-0.9691,-0.9633,-0.9483,-0.9303,-0.9139,-0.9011,-0.8891,-0.8891,-0.8891,-0.8891,-0.8891,-0.8891,-0.8891,-0.8891,-0.8891,-0.8891,-0.8891,-0.8891,-0.8891,-0.8891,-0.8891,-0.8891,-0.8891,-0.8891,-0.8891,-0.8891,-0.8891,-0.8891,-0.8891,-0.8891,-0.8891,-0.8891,-0.8891,-0.8891,-0.8891,-0.8575,-0.8403,-0.8403,-0.8068,-0.7899,-0.7899,-0.7899,-0.7899,-0.7899,-0.7899,-0.7899,-1.9305,-1.9305,-1.9305,0.0,0.0,0.0,-1.828,-1.8096,-1.7876,0.0,0.0,0.0,0.0,0.0,0.0,0.0,0.0,0.0,0.0,0.0,0.0,0.0,0.0,0.0,0.0,0.0,0.0,-1.7858,-1.7616,-1.6914,-1.5516,-1.3773,-1.2429,-1.1566,-1.0756,-1.0305,-1.0207,-1.0273,-1.0293,-1.0293,-1.0236,-1.0195,-1.0193,-1.0141,-1.0094,-1.0094,-1.0094,-1.0094,-1.009,-1.0039,-0.9971,-0.9887,-0.9825,-0.9761,-0.9698,-0.9698,-0.9698,-0.9698,-0.9698,-0.9698,-0.9698,-0.9698,-0.9698,-0.9698,-0.9698,-0.9698,-0.9683,-0.955,-0.934,-0.9139,-0.9119,-0.9033,-0.8913,-0.8902,-0.8891,-0.8891,-0.8891,-0.8891,-0.8891,-0.8891,-0.8891,-0.8891,-0.8891,-0.8891,-0.8891,-0.8891,-0.8891,-0.8891,-0.8891,-0.8891,-0.8891,-0.8891,-0.8891,-0.8891,-0.8891,-0.8891,-0.8891,-0.8891,-0.8891,-0.8891,-0.8869,-0.8575,-0.8387,-0.8361,-0.8054,-0.7899,-0.7899,-0.7899,-0.7899,-0.7899,-0.7899,-0.7899,0.0,0.0,0.0,0.0,0.0,0.0,-1.828,-1.8096,-1.7876,0.0,0.0,0.0,0.0,0.0,0.0,0.0,0.0,0.0,0.0,0.0,0.0,0.0,0.0,0.0,0.0,0.0,-1.8516,-1.7841,-1.6501,-1.589,-1.6311,-1.4641,-1.3292,-1.2471,-1.1666,-1.0904,-1.0207,-1.0273,-1.0293,-1.0293,-1.0236,-1.0195,-1.0193,-1.0141,-1.0094,-1.0094,-1.0094,-1.0094,-1.009,-1.0039,-0.9971,-0.9887,-0.9825,-0.9761,-0.9698,-0.9698,-0.9698,-0.9698,-0.9698,-0.9698,-0.9698,-0.9698,-0.9698,-0.9698,-0.9698,-0.9698,-0.9698,-0.9675,-0.9542,-0.9394,-0.9293,-0.9159,-0.9043,-0.8925,-0.8891,-0.8891,-0.8891,-0.8891,-0.8891,-0.8891,-0.8891,-0.8891,-0.8891,-0.8891,-0.8891,-0.8891,-0.8891,-0.8891,-0.8891,-0.8891,-0.8891,-0.8891,-0.8891,-0.8891,-0.8891,-0.8891,-0.8891,-0.8891,-0.8891,-0.8863,-0.8736,-0.853,-0.8335,-0.8158,-0.7983,-0.7899,-0.7899,-0.7899,-0.7899,-0.7899,-0.7899,-0.7899,0.0,0.0,0.0,-1.9305,0.0,0.0,0.0,-1.7698,-1.722,0.0,0.0,0.0,0.0,0.0,0.0,0.0,0.0,0.0,0.0,0.0,0.0,0.0,0.0,0.0,0.0,0.0,-1.8768,-1.8465,-1.7261,-1.6735,-1.7187,-1.5121,-1.3566,-1.2732,-1.1928,-1.1073,-1.0214,-1.0271,-1.0293,-1.0293,-1.0236,-1.0195,-1.0193,-1.0141,-1.0094,-1.0094,-1.0094,-1.0094,-1.009,-1.0001,-0.9933,-0.9887,-0.9825,-0.9761,-0.9698,-0.9698,-0.9698,-0.9698,-0.9698,-0.9698,-0.9698,-0.9698,-0.9698,-0.9698,-0.9698,-0.9698,-0.9698,-0.9698,-0.9609,-0.9491,-0.9412,-0.9247,-0.9078,-0.9022,-0.8946,-0.8891,-0.8891,-0.8891,-0.8891,-0.8891,-0.8891,-0.8891,-0.8891,-0.8891,-0.8891,-0.8891,-0.8891,-0.8891,-0.8891,-0.8891,-0.8891,-0.8891,-0.8891,-0.8891,-0.8891,-0.8891,-0.8891,-0.8891,-0.884,-0.8771,-0.8705,-0.8412,-0.8174,-0.8011,-0.7927,-0.7899,-0.7899,-0.7899,-0.7899,-0.7899,-0.7899,-0.7899,0.0,0.0,0.0,0.0,0.0,-1.875,0.0,0.0,0.0,0.0,0.0,0.0,0.0,0.0,0.0,0.0,0.0,0.0,0.0,0.0,0.0,0.0,0.0,0.0,0.0,0.0,-1.8448,-1.8838,-1.8096,-1.7676,-1.7789,-1.5685,-1.3921,-1.2743,-1.2074,-1.1239,-1.0215,-1.0269,-1.0293,-1.0293,-1.0236,-1.0195,-1.0193,-1.0141,-1.0094,-1.0094,-1.0094,-1.009,-1.0074,-0.9971,-0.9899,-0.9882,-0.9805,-0.9747,-0.9698,-0.9698,-0.9698,-0.9698,-0.9698,-0.9698,-0.9698,-0.9698,-0.9698,-0.9698,-0.9698,-0.9698,-0.9698,-0.9698,-0.9625,-0.9534,-0.9508,-0.9321,-0.9129,-0.9099,-0.9001,-0.8891,-0.8891,-0.8891,-0.8891,-0.8891,-0.8891,-0.8891,-0.8891,-0.8891,-0.8891,-0.8891,-0.8891,-0.8891,-0.8891,-0.8891,-0.8891,-0.8891,-0.8891,-0.8891,-0.8891,-0.8891,-0.8891,-0.8891,-0.8771,-0.8681,-0.8645,-0.8267,-0.8009,-0.7899,-0.7899,-0.7899,-0.7899,-0.7899,-0.7899,-0.7899,-0.7899,-0.7885,0.0,0.0,0.0,0.0,-1.8843,0.0,0.0,0.0,0.0,0.0,0.0,0.0,0.0,0.0,0.0,0.0,0.0,0.0,0.0,0.0,0.0,0.0,0.0,0.0,0.0,0.0,0.0,-1.7921,-1.7185,-1.6991,-1.7769,-1.6788,-1.5139,-1.2762,-1.2613,-1.1798,-1.0215,-1.0269,-1.0293,-1.0293,-1.0236,-1.0195,-1.0193,-1.0141,-1.0094,-1.0094,-1.0094,-1.007,-1.0006,-0.9987,-0.9927,-0.9798,-0.9732,-0.9713,-0.9698,-0.9698,-0.9698,-0.9698,-0.9698,-0.9698,-0.9698,-0.9698,-0.9698,-0.9698,-0.9698,-0.9698,-0.9698,-0.9698,-0.9691,-0.9641,-0.9534,-0.9385,-0.9237,-0.9119,-0.9001,-0.8891,-0.8891,-0.8891,-0.8891,-0.8891,-0.8891,-0.8891,-0.8891,-0.8891,-0.8891,-0.8891,-0.8891,-0.8891,-0.8891,-0.8891,-0.8891,-0.8891,-0.8891,-0.8891,-0.8891,-0.8891,-0.8891,-0.8891,-0.8771,-0.8616,-0.8441,-0.8109,-0.7928,-0.7899,-0.7899,-0.7899,-0.7899,-0.7899,-0.7899,-0.7899,-0.7899,-0.7797,0.0,0.0,0.0,0.0,0.0,0.0,-1.8378,0.0,-1.6871,0.0,0.0,0.0,0.0,0.0,0.0,0.0,0.0,0.0,0.0,0.0,0.0,0.0,0.0,0.0,0.0,0.0,0.0,0.0,0.0,-1.6375,-1.7675,-1.6505,-1.5311,-1.4181,-1.3702,-1.2656,-1.0969,-1.101,-1.0781,-1.0231,-1.0211,-1.0207,-1.021,-1.0128,-1.0094,-1.0094,-1.0094,-1.0082,-1.0057,-0.9981,-0.991,-0.985,-0.9739,-0.9698,-0.9698,-0.9698,-0.9698,-0.9698,-0.9698,-0.9698,-0.9698,-0.9698,-0.9698,-0.9698,-0.9698,-0.9698,-0.9698,-0.9698,-0.9698,-0.9675,-0.9534,-0.9403,-0.9257,-0.9129,-0.9001,-0.8891,-0.8891,-0.8891,-0.8891,-0.8891,-0.8891,-0.8891,-0.8891,-0.8891,-0.8891,-0.8891,-0.8891,-0.8891,-0.8891,-0.8891,-0.8891,-0.8891,-0.8891,-0.8891,-0.8891,-0.8891,-0.8858,-0.8783,-0.851,-0.828,-0.8123,-0.7985,-0.7899,-0.7899,-0.7899,-0.7899,-0.7899,-0.7899,-0.7899,-0.7899,-0.7899,-0.7856,-1.9305,0.0,0.0,0.0,0.0,0.0,0.0,0.0,0.0,0.0,0.0,0.0,0.0,0.0,0.0,0.0,0.0,0.0,0.0,0.0,0.0,0.0,0.0,0.0,0.0,0.0,0.0,0.0,-1.4743,0.0,-1.7264,-1.5825,-1.5034,-1.522,-1.443,-1.3203,-1.1529,-1.1576,-1.1132,-1.0207,-1.0208,-1.02,-1.0208,-1.0121,-1.0094,-1.0094,-1.0094,-1.0086,-1.0065,-0.9949,-0.9881,-0.9869,-0.9747,-0.9698,-0.9698,-0.9698,-0.9698,-0.9698,-0.9698,-0.9698,-0.9698,-0.9698,-0.9698,-0.9698,-0.9698,-0.9698,-0.9698,-0.9698,-0.9698,-0.9683,-0.9585,-0.9421,-0.9266,-0.9169,-0.9033,-0.8891,-0.8891,-0.8891,-0.8891,-0.8891,-0.8891,-0.8891,-0.8891,-0.8891,-0.8891,-0.8891,-0.8891,-0.8891,-0.8891,-0.8891,-0.8891,-0.8891,-0.8891,-0.8891,-0.8891,-0.8891,-0.8812,-0.8628,-0.8345,-0.8092,-0.7914,-0.7899,-0.7899,-0.7899,-0.8079,-0.8169,-0.8169,-0.8169,-0.8169,-0.8169,-0.7989,-0.787,0.0,0.0,0.0,-1.8949,0.0,0.0,0.0,0.0,-1.5747,0.0,0.0,0.0,0.0,0.0,-1.3634,-1.3582,0.0,0.0,0.0,0.0,0.0,0.0,0.0,0.0,0.0,0.0,0.0,0.0,-1.3561,0.0,-1.641,-1.4957,-1.4423,-1.5265,-1.4455,-1.3203,-1.1529,-1.1576,-1.1132,-1.0207,-1.0208,-1.02,-1.0208,-1.0121,-1.0094,-1.0094,-1.0094,-1.0065,-0.9992,-0.9927,-0.9869,-0.9791,-0.9717,-0.9698,-0.9698,-0.9698,-0.9698,-0.9698,-0.9698,-0.9698,-0.9698,-0.9698,-0.9698,-0.9698,-0.9698,-0.9698,-0.9698,-0.9698,-0.9698,-0.9698,-0.9698,-0.95,-0.9303,-0.9303,-0.9088,-0.8891,-0.8891,-0.8891,-0.8891,-0.8891,-0.8891,-0.8891,-0.8891,-0.8891,-0.8891,-0.8891,-0.8891,-0.8891,-0.8891,-0.8891,-0.8891,-0.8891,-0.8891,-0.8891,-0.8891,-0.8891,-0.8766,-0.8425,-0.8403,-0.8245,-0.7914,-0.7899,-0.7899,-0.7899,-0.8544,-0.8875,-0.8875,-0.8875,-0.8875,-0.8845,-0.8199,-0.7783,0.0,0.0,-1.9099,-1.9182,0.0,0.0,0.0,0.0,0.0,0.0,0.0,0.0,0.0,0.0,-1.3462,-1.3462,-1.3429,-1.3158,0.0,0.0,0.0,0.0,0.0,0.0,0.0,0.0,0.0,-1.2312,-1.2446,-1.3127,0.0,-1.4721,-1.4898,-1.5296,-1.5061,-1.4387,-1.3235,-1.2712,-1.199,-1.105,-1.0474,-1.0188,-1.0124,-1.0106,-1.0094,-1.0094,-1.0057,-1.0015,-0.9987,-0.9875,-0.9818,-0.9784,-0.9717,-0.9698,-0.9698,-0.9698,-0.9698,-0.9625,-0.9092,-0.8901,-0.881,-0.829,-0.8468,-0.8901,-0.8901,-0.9276,-0.9698,-0.9698,-0.9698,-0.9649,-0.9491,-0.9367,-0.9247,-0.9068,-0.8968,-0.8891,-0.8891,-0.8891,-0.8891,-0.8891,-0.8891,-0.8891,-0.8891,-0.8891,-0.8891,-0.8891,-0.8891,-0.8891,-0.8891,-0.8891,-0.8891,-0.8891,-0.8891,-0.8891,-0.8891,-0.8818,-0.8665,-0.8428,-0.828,-0.8106,-0.7914,-0.8319,-0.8559,-0.8559,-0.9218,-0.9563,-0.9563,-0.9563,-0.9323,-0.889,-0.8536,-0.8087,-1.9143,-1.8822,0.0,0.0,-1.7886,0.0,-1.6992,0.0,0.0,0.0,0.0,0.0,0.0,0.0,-1.3396,-1.3396,-1.3396,-1.3174,0.0,-1.2034,0.0,0.0,0.0,0.0,0.0,0.0,-1.0493,-1.0967,-1.1551,-1.2336,0.0,0.0,-1.455,-1.5275,-1.5373,-1.4827,-1.3655,-1.3124,-1.2259,-1.1038,-1.0459,-1.015,-1.0094,-1.0094,-1.0086,-1.0065,-1.0011,-0.9982,-0.9965,-0.9838,-0.963,-0.9388,-0.9607,-0.9533,-0.9313,-0.9588,-0.9515,-0.9202,-0.8681,-0.8314,-0.8027,-0.7812,-0.8082,-0.8553,-0.8846,-0.9294,-0.9698,-0.9698,-0.9675,-0.9593,-0.9412,-0.9312,-0.9179,-0.9022,-0.8936,-0.8891,-0.8891,-0.8891,-0.8891,-0.8891,-0.8891,-0.8891,-0.8891,-0.8891,-0.8891,-0.8891,-0.8891,-0.8891,-0.8891,-0.8891,-0.8891,-0.8891,-0.8891,-0.8891,-0.8891,-0.8771,-0.8604,-0.8415,-0.8435,-0.8405,-0.8259,-0.8889,-0.9353,-0.9578,-0.9994,-1.0339,-1.0578,-1.0339,-0.9939,-0.9419,-0.9043,-0.8553]},{"header":{"parameterUnit":"m.s-1","parameterCategory":1,"la1":30.6,"la2":29.2853,"lo1":-89.7004,"lo2":-87.6739,"dy":0.0162,"dx":0.0183,"nx":112,"ny":82,"refTime":"2023-08-13T06:00:00:Z","depth":0,"parameterNumber":3,"parameterNumberName":"V-component_of_WINDS"},"data":[0.0,0.0,0.0,0.0,0.0,0.0,0.0,0.0,0.0,0.0,0.0,0.0,0.0,0.0,0.0,0.0,0.0,0.0,0.0,0.0,0.0,0.0,0.0,0.0,0.0,0.0,0.0,0.0,0.0,0.0,0.0,0.0,0.0,0.0,0.0,0.0,0.0,0.0,0.0,0.0,0.0,0.0,0.0,0.0,0.0,0.0,0.0,0.0,0.0,0.0,0.0,0.0,0.0,0.0,0.0,0.0,0.0,0.0,0.0,0.0,0.0,0.0,0.0,0.0,0.0,0.0,0.0,0.0,0.0,0.0,0.0,0.0,0.0,0.0,0.0,0.0,0.0,0.0,0.0,0.0,0.0,0.0,0.0,0.0,0.0,0.0,0.0,0.0,0.0,0.0,-2.8323,-2.9438,-3.0235,-2.9014,-2.5016,-2.3393,-2.0043,-1.4111,0.0,0.0,0.0,0.0,0.0,0.0,0.0,0.0,0.0,0.0,0.0,0.0,0.0,0.0,0.0,0.0,0.0,0.0,0.0,0.0,0.0,0.0,0.0,0.0,0.0,0.0,0.0,0.0,0.0,0.0,0.0,0.0,0.0,0.0,0.0,0.0,0.0,0.0,0.0,0.0,0.0,0.0,0.0,0.0,0.0,0.0,0.0,0.0,0.0,0.0,0.0,0.0,0.0,0.0,0.0,0.0,0.0,0.0,0.0,0.0,0.0,0.0,0.0,0.0,0.0,0.0,0.0,0.0,0.0,0.0,0.0,0.0,0.0,0.0,0.0,0.0,0.0,0.0,0.0,0.0,0.0,0.0,0.0,0.0,0.0,0.0,0.0,0.0,0.0,0.0,0.0,0.0,0.0,0.0,0.0,0.0,0.0,0.0,0.0,0.0,0.0,0.0,0.0,0.0,-2.6084,-2.8215,-2.8746,-2.7723,-2.461,-2.3656,-2.1491,-1.7524,0.0,0.0,0.0,0.0,0.0,0.0,0.0,0.0,0.0,0.0,0.0,0.0,0.0,0.0,0.0,0.0,0.0,0.0,0.0,0.0,0.0,0.0,0.0,0.0,0.0,0.0,0.0,0.0,0.0,0.0,0.0,0.0,0.0,0.0,0.0,0.0,0.0,0.0,0.0,0.0,0.0,0.0,0.0,0.0,0.0,0.0,0.0,0.0,0.0,0.0,0.0,0.0,0.0,0.0,0.0,0.0,0.0,0.0,0.0,0.0,0.0,0.0,0.0,0.0,0.0,0.0,0.0,0.0,0.0,0.0,0.0,0.0,0.0,0.0,0.0,0.0,0.0,0.0,0.0,0.0,0.0,0.0,0.0,0.0,0.0,0.0,0.0,0.0,0.0,0.0,0.0,0.0,0.0,0.0,0.0,0.0,0.0,0.0,0.0,0.0,0.0,0.0,0.0,-2.4815,-2.6321,-2.7655,-2.8258,-2.7227,-2.3781,-2.3463,-2.1751,-1.7458,-1.5599,0.0,0.0,0.0,0.0,0.0,0.0,0.0,0.0,0.0,0.0,0.0,0.0,0.0,0.0,0.0,0.0,0.0,0.0,0.0,0.0,0.0,0.0,0.0,0.0,0.0,0.0,0.0,0.0,0.0,0.0,0.0,0.0,0.0,0.0,0.0,0.0,0.0,0.0,0.0,0.0,0.0,0.0,0.0,0.0,0.0,0.0,0.0,0.0,0.0,0.0,0.0,0.0,0.0,0.0,0.0,0.0,0.0,0.0,0.0,0.0,0.0,0.0,0.0,0.0,0.0,0.0,0.0,0.0,0.0,0.0,0.0,0.0,0.0,0.0,0.0,0.0,0.0,0.0,0.0,0.0,0.0,0.0,0.0,0.0,0.0,0.0,0.0,0.0,0.0,0.0,0.0,0.0,0.0,0.0,0.0,0.0,0.0,0.0,0.0,0.0,0.0,0.0,-2.6065,-2.6726,-2.7529,-2.8083,-2.719,-2.3958,-2.3617,-2.1715,-1.7578,-1.6435,0.0,0.0,0.0,0.0,0.0,0.0,0.0,0.0,0.0,0.0,0.0,0.0,0.0,0.0,0.0,0.0,0.0,0.0,0.0,0.0,0.0,0.0,0.0,0.0,0.0,0.0,0.0,0.0,0.0,0.0,0.0,0.0,0.0,0.0,0.0,0.0,0.0,0.0,0.0,0.0,0.0,0.0,0.0,0.0,0.0,0.0,0.0,0.0,0.0,0.0,0.0,0.0,0.0,0.0,0.0,0.0,0.0,0.0,0.0,0.0,0.0,0.0,0.0,0.0,0.0,0.0,0.0,0.0,0.0,0.0,0.0,0.0,0.0,0.0,0.0,0.0,0.0,0.0,0.0,0.0,0.0,0.0,0.0,0.0,0.0,0.0,0.0,0.0,0.0,0.0,0.0,0.0,0.0,0.0,0.0,0.0,0.0,0.0,0.0,0.0,0.0,0.0,-2.4416,-2.6242,-2.7738,-2.7891,-2.7538,-2.6524,-2.4251,-2.2039,-1.982,-1.7398,0.0,0.0,0.0,0.0,0.0,0.0,0.0,0.0,0.0,0.0,0.0,0.0,0.0,0.0,0.0,0.0,0.0,0.0,0.0,0.0,0.0,0.0,0.0,0.0,0.0,0.0,0.0,0.0,0.0,0.0,0.0,0.0,0.0,0.0,0.0,0.0,0.0,0.0,0.0,0.0,0.0,0.0,0.0,0.0,0.0,0.0,0.0,0.0,0.0,0.0,0.0,0.0,0.0,0.0,0.0,0.0,0.0,0.0,0.0,0.0,0.0,0.0,0.0,0.0,0.0,0.0,0.0,0.0,0.0,0.0,0.0,0.0,0.0,0.0,0.0,0.0,0.0,0.0,0.0,0.0,0.0,0.0,0.0,0.0,0.0,0.0,0.0,0.0,0.0,0.0,0.0,0.0,0.0,0.0,0.0,0.0,0.0,0.0,0.0,0.0,0.0,0.0,-2.2974,-2.5265,0.0,-2.753,-2.7359,-2.6091,-2.5317,-2.3578,-2.0509,0.0,0.0,0.0,0.0,0.0,0.0,0.0,0.0,0.0,0.0,0.0,0.0,0.0,0.0,0.0,0.0,0.0,0.0,0.0,0.0,0.0,0.0,0.0,0.0,0.0,0.0,0.0,0.0,0.0,0.0,0.0,0.0,0.0,0.0,0.0,0.0,0.0,0.0,0.0,0.0,0.0,0.0,0.0,0.0,0.0,0.0,0.0,0.0,0.0,0.0,0.0,0.0,0.0,0.0,0.0,0.0,0.0,0.0,0.0,0.0,0.0,0.0,0.0,0.0,0.0,0.0,0.0,0.0,0.0,0.0,0.0,0.0,0.0,0.0,0.0,0.0,0.0,0.0,0.0,0.0,0.0,0.0,0.0,0.0,0.0,0.0,0.0,0.0,0.0,0.0,0.0,0.0,0.0,0.0,0.0,0.0,0.0,0.0,0.0,0.0,0.0,0.0,-1.9419,-2.2127,-2.462,0.0,-2.7242,-2.7198,-2.6005,-2.5318,-2.3598,-2.0534,0.0,0.0,0.0,0.0,0.0,0.0,0.0,0.0,0.0,0.0,0.0,0.0,0.0,0.0,0.0,0.0,0.0,0.0,0.0,0.0,0.0,0.0,0.0,0.0,0.0,0.0,0.0,0.0,0.0,0.0,0.0,0.0,0.0,0.0,0.0,0.0,0.0,0.0,0.0,0.0,0.0,0.0,0.0,0.0,0.0,0.0,0.0,0.0,0.0,0.0,0.0,0.0,0.0,0.0,0.0,0.0,0.0,0.0,0.0,0.0,0.0,0.0,0.0,0.0,0.0,0.0,0.0,0.0,0.0,0.0,0.0,0.0,0.0,0.0,0.0,0.0,0.0,0.0,0.0,0.0,0.0,0.0,0.0,0.0,0.0,0.0,0.0,0.0,0.0,0.0,0.0,0.0,0.0,0.0,0.0,0.0,0.0,0.0,0.0,0.0,0.0,0.0,-1.8995,-2.1929,-2.4632,-2.6345,-2.6954,-2.7086,-2.6545,-2.3984,-2.1663,0.0,0.0,0.0,0.0,0.0,0.0,0.0,0.0,0.0,0.0,0.0,0.0,0.0,0.0,0.0,0.0,0.0,0.0,0.0,0.0,0.0,0.0,0.0,0.0,0.0,0.0,0.0,0.0,0.0,0.0,0.0,0.0,0.0,0.0,0.0,0.0,0.0,0.0,0.0,0.0,0.0,0.0,0.0,0.0,0.0,0.0,0.0,0.0,0.0,0.0,0.0,0.0,0.0,0.0,0.0,0.0,0.0,0.0,0.0,0.0,0.0,0.0,0.0,0.0,0.0,0.0,0.0,0.0,0.0,0.0,0.0,0.0,0.0,0.0,0.0,0.0,0.0,0.0,0.0,0.0,0.0,0.0,0.0,0.0,0.0,0.0,0.0,0.0,0.0,0.0,0.0,0.0,0.0,0.0,0.0,0.0,0.0,0.0,0.0,0.0,0.0,0.0,0.0,-1.9546,-2.2178,-2.4643,-2.6289,-2.6954,-2.7214,-2.7052,-2.5566,-2.3769,-2.1712,0.0,0.0,0.0,0.0,0.0,0.0,0.0,0.0,0.0,0.0,0.0,0.0,0.0,0.0,0.0,0.0,0.0,0.0,0.0,0.0,0.0,0.0,0.0,0.0,0.0,0.0,0.0,0.0,0.0,0.0,0.0,0.0,0.0,0.0,0.0,0.0,0.0,0.0,0.0,0.0,0.0,0.0,0.0,0.0,0.0,0.0,0.0,0.0,0.0,0.0,0.0,0.0,0.0,0.0,0.0,0.0,0.0,0.0,0.0,0.0,0.0,0.0,0.0,0.0,0.0,0.0,0.0,0.0,0.0,0.0,0.0,0.0,0.0,0.0,0.0,0.0,0.0,0.0,0.0,0.0,0.0,0.0,0.0,0.0,0.0,0.0,0.0,0.0,0.0,0.0,0.0,0.0,0.0,0.0,0.0,0.0,0.0,0.0,0.0,0.0,0.0,0.0,-1.9434,-2.1756,-2.3853,-2.5331,-2.5988,-2.6283,-2.6283,-2.5468,-2.3927,-2.1487,0.0,0.0,0.0,0.0,0.0,0.0,0.0,0.0,0.0,0.0,0.0,0.0,0.0,0.0,0.0,0.0,0.0,0.0,0.0,0.0,0.0,0.0,0.0,0.0,0.0,0.0,0.0,0.0,0.0,0.0,0.0,0.0,0.0,0.0,0.0,0.0,0.0,0.0,0.0,0.0,0.0,0.0,0.0,0.0,0.0,0.0,0.0,0.0,0.0,0.0,0.0,0.0,0.0,0.0,0.0,0.0,0.0,0.0,0.0,0.0,0.0,0.0,0.0,0.0,0.0,0.0,0.0,0.0,0.0,0.0,0.0,0.0,0.0,0.0,0.0,0.0,0.0,0.0,0.0,0.0,0.0,0.0,0.0,0.0,0.0,0.0,0.0,0.0,0.0,0.0,0.0,0.0,0.0,0.0,0.0,0.0,0.0,0.0,0.0,0.0,0.0,0.0,-1.9101,-2.1069,-2.2823,-2.3979,-2.4633,-2.4947,-2.4809,-2.4392,-2.2942,-2.0141,0.0,0.0,0.0,0.0,0.0,0.0,0.0,0.0,0.0,0.0,0.0,0.0,0.0,0.0,0.0,0.0,0.0,0.0,0.0,0.0,0.0,0.0,0.0,0.0,0.0,0.0,0.0,0.0,0.0,0.0,0.0,0.0,0.0,0.0,0.0,0.0,0.0,0.0,0.0,0.0,0.0,0.0,0.0,0.0,0.0,0.0,0.0,0.0,0.0,0.0,0.0,0.0,0.0,0.0,0.0,0.0,0.0,0.0,0.0,0.0,-1.8896,0.0,0.0,0.0,0.0,0.0,0.0,0.0,0.0,0.0,0.0,0.0,0.0,0.0,0.0,0.0,0.0,0.0,0.0,0.0,0.0,0.0,0.0,0.0,0.0,0.0,0.0,0.0,0.0,0.0,0.0,0.0,0.0,0.0,0.0,0.0,0.0,0.0,0.0,0.0,0.0,0.0,-2.0205,-2.1962,-2.3515,-2.4506,-2.5743,-2.6056,-2.487,-2.4823,-2.3796,-2.1294,-2.0405,0.0,0.0,0.0,0.0,0.0,0.0,0.0,0.0,0.0,0.0,0.0,0.0,0.0,0.0,0.0,0.0,0.0,0.0,0.0,0.0,0.0,0.0,0.0,0.0,0.0,0.0,0.0,0.0,0.0,0.0,0.0,0.0,0.0,0.0,0.0,0.0,0.0,0.0,0.0,0.0,0.0,0.0,0.0,0.0,0.0,0.0,0.0,0.0,0.0,0.0,0.0,0.0,0.0,0.0,0.0,0.0,0.0,0.0,0.0,0.0,-2.0853,0.0,0.0,0.0,0.0,0.0,0.0,0.0,0.0,0.0,0.0,0.0,0.0,0.0,0.0,0.0,0.0,0.0,0.0,0.0,0.0,0.0,0.0,0.0,0.0,0.0,0.0,0.0,0.0,0.0,0.0,0.0,0.0,0.0,0.0,0.0,0.0,0.0,0.0,0.0,0.0,-2.0646,-2.2325,-2.3822,-2.4951,-2.5743,-2.5922,-2.5124,-2.5163,-2.4204,-2.1799,-2.1084,0.0,0.0,0.0,0.0,0.0,0.0,0.0,0.0,0.0,0.0,0.0,0.0,0.0,0.0,0.0,0.0,0.0,0.0,0.0,0.0,0.0,0.0,0.0,0.0,0.0,0.0,0.0,0.0,0.0,0.0,0.0,0.0,0.0,0.0,0.0,0.0,0.0,0.0,0.0,0.0,0.0,0.0,0.0,0.0,0.0,0.0,0.0,0.0,0.0,0.0,0.0,0.0,0.0,0.0,-1.7667,-1.9438,-2.0551,-2.2016,-2.3564,-2.3144,-2.2988,-2.2939,0.0,0.0,0.0,0.0,0.0,0.0,0.0,0.0,0.0,0.0,0.0,0.0,0.0,0.0,0.0,0.0,0.0,0.0,0.0,0.0,0.0,0.0,0.0,0.0,0.0,-2.4431,-2.4632,0.0,0.0,0.0,0.0,0.0,0.0,0.0,0.0,0.0,0.0,0.0,0.0,-2.0848,-2.2485,-2.4092,-2.5273,-2.5618,-2.5671,-2.5404,-2.5411,-2.4474,-2.2201,-2.1859,-2.0784,0.0,0.0,0.0,0.0,0.0,0.0,0.0,0.0,0.0,0.0,0.0,0.0,0.0,0.0,0.0,0.0,0.0,0.0,0.0,0.0,0.0,0.0,0.0,0.0,0.0,0.0,0.0,0.0,0.0,0.0,0.0,0.0,-0.6834,-0.6976,0.0,0.0,0.0,0.0,0.0,0.0,0.0,0.0,0.0,0.0,0.0,0.0,0.0,0.0,-1.539,-1.6062,-1.6515,-1.6555,-1.715,-1.8607,-2.072,-2.0964,-2.2646,-2.5371,-2.4922,0.0,-2.2549,-2.2021,0.0,0.0,0.0,0.0,0.0,0.0,0.0,0.0,0.0,0.0,0.0,0.0,0.0,0.0,0.0,0.0,0.0,0.0,0.0,0.0,0.0,0.0,-2.529,-2.4693,-2.5845,-2.6582,0.0,-2.4275,-2.3356,-2.216,0.0,0.0,0.0,0.0,0.0,0.0,0.0,0.0,-2.0889,-2.3029,-2.4739,-2.5329,-2.6534,-2.6799,-2.5511,-2.5411,-2.4792,-2.3259,-2.213,-2.1176,-2.0429,-1.971,0.0,0.0,0.0,0.0,0.0,0.0,0.0,0.0,0.0,0.0,0.0,0.0,0.0,0.0,0.0,0.0,0.0,0.0,0.0,0.0,0.0,0.0,0.0,0.0,0.0,0.0,0.0,0.0,0.0,-0.688,-0.701,-0.6905,-0.8182,-0.894,0.0,0.0,0.0,0.0,0.0,0.0,0.0,0.0,0.0,-1.4803,-1.5424,-1.5952,-1.638,-1.6921,-1.7281,-1.7462,-1.7542,-1.9034,-2.1615,-2.1502,-2.3017,-2.5723,-2.5527,-2.4873,-2.3896,-2.3232,-2.2187,-2.0967,0.0,0.0,0.0,0.0,0.0,-2.042,-2.1387,0.0,0.0,0.0,0.0,0.0,0.0,0.0,0.0,0.0,0.0,0.0,0.0,0.0,0.0,-2.4946,-2.585,-2.659,-2.5774,-2.5222,-2.4569,0.0,-2.3314,-2.279,-2.1063,0.0,0.0,0.0,0.0,0.0,-2.1774,-2.3758,-2.534,-2.5936,-2.6576,-2.6715,-2.6058,-2.5672,-2.4955,-2.399,-2.3393,-2.2519,-2.1222,-2.1179,-2.0765,0.0,0.0,0.0,0.0,0.0,0.0,0.0,0.0,0.0,0.0,0.0,0.0,0.0,0.0,0.0,0.0,0.0,0.0,0.0,0.0,0.0,0.0,0.0,0.0,0.0,0.0,0.0,0.0,-0.7184,-0.7248,-0.6912,-0.8956,-1.0066,0.0,0.0,0.0,0.0,0.0,0.0,-1.4402,-1.505,-1.5611,-1.6052,-1.678,-1.7301,-1.7602,-1.7816,-1.8083,-1.8377,-1.7923,-1.9309,-2.224,-2.1965,-2.3273,-2.5742,-2.5859,-2.5644,-2.5176,-2.4307,-2.3203,-2.2002,-2.1572,-2.0742,0.0,-2.0879,-2.1162,-2.123,-2.2412,-2.2539,-2.21,-2.1572,0.0,-2.1389,-2.066,0.0,0.0,0.0,0.0,-2.3678,-2.3251,0.0,-2.5084,-2.4707,-2.5448,-2.6088,-2.5523,-2.5398,-2.5121,0.0,-2.433,-2.3979,-2.206,0.0,0.0,0.0,0.0,-2.1916,-2.2356,-2.3895,-2.5251,-2.6119,-2.6067,-2.6026,-2.6193,-2.5397,-2.4799,-2.4548,-2.4485,-2.3644,-2.1958,-2.2447,-2.182,-1.9849,0.0,0.0,0.0,0.0,0.0,0.0,0.0,0.0,0.0,0.0,0.0,0.0,0.0,0.0,0.0,0.0,0.0,0.0,0.0,0.0,0.0,0.0,0.0,0.0,0.0,0.0,0.0,0.0,0.0,-0.739,-1.0192,0.0,0.0,0.0,0.0,-1.483,-1.5117,-1.5658,-1.6506,-1.6593,-1.7007,-1.7856,-1.8223,-1.8544,-1.8831,-1.8844,-1.9005,-1.9292,-1.843,-1.9542,-2.2495,-2.2352,-2.3538,-2.5762,-2.6172,-2.6103,-2.5635,-2.4746,-2.3633,-2.2441,-2.2012,-2.1562,-2.1143,-2.1211,-2.1738,-2.2373,-2.206,-2.167,-2.1357,-2.1728,-2.2102,-2.2432,-2.2352,-2.2674,0.0,0.0,-2.3053,-2.3115,-2.3078,-2.3602,-2.4067,-2.4054,-2.4858,-2.5498,-2.4971,-2.4858,-2.4695,0.0,-2.4017,-2.364,-2.2488,0.0,-2.2293,-2.0143,-2.125,-2.2231,-2.1858,-2.2889,-2.4124,-2.5351,-2.494,-2.4829,-2.5408,-2.4265,-2.3966,-2.4985,-2.486,-2.423,-2.31,-2.3602,-2.2611,-1.9849,-1.9296,0.0,0.0,0.0,0.0,0.0,0.0,0.0,0.0,0.0,0.0,0.0,0.0,0.0,0.0,0.0,0.0,0.0,0.0,0.0,0.0,0.0,0.0,0.0,0.0,0.0,0.0,0.0,0.0,-0.8106,-1.0759,0.0,-1.1783,-1.4346,-1.6166,-1.6353,-1.7001,-1.7528,-1.7836,-1.8217,-1.847,-1.8597,-1.8891,-1.9105,-1.9205,-1.9205,-1.9265,-1.9359,-1.8664,-1.9344,-2.1233,-2.1707,-2.2935,-2.4883,-2.5602,-2.6045,-2.6113,-2.5508,-2.4502,-2.332,-2.3174,-2.251,-2.1719,-2.2256,-2.248,-2.249,-2.2344,-2.2012,-2.1575,-2.1191,-2.1331,-2.1643,-2.1561,-2.2555,-2.354,-2.2811,-2.3125,-2.3602,-2.3226,-2.3288,-2.354,-2.3916,-2.4004,-2.4067,-2.4255,-2.4004,-2.3678,-2.3477,-2.374,-2.3753,-2.2963,-2.3319,-2.3276,-2.2109,-2.2143,-2.2424,-2.2625,-2.283,-2.313,-2.3568,-2.373,-2.3906,-2.4115,-2.3228,-2.2866,-2.3275,-2.3536,-2.3238,-2.2121,-2.2949,-2.2297,-1.9849,-1.8945,-1.8304,0.0,0.0,0.0,0.0,0.0,0.0,0.0,0.0,0.0,0.0,0.0,0.0,0.0,0.0,0.0,0.0,0.0,0.0,0.0,0.0,0.0,0.0,0.0,0.0,0.0,0.0,-0.856,-0.8357,-1.1341,-1.3202,-1.2781,-1.5743,-1.7829,-1.8029,-1.8691,-1.9078,-1.9078,-1.9446,-1.9526,-1.9232,-1.9412,-1.9466,-1.9366,-1.9366,-1.9366,-1.9359,-1.8771,-1.9236,-2.0483,-2.0969,-2.2307,-2.4162,-2.4871,-2.5535,-2.5928,-2.5635,-2.4834,-2.3799,-2.3945,-2.331,-2.2353,-2.2773,-2.2754,-2.2451,-2.2012,-2.1572,-2.1135,-2.0524,-2.0762,-2.1216,-2.1284,-2.2408,-2.3552,-2.2799,-2.3125,-2.3615,-2.3178,-2.3078,-2.3226,-2.3615,-2.3414,-2.3238,-2.3627,-2.3401,-2.3078,-2.3078,-2.3602,-2.384,-2.3221,-2.3932,-2.4218,-2.328,-2.3096,-2.315,-2.308,-2.2776,-2.2483,-2.2481,-2.2662,-2.2792,-2.2792,-2.2311,-2.2121,-2.2297,-2.2661,-2.2447,-2.1531,-2.2548,-2.2083,-1.9849,-1.8568,-1.7739,-1.735,0.0,0.0,0.0,0.0,0.0,0.0,0.0,0.0,0.0,0.0,0.0,0.0,0.0,0.0,0.0,0.0,0.0,0.0,0.0,0.0,0.0,0.0,0.0,-0.7628,-0.8394,-0.874,-0.817,-1.1895,-1.4387,-1.3847,-1.7455,-1.982,-1.9826,-2.0094,-2.0254,-2.0247,-2.0234,-2.01,-1.9813,-1.9793,-1.9653,-1.9372,-1.9366,-1.9366,-1.9345,-1.8771,-1.9119,-2.0367,-2.0362,-2.1482,-2.3728,-2.4088,-2.4631,-2.5088,-2.5078,-2.456,-2.3828,-2.4238,-2.3887,-2.3086,-2.2666,-2.249,-2.2285,-2.1006,-2.0283,-1.9915,-1.9867,-2.0436,-2.1284,-2.1717,-2.2445,-2.3078,-2.3078,-2.3078,-2.3078,-2.3078,-2.3078,-2.3078,-2.3078,-2.3078,-2.3125,-2.3053,-2.3053,-2.3053,-2.3053,-2.3577,-2.3791,-2.3226,-2.4457,-2.5046,-2.3372,-2.4089,0.0,-2.3267,-2.263,-2.2282,-2.2282,-2.1849,-2.1492,-2.1479,-2.1491,-2.1707,-2.2234,-2.2246,-2.1983,-2.143,-2.2435,-2.197,-1.9773,-1.8179,-1.6835,-1.5718,0.0,0.0,0.0,0.0,0.0,0.0,0.0,0.0,0.0,0.0,0.0,0.0,0.0,0.0,0.0,0.0,0.0,0.0,0.0,0.0,0.0,0.0,-0.8367,-0.8255,-0.8828,-0.932,-0.9479,-1.2522,-1.4629,-1.482,-1.8034,-2.0201,-2.0421,-2.0708,-2.0775,-2.0568,-2.0347,-2.01,-1.9813,-1.9593,-1.9446,-1.9366,-1.9366,-1.9259,-1.9038,-1.8671,-1.859,-1.8679,-1.94,-2.0877,-2.2775,-2.3524,-2.4538,-2.5527,-2.5205,-2.456,-2.3799,-2.3916,-2.3623,-2.3086,-2.2666,-2.2119,-2.1484,-2.0801,-2.0283,-1.9775,-1.9191,-1.997,-2.1152,-2.0994,-2.1928,-2.3078,-2.3078,-2.3078,-2.3078,-2.3078,-2.3078,-2.3078,-2.3078,-2.3078,-2.2965,-2.2623,-2.2535,-2.2535,-2.2535,-2.2987,-2.3265,-2.3103,-2.4147,-2.4745,-2.387,0.0,0.0,-2.3192,-2.2621,-2.2158,-2.1749,-2.1945,-2.1901,-2.1554,-2.1511,-2.138,0.0,-2.0727,-2.0263,-1.9723,-1.9999,-1.9497,-1.8078,-1.7614,-1.7024,0.0,0.0,0.0,0.0,0.0,0.0,0.0,0.0,0.0,0.0,0.0,0.0,0.0,0.0,0.0,0.0,0.0,0.0,0.0,0.0,0.0,0.0,-0.9713,-0.891,-0.895,-0.9306,-0.9663,-0.9924,-1.2226,-1.4144,-1.5221,-1.7837,-1.9775,-2.0828,-2.1015,-2.0982,-2.0688,-2.0628,-2.0354,-1.982,-1.9753,-1.9613,-1.9372,-1.9245,-1.9092,-1.8918,-1.8504,-1.8217,-1.8036,-1.8548,-1.9628,0.0,-2.2359,-2.3404,-2.4382,-2.4704,-2.4287,0.0,0.0,0.0,0.0,0.0,-2.1543,-2.0859,-2.0244,-1.9863,-1.9512,-1.8652,-1.9291,-2.0435,-2.0551,-2.1542,-2.2689,-2.3017,-2.3078,-2.3078,-2.3078,-2.3314,-2.3376,-2.2899,-2.315,-2.3213,-2.2184,-2.2334,-2.2523,-2.2058,0.0,0.0,-2.3153,-2.4073,-2.4705,-2.4353,-2.4353,-2.4016,0.0,-2.2809,-2.2351,-2.1587,-2.2001,-2.2083,-2.1543,-2.1493,0.0,0.0,0.0,-1.966,-1.9359,-1.9145,0.0,0.0,0.0,-1.779,0.0,0.0,0.0,0.0,-1.681,-1.6798,0.0,0.0,0.0,0.0,0.0,0.0,0.0,0.0,0.0,0.0,0.0,0.0,0.0,0.0,0.0,0.0,-1.0337,-0.931,-0.9615,-0.9751,-0.9822,-0.9822,-1.139,-1.3264,-1.4953,-1.7021,-1.8912,-2.0644,-2.0929,-2.0949,-2.0688,0.0,0.0,0.0,0.0,-1.9907,-1.9325,-1.9092,-1.8925,-1.8818,-1.833,-1.8063,-1.7989,-1.7709,-1.8297,-1.9731,-2.1001,-2.1897,-2.251,-2.3801,-2.3867,-2.3174,-2.3516,-2.3154,-2.2344,-2.1533,-2.0918,0.0,0.0,0.0,0.0,-1.8271,-1.8596,-1.9431,-2.0204,-2.1101,-2.2063,-2.2763,-2.3005,-2.3065,-2.3002,-2.3427,-2.354,-2.2472,-2.2987,-2.3288,-2.1732,-2.2171,-2.2573,-2.1581,-2.31,-2.4217,-2.3153,-2.4029,-2.4798,-2.4706,-2.467,0.0,-2.3129,-2.3039,-2.2736,-2.1694,0.0,0.0,-2.1543,-2.1493,-2.1004,-1.9874,-1.9798,-1.9748,-1.9623,-1.9183,-1.8907,-1.8795,-1.8844,-1.8631,-1.8204,-1.7777,-1.779,-1.8191,-1.7639,-1.7099,0.0,0.0,0.0,0.0,0.0,0.0,0.0,0.0,0.0,0.0,0.0,0.0,0.0,0.0,0.0,-1.2832,-1.098,-0.9625,-0.9924,-0.9883,-0.9822,-0.9822,-1.1288,-1.2461,-1.3137,-1.5878,-1.7935,-1.8793,-1.9987,-2.0735,-2.0681,-2.0728,0.0,-1.982,-1.9853,-1.9599,-1.9018,-1.9192,-1.8925,-1.8217,0.0,0.0,-1.7669,-1.7609,-1.8297,-1.9612,-2.0736,-2.1658,-2.2483,-2.3486,-2.3603,-2.3115,-2.2861,-2.2451,-2.1943,-2.1426,-2.0723,-1.9971,-1.9463,-1.9053,-1.8682,-1.8174,-1.8596,-1.9299,-1.9497,-2.0655,0.0,-2.2075,-2.258,-2.2977,-2.2585,-2.2548,-2.2472,-2.1807,-2.1807,-2.1769,-2.1046,-2.0991,-2.1079,-2.092,-2.1895,-2.2723,-2.251,-2.3778,-2.4632,-2.4241,-2.3739,-2.3188,-2.2564,-2.2811,-2.2874,-2.2221,-2.2648,-2.2573,-2.1568,-2.1493,-2.1004,-1.9874,-1.9798,-1.9409,-1.8555,-1.8417,-1.8154,-1.7714,-1.7702,-1.7865,-1.8204,-1.8543,-1.853,-1.8191,-1.7639,-1.7325,0.0,0.0,0.0,0.0,0.0,0.0,0.0,0.0,0.0,0.0,0.0,-1.6732,0.0,0.0,-1.4196,-1.3934,-1.089,-0.8888,-0.9901,-0.9114,-0.8738,-0.9593,-1.0496,-1.1409,-1.2457,-1.4736,-1.6774,-1.8019,-1.9568,-2.0388,-2.0247,-2.0374,-2.0187,-1.9599,-1.9586,-1.9372,-1.8925,-1.8778,-1.8484,-1.805,-1.8043,-1.7876,-1.7582,-1.7582,-1.7996,-1.87,-2.0553,-2.1368,-2.1501,-2.2891,-2.3213,-2.2783,-2.2363,-2.207,-2.1777,-2.0898,-2.0293,-1.9824,-1.918,-1.8818,-1.8494,-1.8144,-1.8269,-1.8721,-1.9177,-1.9879,-2.0782,-2.1616,-2.1994,-2.2089,-2.2268,-2.2309,-2.2108,-2.128,-2.1493,-2.1594,-2.0476,-2.0677,-2.0903,-2.0338,-2.1355,-2.2221,-2.1945,-2.305,-2.3791,-2.3238,-2.2673,-2.2121,-2.1556,-2.2209,-2.2397,-2.1581,-2.2234,-2.2385,-2.1556,-2.0966,-2.0401,-1.9836,-1.956,-1.9171,-1.8643,-1.8355,-1.8078,-1.7802,-1.779,-1.7928,-1.8204,-1.902,-1.9133,-1.8606,-1.8342,-1.7752,0.0,0.0,0.0,0.0,0.0,0.0,0.0,0.0,-1.4671,-1.5485,-1.7579,-1.9133,-1.8831,-1.7106,-1.5421,-1.4495,-1.0479,-0.8016,-0.9327,-0.8091,-0.7674,-0.9327,-0.9666,-1.0328,-1.1626,-1.3347,-1.5256,-1.7196,-1.8744,-1.9673,-1.9813,-2.0074,-1.9967,-1.9386,-1.9366,-1.9199,-1.8844,-1.837,-1.8076,-1.7956,-1.7762,-1.7642,-1.7582,-1.7582,-1.7654,-1.7998,-2.0599,-2.1455,-2.1079,-2.2499,-2.2891,-2.2471,-2.2051,-2.1787,-2.1494,-2.0342,-1.9863,-1.9687,-1.8906,-1.8584,-1.8457,-1.8115,-1.8008,-1.8144,-1.8844,-1.9177,-1.9628,-2.1164,-2.1434,-2.1332,-2.2089,-2.2309,-2.2058,-2.1066,-2.143,-2.1619,-2.0263,-2.0589,-2.0891,-1.9974,-2.0991,-2.182,-2.1255,-2.1995,-2.2573,-2.2347,-2.1845,-2.1292,-2.0794,-2.1443,-2.1656,-2.0819,-2.1556,-2.1933,-2.138,-2.0388,-1.9798,-1.9798,-1.9409,-1.9133,-1.8983,-1.8493,-1.8154,-1.8053,-1.8154,-1.8204,-1.8204,-1.9284,-1.9535,-1.8983,-1.8983,-1.8242,-0.8544,-0.8611,-0.933,-1.1285,-1.1586,-1.2034,0.0,0.0,-1.6202,-1.6888,-1.9411,-2.11,-1.9559,-1.798,-1.5951,-1.3088,-0.9704,-0.7573,-0.7782,-0.7403,-0.7641,-0.9185,-0.9418,-0.9545,-0.9658,-1.1306,-1.3131,-1.5007,-1.6777,-1.8357,-1.9681,-2.0074,-1.9967,-1.9386,-1.9366,-1.9098,-1.8544,-1.8477,-1.817,-1.7635,-1.7883,-1.7849,-1.7582,-1.7582,-1.8054,-1.8969,-2.0895,-2.2154,-2.2811,-2.2998,-2.2891,-2.2471,-2.2051,-2.1406,-2.0654,-2.0117,-1.9678,-1.9287,-1.8799,-1.8389,-1.8076,-1.8027,-1.8008,-1.8008,-1.8144,-1.8664,-1.9497,-2.0462,-2.1255,-2.1872,-2.2188,-2.2309,-2.2159,-2.1543,-2.1117,-2.0857,-2.0668,-2.0263,-1.9949,-1.9823,-2.0363,-2.0665,-2.0087,-2.0514,-2.1255,-2.2171,-2.1845,-2.1292,-2.0794,-2.0819,-2.0803,-2.0731,-2.1217,-2.1355,-2.0857,-2.0175,-1.9798,-1.9798,-1.9748,-1.951,-1.8995,-1.8493,-1.7978,-1.7488,-1.7953,-1.8204,-1.8204,-1.9284,-1.9535,-1.8983,-1.8983,-1.8668,-0.9152,-0.9911,-1.0902,-1.1939,-1.3124,-1.4345,-1.5486,-1.6734,-1.7767,-1.8294,-2.0497,-2.1814,-2.023,-1.8499,-1.638,0.0,-0.9084,-0.654,-0.7383,-0.6422,-0.6448,-0.8807,-0.9123,-0.9157,-0.9242,-1.087,-1.2664,-1.4382,-1.6127,-1.7793,-1.9539,-1.9659,-1.9539,-1.9125,-1.8945,-1.8657,-1.8237,-1.805,-1.7836,-1.7582,-1.7716,-1.7622,-1.7328,-1.7328,-1.7872,-1.8934,-2.0169,-2.1357,-2.2466,-2.2708,-2.2529,-2.2109,-2.167,-2.0967,-2.0137,-1.9707,-1.9277,-1.8848,-1.8418,-1.8154,-1.8008,-1.8008,-1.8008,-1.8008,-1.8008,-1.8269,-1.8844,-2.0204,-2.0631,-2.0854,-2.1996,-2.2071,-2.1782,-2.1543,-2.1066,-2.0718,-2.0718,-2.0213,-1.9798,-1.9798,-1.9999,-2.0087,-1.9849,-2.0552,-2.1079,-2.0878,-2.0652,-2.0426,-2.0188,-2.0451,-2.0718,-2.0718,-2.0577,-2.0413,-2.0188,-1.9936,-1.9798,-1.9798,-1.9798,-1.9572,-1.8995,-1.8493,-1.794,-1.7388,-1.7928,-1.8053,-1.7727,-1.912,-1.9535,-1.8983,-1.8983,-1.8907,-0.9339,-1.0487,-1.173,-1.2453,-1.4118,-1.5776,-1.6335,-1.7503,-1.8584,-1.9014,-2.0574,-2.1355,-1.9749,-1.803,-1.5671,-1.1906,-0.7886,-0.5355,-0.5991,-0.5088,-0.5398,-0.8,-0.8592,-0.8933,-0.9079,-1.0357,-1.1986,-1.4068,-1.5341,-1.7008,-1.9117,-1.9245,-1.9145,-1.8931,-1.8564,-1.8263,-1.805,-1.7736,-1.7582,-1.7582,-1.7582,-1.7428,-1.7244,-1.738,-1.7868,-1.8596,-1.9751,-2.0902,-2.1798,-2.2284,-2.2266,-2.1846,-2.1406,-2.0625,-1.9707,-1.9404,-1.9014,-1.8574,-1.8154,-1.8008,-1.8008,-1.8008,-1.8008,-1.8008,-1.8008,-1.8008,-1.8337,-1.9814,-1.994,-1.9979,-2.1728,-2.1873,-2.1646,-2.1888,-2.1281,-2.0605,-2.0605,-1.9986,-1.9368,-1.9368,-1.9368,-1.9434,-1.9645,-2.0242,-2.0523,-1.9872,-1.9798,-1.9798,-1.9798,-2.0162,-2.0426,-2.0426,-2.0049,-1.9798,-1.9798,-1.9798,-1.9798,-1.9798,-1.9522,-1.9196,-1.8819,-1.8116,-1.7626,-1.7388,-1.7928,-1.8078,-1.784,-1.9158,-1.961,-1.9246,-1.9246,-1.9246,-0.8677,-0.9678,-1.0973,-1.2753,-1.4048,-1.5366,-1.6983,-1.7715,-1.8144,-1.8574,-1.9403,-1.941,-1.7385,-1.6024,-1.3451,-0.8313,-0.5973,-0.4255,-0.2883,-0.358,-0.495,-0.6729,-0.7999,-0.8777,0.0,-0.9185,-1.0498,-1.3502,-1.4246,-1.5775,-1.8704,-1.8938,-1.8931,-1.8925,-1.8364,-1.8056,-1.805,-1.7736,-1.7582,-1.7582,-1.7582,-1.7428,-1.723,-1.7822,-1.8097,-1.8258,-2.0295,-2.1311,-2.1373,-2.215,-2.2266,-2.1846,-2.1406,-2.0449,-1.9307,-1.9287,-1.9014,-1.8574,-1.8154,-1.8008,-1.8008,-1.8008,-1.8008,-1.8008,-1.8008,-1.8008,-1.8202,-1.911,-1.9354,-1.9727,-2.1467,-2.1904,-2.2077,-2.2895,-2.1709,-2.0399,-2.0399,-1.9344,-1.8361,-1.8361,-1.8361,-1.8578,-1.9309,-1.9083,-1.9028,-1.9695,-1.9798,-1.9798,-1.9798,-1.9823,-1.9823,-1.9823,-1.9811,-1.9798,-1.9798,-1.9798,-1.9798,-1.9798,-1.8832,-1.8242,-1.8229,-1.7162,-1.6823,-1.7375,-1.7928,-1.8455,-1.8933,-1.9535,-1.9798,-1.9773,-1.9773,-1.9773,-0.935,-1.0918,-1.2604,-1.4013,-1.5228,-1.6258,-1.6821,-1.75,-1.8047,-1.8193,-1.8704,-1.8545,-1.6688,-1.5204,-1.2646,-0.7487,-0.5697,-0.4266,-0.2569,-0.3591,-0.5024,-0.6441,-0.8048,0.0,0.0,0.0,0.0,-1.3472,-1.3846,-1.5356,-1.8512,-1.8637,-1.8544,-1.8343,-1.815,-1.7949,-1.7742,-1.7635,-1.7582,-1.7582,-1.7188,-1.6954,-1.6834,-1.6621,-1.6538,-1.6714,-1.908,-1.9889,-1.9812,-2.1381,-2.1846,-2.1377,-2.0644,-1.9922,-1.9248,-1.8965,-1.8584,-1.8193,-1.8057,-1.8008,-1.8008,-1.8008,-1.8008,-1.8008,-1.8008,-1.8008,-1.8202,-1.9044,-1.9299,-1.9562,-2.0719,-2.1049,-2.1112,-2.1353,-2.0696,-1.9958,-1.9958,-1.9261,-1.8647,-1.8324,-1.8315,-1.8442,-1.8873,-1.9131,-1.9534,-2.031,-2.0049,-1.9798,-1.9798,-1.9798,-1.9798,-1.9798,-1.9798,-1.9798,-1.9798,-1.9484,-1.9434,-1.9773,-1.8794,-1.8204,-1.8204,-1.7488,-1.6999,-1.681,-1.7363,-1.7928,-1.848,-1.9032,-1.9459,-1.9798,-1.9798,-1.9623,-1.0329,-1.1618,-1.2857,-1.41,-1.5148,-1.5856,-1.6008,-1.6722,-1.7288,-1.7168,-1.6973,-1.6368,-1.4536,-1.3121,-1.0847,-0.6223,-0.5023,-0.3833,-0.1678,-0.2801,-0.4244,-0.5612,-0.7276,-0.8437,0.0,0.0,0.0,-1.2597,-1.3327,-1.4884,-1.741,-1.8104,-1.8243,-1.8056,-1.7943,-1.7782,-1.7589,-1.7582,-1.7528,-1.7422,-1.6934,-1.6653,-1.6533,-1.6046,-1.5832,-1.5913,-1.8271,-1.9077,-1.891,-2.0848,-2.1396,-2.0928,-2.0195,-1.9561,-1.9023,-1.874,-1.8369,-1.8008,-1.8008,-1.8008,-1.8008,-1.8008,-1.8008,-1.8008,-1.8008,-1.8008,-1.8144,-1.8654,-1.8854,-1.9044,-1.9879,-2.0139,-2.0204,-2.0526,-1.9946,-1.9342,-1.9342,-1.8792,-1.8265,-1.7807,-1.7711,-1.7904,-1.8481,-1.9185,-1.9846,-2.0298,-2.0037,-1.9798,-1.9798,-1.9798,-1.9798,-1.9798,-1.9798,-1.9798,-1.9798,-1.9334,-1.9171,-1.9497,-1.8505,-1.7903,-1.7903,-1.7375,-1.6999,-1.6823,-1.7187,-1.7652,-1.8204,-1.8355,-1.8606,-1.8932,-1.8731,-1.8555,-1.1436,-1.1684,-1.1737,-1.3263,-1.3917,-1.4339,-1.4789,-1.5515,-1.5946,-1.5515,-1.4484,-1.3068,0.0,0.0,-0.7967,-0.4365,-0.3879,-0.2966,-0.0319,-0.1159,-0.2652,0.0,0.0,0.0,0.0,0.0,0.0,-1.0903,0.0,-1.435,-1.5787,-1.7239,-1.8023,-1.8023,-1.7736,-1.7582,-1.7582,-1.7569,-1.7422,-1.725,-1.6834,-1.654,-1.6259,-1.5965,-1.5818,-1.588,-1.7931,-1.875,-1.8844,-2.054,-2.0967,-2.0518,-2.0059,-1.9385,-1.8592,-1.8623,-1.835,-1.8008,-1.8008,-1.8008,-1.8008,-1.8008,-1.8008,-1.8008,-1.8008,-1.8008,-1.8008,-1.8008,-1.8008,-1.8202,-1.9044,-1.9243,-1.9431,-2.0268,-1.9533,-1.8574,-1.8574,-1.7971,-1.7285,-1.6855,-1.6728,-1.704,-1.8115,-1.9149,-1.9784,-1.9811,-1.9823,-1.9836,-1.9798,-1.9798,-1.9798,-1.9798,-1.9773,-1.9773,-1.9798,-1.9296,-1.8945,-1.8983,-1.799,-1.7388,-1.7388,-1.6823,-1.6773,-1.7325,-1.7338,-1.7614,-1.8166,-1.7639,-1.7388,-1.7363,-1.6823,-1.6823,-1.1564,-1.2078,-1.2568,-1.3582,-1.4179,-1.4621,-1.4719,-1.516,-1.5359,-1.4793,-1.3348,-1.1673,0.0,0.0,0.0,-0.3668,-0.2881,0.0,-0.0225,-0.1361,0.0,-0.4437,0.0,-0.7591,-0.9004,-0.913,0.0,0.0,-1.191,-1.3996,-1.5409,-1.6932,-1.7702,-1.7702,-1.7622,-1.7582,-1.7582,-1.7368,-1.7221,-1.7141,-1.6633,-1.6346,-1.6259,-1.5965,-1.5712,-1.5591,-1.783,-1.8559,-1.8228,-2.0316,-2.0967,-2.0488,-1.9736,-1.9316,-1.9043,-1.8408,-1.8105,-1.8008,-1.8008,-1.8008,-1.8008,-1.8008,-1.8008,-1.8008,-1.8008,-1.8008,-1.8008,-1.8008,-1.8008,-1.8076,-1.8269,-1.8337,-1.8395,-1.8596,-1.8372,-1.8168,-1.8168,-1.7976,-1.7725,-1.7295,-1.7119,-1.7319,-1.8176,-1.906,-1.969,-1.9758,-2.0175,-2.0288,-1.9861,-1.9798,-1.9798,-1.9798,-1.9459,-1.9384,-1.9773,-1.8945,-1.8593,-1.8945,-1.799,-1.7388,-1.7388,-1.6823,-1.6584,-1.6735,-1.6735,-1.7024,-1.7589,-1.7451,-1.7388,-1.7388,-1.7225,-1.6785,-1.2487,-1.2786,-1.3033,-1.4191,-1.4547,-1.4538,-1.41,-1.4462,-1.4435,-1.2835,-1.1344,0.0,-0.8743,-0.7294,0.0,0.0,0.0,0.0,-0.0221,-0.1345,-0.2939,0.0,-0.6045,0.0,-0.9054,-0.9154,-0.9093,0.0,-1.1,-1.294,-1.4449,-1.5849,-1.6929,-1.7582,-1.7582,-1.7522,-1.7395,-1.7235,-1.7021,-1.676,-1.6433,-1.6206,-1.6072,-1.5772,-1.5551,-1.547,0.0,-1.8173,-1.7946,-1.9832,-2.04,-1.9941,-1.9268,-1.8887,-1.8662,-1.8193,-1.8008,-1.8008,-1.8008,-1.8008,-1.8008,-1.8008,-1.8008,-1.8008,-1.8008,-1.8008,-1.8008,-1.8008,-1.8008,-1.8008,-1.8008,-1.8008,-1.8008,-1.8008,-1.8008,-1.8008,-1.8008,-1.8008,-1.7832,-1.7217,-1.6982,-1.7101,-1.7889,-1.8672,-1.9341,-1.9745,-2.0075,-2.0175,-1.9849,-1.9798,-1.971,-1.9484,-1.9196,-1.9045,-1.9095,-1.8329,-1.7978,-1.8292,-1.7488,-1.6999,-1.6999,-1.6685,-1.6522,-1.6522,-1.6522,-1.6559,-1.6635,-1.6396,-1.62,-1.596,-1.5668,-1.5354,-1.34,-1.3556,-1.3402,-1.4752,-1.4887,-1.4538,-1.3509,-1.3804,-1.3459,-1.0534,0.0,-0.8242,-0.7033,-0.6477,-0.5496,-0.3301,0.0,-0.2702,-0.032,-0.1288,-0.283,-0.4552,-0.5956,-0.745,-0.9037,-0.9154,-0.9093,-0.895,-1.0135,-1.1538,-1.3156,-1.4663,-1.6068,-1.7582,-1.7582,-1.7442,-1.7154,-1.7108,-1.6814,-1.6273,-1.6233,-1.6079,-1.5818,-1.5531,-1.5378,-1.5396,0.0,0.0,-1.7772,-1.9118,-1.9509,-1.9248,-1.8809,-1.8418,-1.8086,-1.8037,-1.8008,-1.8008,-1.8008,-1.8008,-1.8008,-1.8008,-1.8008,-1.8008,-1.8008,-1.8008,-1.8008,-1.8008,-1.8008,-1.8008,-1.8008,-1.8008,-1.8008,-1.8008,-1.8008,-1.8008,-1.8008,-1.7969,-1.7705,-1.6963,-1.6638,-1.669,-1.7568,-1.8159,-1.8821,-1.9695,-1.9798,-1.9798,-1.9798,-1.9798,-1.9597,-1.9083,-1.897,-1.8731,-1.8242,-1.7702,-1.7388,-1.7388,-1.6911,-1.6597,-1.6522,-1.6522,-1.6484,-1.6409,-1.6409,-1.6132,-1.558,-1.5142,-1.4626,-1.4072,-1.3559,-1.3559,-1.3008,-1.3889,-1.4406,-1.4381,-1.5328,-1.5736,-1.395,-1.3635,0.0,0.0,-0.8857,-0.7787,-0.6692,-0.5425,-0.4254,-0.3125,-0.2401,-0.1524,-0.0224,-0.1232,-0.2793,0.0,-0.6018,-0.7544,0.0,0.0,0.0,0.0,0.0,0.0,-1.3156,-1.4663,-1.6068,-1.7582,-1.7582,-1.7442,-1.7154,-1.6907,-1.6607,-1.6273,-1.6025,-1.5879,-1.5818,-1.5531,-1.5264,-1.5107,0.0,0.0,-1.6954,-1.8098,-1.8826,-1.9248,-1.8809,-1.8594,-1.8486,-1.8135,-1.8008,-1.8008,-1.8008,-1.8008,-1.8008,-1.8008,-1.8008,-1.8008,-1.8008,-1.8008,-1.8008,-1.8008,-1.8008,-1.8008,-1.8008,-1.8008,-1.8008,-1.8008,-1.8008,-1.8008,-1.8008,-1.7734,-1.7451,-1.7305,-1.6678,-1.6585,-1.7964,-1.7958,-1.8232,-1.9592,-1.9798,-1.9798,-1.9798,-1.9798,-1.9597,-1.9083,-1.8618,-1.8304,-1.8216,-1.7702,-1.7388,-1.7388,-1.7287,-1.7024,-1.6534,-1.6522,-1.6308,-1.5844,-1.5831,-1.5567,-1.5054,-1.4966,-1.4626,-1.4085,-1.3984,-1.3709,-1.3673,-1.4328,-1.4729,-1.5759,-1.601,-1.5608,-1.4345,0.0,0.0,0.0,-0.8111,-0.7253,-0.6271,-0.5197,0.0,-0.3124,-0.2307,-0.1653,-0.1182,-0.2465,0.0,-0.5684,-0.7088,-0.8231,0.0,0.0,0.0,0.0,0.0,0.0,-1.3156,-1.531,-1.6759,-1.7361,-1.7361,-1.7141,-1.67,-1.6553,-1.6333,-1.6039,-1.5899,-1.5832,-1.5812,-1.5371,-1.5097,-1.5026,0.0,0.0,-1.6063,-1.744,-1.8053,-1.8241,-1.8267,-1.8311,-1.8281,-1.8086,-1.8008,-1.8008,-1.8008,-1.8008,-1.8008,-1.8008,-1.8008,-1.8008,-1.8008,-1.8008,-1.8008,-1.8008,-1.8008,-1.8008,-1.8008,-1.8008,-1.8008,-1.8008,-1.8008,-1.7949,-1.7734,-1.7344,-1.6973,-1.6738,-1.6172,-1.6068,-1.7152,-1.7186,-1.7413,-1.8501,-1.8992,-1.9202,-1.9202,-1.9304,-1.9196,-1.8656,-1.8103,-1.7652,-1.735,-1.7087,-1.6936,-1.6936,-1.6936,-1.681,-1.6522,-1.6522,-1.6258,-1.5706,-1.5693,-1.5279,-1.4475,-1.4475,-1.4198,-1.3622,-1.3622,-1.3483,-1.4408,-1.5063,-1.524,-1.7208,-1.6942,-1.5891,-1.4682,-1.3679,0.0,-0.8786,-0.7607,-0.6867,-0.5933,-0.5279,-0.4543,0.0,-0.2859,-0.2549,-0.2421,-0.3846,-0.5285,0.0,-0.8084,0.0,0.0,0.0,0.0,0.0,0.0,0.0,0.0,-1.5695,-1.7062,-1.7154,-1.7088,-1.68,-1.6279,-1.6273,-1.6092,-1.5732,-1.5732,-1.5705,-1.5625,-1.5104,-1.487,-1.4925,0.0,0.0,0.0,-1.6521,-1.7046,-1.7089,-1.7565,-1.7794,-1.8008,-1.8008,-1.8008,-1.8008,-1.8008,-1.8008,-1.8008,-1.8008,-1.8008,-1.8008,-1.8008,-1.8008,-1.8008,-1.8008,-1.8008,-1.8008,-1.8008,-1.8008,-1.8008,-1.8008,-1.7939,-1.7783,-1.7461,-1.6963,-1.6484,-1.6133,-1.5781,-1.5751,-1.6389,-1.6566,-1.6882,-1.7479,-1.8112,-1.8436,-1.8436,-1.8494,-1.8388,-1.8003,-1.7722,-1.7325,-1.6748,-1.6697,-1.6647,-1.6522,-1.6522,-1.6522,-1.6522,-1.6409,-1.6082,-1.553,-1.5404,-1.4903,-1.3909,-1.3909,-1.3647,-1.3198,-1.3198,-1.3198,-1.4377,-1.6098,-1.708,-1.7596,-1.8359,-1.8123,-1.5115,0.0,-1.2615,-0.8859,-0.7733,-0.7117,-0.5819,-0.556,-0.5183,-0.425,-0.4159,-0.402,-0.3384,-0.4777,-0.6057,-0.6519,0.0,0.0,0.0,0.0,0.0,0.0,0.0,0.0,0.0,-1.4562,-1.5799,-1.7148,-1.6887,-1.6593,-1.6279,-1.6273,-1.5992,-1.5438,-1.5438,-1.5297,-1.503,-1.471,-1.4563,-1.4543,0.0,0.0,0.0,-1.4809,-1.5609,-1.6691,-1.6724,-1.7285,-1.8008,-1.8008,-1.8008,-1.8008,-1.8008,-1.8008,-1.8008,-1.8008,-1.8008,-1.8008,-1.8008,-1.8008,-1.8008,-1.8008,-1.8008,-1.8008,-1.8008,-1.8008,-1.8008,-1.8008,-1.7715,-1.7432,-1.7393,-1.6719,-1.6113,-1.6135,-1.6096,-1.6108,-1.6452,-1.6838,-1.7265,-1.7534,-1.7688,-1.7688,-1.7688,-1.7303,-1.7065,-1.7168,-1.7749,-1.7903,-1.735,-1.73,-1.7074,-1.6547,-1.6522,-1.6522,-1.6522,-1.6032,-1.5517,-1.5004,-1.4488,-1.3946,-1.3273,-1.3273,-1.3248,-1.3198,-1.3198,-1.3198,-1.4315,-1.5774,-1.6644,-1.7793,-1.7807,-1.7176,-1.5771,0.0,-1.1998,-0.9273,-0.7979,-0.7044,-0.5919,-0.5219,-0.4683,-0.4545,0.0,0.0,-0.4476,-0.5165,-0.612,-0.7407,0.0,0.0,0.0,0.0,0.0,0.0,0.0,0.0,0.0,-1.5094,-1.6458,-1.6633,-1.6506,-1.6306,-1.6012,-1.5832,-1.5625,-1.5391,-1.5217,-1.5077,-1.495,-1.4656,-1.4522,-1.4496,0.0,0.0,0.0,-1.4216,-1.4521,-1.4942,-1.5508,-1.6009,-1.6367,-1.6932,-1.7139,-1.7217,-1.7794,-1.8008,-1.8008,-1.8008,-1.8008,-1.8008,-1.8008,-1.8008,-1.8008,-1.8008,-1.8008,-1.8008,-1.8008,-1.7822,-1.7637,-1.7637,-1.7305,-1.6924,-1.665,-1.6523,-1.6309,-1.5771,-1.5889,-1.6038,-1.5886,-1.6014,-1.6123,-1.6275,-1.6641,-1.6922,-1.6922,-1.6884,-1.7138,-1.7981,-1.7484,-1.7005,-1.6867,-1.6861,-1.676,-1.6534,-1.6522,-1.6522,-1.6522,-1.5982,-1.5429,-1.4916,-1.4362,-1.3808,-1.3198,-1.3198,-1.3198,-1.3198,-1.3198,-1.3198,-1.4007,-1.517,-1.5805,-1.7175,-1.698,-1.6251,0.0,0.0,-1.1996,-0.9544,-0.8307,-0.73,-0.6086,-0.5147,-0.4742,-0.5061,0.0,-0.4223,-0.5521,-0.5756,-0.6364,0.0,0.0,0.0,0.0,0.0,0.0,0.0,0.0,0.0,0.0,-1.4396,-1.5978,-1.6286,-1.6106,-1.5912,-1.5705,-1.5418,-1.5224,-1.513,-1.493,-1.4743,-1.4569,-1.4355,-1.4215,0.0,0.0,0.0,0.0,-1.3591,-1.3748,-1.3745,-1.4458,-1.495,-1.5305,-1.593,-1.6349,-1.6706,-1.7364,-1.7794,-1.8008,-1.8008,-1.8008,-1.8008,-1.8008,-1.8008,-1.8008,-1.8008,-1.8008,-1.7978,-1.7852,-1.7607,-1.7383,-1.7383,-1.7051,-1.668,-1.6494,-1.6602,-1.6504,-1.5752,-1.5957,-1.6084,-1.5508,-1.5518,-1.5557,-1.543,-1.5864,-1.6151,-1.6151,-1.63,-1.6754,-1.771,-1.6683,-1.6208,-1.696,-1.6873,-1.6697,-1.6522,-1.6522,-1.6522,-1.6522,-1.5982,-1.5429,-1.4916,-1.4362,-1.3808,-1.3198,-1.3198,-1.3198,-1.3198,-1.3198,-1.3198,-1.3295,-1.4381,-1.495,-1.5651,-1.6217,-1.6047,-1.3913,-1.3745,-1.311,-0.9548,-0.8689,-0.8047,-0.6293,-0.5789,-0.5688,-0.5909,-0.5828,0.0,-0.6413,-0.6736,0.0,0.0,0.0,0.0,0.0,0.0,0.0,0.0,0.0,0.0,0.0,0.0,-1.3579,-1.6175,-1.5712,-1.5404,-1.5398,-1.511,-1.4823,-1.4529,-1.4529,-1.4222,-1.3572,-1.3572,0.0,0.0,0.0,0.0,0.0,-1.2822,-1.3166,-1.3673,-1.3745,-1.4314,-1.5234,-1.5234,-1.579,-1.6636,-1.6636,-1.7207,-1.8008,-1.8008,-1.8008,-1.8008,-1.8008,-1.8008,-1.8008,-1.8008,-1.8008,-1.791,-1.75,-1.7393,-1.7383,-1.7383,-1.7051,-1.6855,-1.7275,-1.7031,-1.6602,-1.6143,-1.6416,-1.6445,-1.5566,-1.5771,-1.5908,-1.5478,-1.541,-1.541,-1.541,-1.541,-1.5521,-1.5701,-1.5352,-1.5935,-1.7989,-1.7689,-1.7137,-1.6559,-1.6522,-1.6522,-1.6522,-1.5982,-1.5429,-1.4916,-1.4362,-1.3808,-1.3198,-1.3198,-1.3198,-1.3198,-1.3198,-1.3198,-1.207,-1.3368,-1.4243,-1.4421,-1.4805,-1.4797,-1.4056,-1.2618,-1.1063,-0.939,-0.8191,-0.7128,-0.6148,-0.5952,-0.5956,-0.6156,-0.6057,0.0,0.0,0.0,0.0,0.0,0.0,0.0,0.0,0.0,0.0,0.0,0.0,0.0,0.0,0.0,-1.1948,-1.4588,-1.4245,-1.444,-1.5398,-1.471,-1.4315,-1.4222,-1.3821,-1.3527,-1.3347,-1.3347,0.0,0.0,0.0,0.0,0.0,-1.2525,-1.2607,-1.2732,-1.2732,-1.2952,-1.331,-1.3954,-1.4378,-1.4807,-1.614,-1.6784,-1.7139,-1.7794,-1.8008,-1.8008,-1.8008,-1.8008,-1.8008,-1.8008,-1.7803,-1.7549,-1.7422,-1.6934,-1.6562,-1.6865,-1.6367,-1.5947,-1.6387,-1.6367,-1.6143,-1.5703,-1.5977,-1.6084,-1.5508,-1.5527,-1.5566,-1.543,-1.541,-1.541,-1.541,-1.541,-1.5521,-1.5834,-1.5394,-1.5611,-1.68,-1.6078,-1.5655,-1.5876,-1.5864,-1.5719,-1.5368,-1.5215,-1.5053,-1.4916,-1.3961,-1.3584,-1.3821,-1.3421,-1.3198,-1.3198,-1.3198,-1.3198,-1.1299,-1.2235,-1.2955,-1.2955,-1.3332,0.0,-1.2729,-1.1629,-1.0353,-0.8817,-0.7847,-0.7024,-0.6249,-0.6067,-0.6081,-0.6237,-0.6132,-0.6084,0.0,0.0,0.0,0.0,0.0,0.0,0.0,0.0,0.0,0.0,0.0,0.0,0.0,0.0,-1.0071,-1.2152,-1.2864,-1.3568,-1.4411,-1.4124,-1.3921,-1.3915,-1.3434,-1.3153,-1.3033,0.0,0.0,0.0,0.0,0.0,0.0,-1.2378,-1.2305,-1.2305,-1.2305,-1.2305,-1.2372,-1.2952,-1.3382,-1.3882,-1.5084,-1.6,-1.6706,-1.7285,-1.7619,-1.7773,-1.7773,-1.7773,-1.7744,-1.7578,-1.7344,-1.71,-1.6934,-1.6537,-1.6133,-1.6416,-1.6055,-1.5781,-1.6221,-1.6318,-1.6191,-1.5742,-1.5879,-1.5928,-1.5488,-1.541,-1.541,-1.541,-1.541,-1.541,-1.541,-1.5273,-1.5229,-1.544,-1.4879,-1.4797,-1.5519,-1.5036,-1.4971,-1.5543,-1.5588,-1.5545,-1.5459,-1.5265,-1.513,-1.4916,-1.3998,-1.3609,-1.3783,-1.3396,-1.3198,-1.3198,-1.3198,-1.3198,0.0,-1.127,-1.1464,-1.1396,-1.2023,-1.2241,-1.0384,-1.0707,0.0,-0.7863,-0.7501,-0.7407,-0.6504,-0.6149,-0.6095,-0.6237,-0.6139,0.0,0.0,0.0,0.0,0.0,0.0,0.0,0.0,0.0,0.0,0.0,0.0,0.0,0.0,0.0,0.0,-0.9276,-1.1426,-1.2563,-1.2774,-1.3278,-1.3581,-1.3574,-1.3287,-1.2993,-1.2788,0.0,0.0,0.0,0.0,0.0,0.0,-1.2305,-1.2305,-1.2305,-1.2305,-1.2305,-1.2305,-1.2305,-1.2879,-1.36,-1.3673,-1.4854,-1.6374,-1.6495,-1.6871,-1.7334,-1.7295,-1.7314,-1.7256,-1.6846,-1.6709,-1.6592,-1.6172,-1.6105,-1.6086,-1.6115,-1.6096,-1.6143,-1.6592,-1.666,-1.6514,-1.6094,-1.6076,-1.5889,-1.5488,-1.541,-1.54,-1.5371,-1.5371,-1.5352,-1.5322,-1.498,-1.4717,-1.4658,-1.3936,-1.3671,-1.4205,-1.449,-1.4869,-1.5499,-1.5588,-1.584,-1.6373,-1.5932,-1.5392,-1.4916,-1.4362,-1.3808,-1.3198,-1.3198,-1.3198,-1.3198,-1.3198,-1.3198,-1.1323,0.0,-1.2007,-1.1288,-1.1995,-1.2427,0.0,-0.984,-0.9129,-0.7903,-0.7145,-0.6599,-0.6479,-0.6305,-0.6217,-0.6254,-0.623,-0.6176,0.0,0.0,0.0,0.0,0.0,0.0,0.0,0.0,0.0,0.0,0.0,0.0,0.0,0.0,0.0,-0.7516,-0.8785,-1.0417,-1.241,-1.2785,-1.2959,-1.2953,-1.2659,-1.2478,-1.2405,0.0,0.0,0.0,0.0,0.0,0.0,-1.2305,-1.2305,-1.2305,-1.2305,-1.2305,-1.2305,-1.2305,-1.2445,-1.2732,-1.3455,-1.3859,-1.4295,-1.5358,-1.628,-1.6816,-1.6475,-1.6611,-1.6865,-1.6758,-1.6484,-1.6201,-1.6154,-1.5811,-1.5654,-1.5986,-1.5811,-1.5684,-1.6123,-1.5957,-1.5693,-1.5586,-1.5566,-1.5527,-1.543,-1.541,-1.5303,-1.498,-1.4932,-1.4805,-1.4473,-1.4291,-1.4043,-1.3398,-1.3154,-1.2974,-1.2796,-1.356,-1.4283,-1.488,-1.532,-1.5465,-1.5223,-1.5113,-1.5041,-1.4916,-1.4362,-1.3808,-1.3198,-1.3198,-1.3198,-1.3198,-1.3198,-1.3198,-1.163,-1.1751,-1.1885,-1.1492,-1.1923,-1.197,-1.0306,-0.939,-0.8577,-0.7363,-0.6583,-0.62,-0.6349,-0.6366,-0.6175,-0.564,-0.5996,0.0,0.0,0.0,0.0,0.0,0.0,0.0,0.0,0.0,0.0,0.0,0.0,0.0,0.0,0.0,0.0,0.0,-0.7726,-0.8982,-1.046,-1.1124,-1.1575,-1.2043,-1.1752,-1.1848,-1.2305,0.0,0.0,0.0,0.0,0.0,-1.1897,-1.1897,-1.1984,-1.2104,-1.2104,-1.2184,-1.2305,-1.2305,-1.2218,-1.2177,-1.2669,-1.296,-1.3415,-1.4994,-1.566,-1.5932,-1.6072,-1.6094,-1.6123,-1.6123,-1.5947,-1.5762,-1.5762,-1.5449,-1.5234,-1.5664,-1.543,-1.5244,-1.5674,-1.543,-1.5068,-1.4863,-1.4824,-1.4824,-1.4824,-1.4668,-1.4531,-1.4492,-1.416,-1.3828,-1.3584,-1.3338,-1.3036,-1.2627,-1.2393,-1.2207,-1.2017,-1.2723,-1.3549,-1.4306,-1.4226,-1.4264,-1.4468,-1.4073,-1.3744,-1.3504,-1.3399,-1.3202,-1.2873,-1.3094,-1.3198,-1.3198,-1.3198,-1.3198,-1.1857,-1.1717,-1.161,-1.1817,-1.1931,-1.1531,-0.9712,-0.9075,-0.8403,-0.6692,-0.6156,-0.6112,-0.6264,-0.639,0.0,0.0,0.0,0.0,0.0,0.0,0.0,0.0,0.0,0.0,0.0,0.0,0.0,0.0,0.0,0.0,0.0,0.0,0.0,0.0,-0.7377,-0.7844,-0.8077,-0.9113,-1.0041,-1.0898,-1.0668,-1.1069,-1.2011,-1.2011,0.0,0.0,0.0,0.0,-1.1423,-1.1376,-1.1536,-1.1797,-1.175,-1.1884,-1.2111,-1.2151,-1.1957,-1.167,-1.167,-1.2211,-1.3009,-1.4384,-1.4702,-1.4689,-1.5489,-1.5439,-1.5109,-1.5235,-1.5361,-1.54,-1.5332,-1.5049,-1.4863,-1.5146,-1.4941,-1.4785,-1.5137,-1.4883,-1.4482,-1.4111,-1.3984,-1.3945,-1.3945,-1.3652,-1.3516,-1.3747,-1.3232,-1.2754,-1.2686,-1.2353,-1.21,-1.1986,-1.1689,-1.1479,-1.1496,-1.19,-1.2552,-1.3498,-1.2934,-1.29,-1.3718,-1.2969,-1.2313,-1.1895,-1.2282,-1.2544,-1.2615,-1.3012,-1.316,-1.3073,-1.316,-1.316,-1.1797,-1.2017,-1.2118,-1.1917,-1.2211,-1.1966,-0.9776,-0.859,-0.7672,-0.6563,-0.624,-0.6271,0.0,-0.6458,-0.6102,0.0,0.0,0.0,0.0,0.0,0.0,0.0,0.0,0.0,0.0,0.0,0.0,0.0,0.0,0.0,0.0,0.0,0.0,0.0,0.0,-0.6613,-0.6638,-0.8449,-0.9423,-0.9575,-0.9539,-0.9942,-1.0683,-1.0683,-1.0972,0.0,0.0,0.0,-1.141,-1.1162,-1.1229,-1.147,-1.1223,-1.1156,-1.1223,-1.147,-1.1223,-1.0826,-1.0826,-1.146,-1.2243,-1.2043,-1.2425,-1.3108,-1.3923,-1.382,-1.3672,-1.4608,-1.5137,-1.5332,-1.4971,-1.4834,-1.4707,-1.4404,-1.4223,-1.4194,-1.4316,-1.4004,-1.3682,-1.3613,-1.3311,-1.3076,-1.3076,-1.3018,-1.2881,-1.2521,-1.2412,-1.2187,-1.1851,-1.1743,-1.1523,-1.1152,-1.1045,-1.1023,-1.1106,-1.0823,-1.1054,-1.1982,-1.2479,-1.2601,-1.2272,-1.2102,-1.2135,-1.2401,-1.2473,-1.2685,-1.3094,-1.3163,-1.296,-1.2522,-1.2985,-1.2947,-1.159,-1.1957,-1.2117,-1.1395,-1.1608,-1.1685,-1.0216,-0.8853,-0.7614,-0.6609,0.0,0.0,0.0,0.0,-0.6154,-0.5031,0.0,0.0,0.0,0.0,0.0,0.0,0.0,0.0,0.0,0.0,0.0,0.0,0.0,0.0,0.0,0.0,0.0,0.0,0.0,0.0,-0.6338,-0.7079,-0.7828,-0.8461,-0.8351,-0.8832,-0.9679,-0.9614,-0.9846,0.0,0.0,-1.0405,-1.0695,-1.0408,-1.0454,-1.0708,-1.0575,-1.0615,-1.0755,-1.0728,-1.0548,-1.0301,-1.014,-1.0464,-1.0884,-1.1056,-1.1364,-1.1881,-1.3079,-1.3141,-1.302,-1.409,-1.457,-1.4678,-1.4482,-1.4268,-1.4043,-1.3848,-1.3623,-1.3516,-1.375,-1.3281,-1.2812,-1.2812,-1.2471,-1.2214,-1.2214,-1.1973,-1.1826,-1.1865,-1.1475,-1.1103,-1.094,-1.091,-1.0791,-1.0596,-1.0576,-1.0607,-1.0631,-1.0172,-1.0123,-1.055,-1.135,-1.1348,-1.0362,-1.0551,-1.0633,-1.0599,-1.107,-1.1559,-1.208,-1.2546,-1.2785,-1.2835,-1.3085,-1.306,-1.1202,-1.1603,-1.1775,-1.067,-1.0772,-1.0911,-1.0133,-0.8719,-0.7441,-0.6725,0.0,0.0,0.0,-0.6208,0.0,0.0,0.0,0.0,0.0,0.0,0.0,0.0,0.0,0.0,0.0,0.0,0.0,0.0,0.0,0.0,0.0,0.0,0.0,0.0,0.0,0.0,-0.6152,-0.6037,-0.6403,-0.7346,-0.7167,-0.7533,-0.8433,-0.8324,-0.8606,-0.9173,-0.9174,-0.9352,-0.9747,-0.9641,-0.9753,-1.0007,-0.994,-1.0094,-1.0314,-0.9947,-0.99,-0.9973,-0.9679,-0.9626,-0.9782,-1.0315,-1.0512,-1.0722,-1.2007,-1.2105,-1.199,-1.3066,-1.3256,-1.3265,-1.3675,-1.3603,-1.3311,-1.3096,-1.2803,-1.2666,-1.2978,-1.2451,-1.1924,-1.1924,-1.1562,-1.1302,-1.1302,-1.0986,-1.0869,-1.1253,-1.0744,-1.0283,-1.0283,-1.0283,-1.0283,-1.0283,-1.0195,-1.0127,-1.0127,-0.9824,-0.9554,-0.9456,-1.0098,-0.998,-0.8906,-0.9258,-0.9361,-0.9173,-0.9907,-1.064,-1.1274,-1.2033,-1.263,-1.301,-1.3135,-1.306,-1.0548,-1.0848,-1.0883,-1.0129,-0.9891,-0.9602,-0.8778,-0.7503,-0.6634,-0.6837,0.0,0.0,0.0,-0.5556,0.0,0.0,0.0,0.0,0.0,0.0,0.0,0.0,0.0,0.0,0.0,0.0,0.0,0.0,0.0,0.0,0.0,0.0,0.0,0.0,0.0,0.0,-0.5833,-0.5823,-0.5823,-0.5974,-0.5828,-0.6007,-0.6591,-0.6578,-0.6963,-0.7675,-0.8374,-0.8658,-0.8739,-0.9104,-0.9446,-0.9686,-0.9412,-0.9486,-0.9679,-0.9112,-0.9245,-0.9673,-0.9379,-0.9452,-0.9639,-0.9415,-0.9321,-0.9432,-1.0031,-0.9961,-0.986,-1.0897,-1.0757,-1.0725,-1.2512,-1.2949,-1.2725,-1.1939,-1.1714,-1.1704,-1.1734,-1.1338,-1.1006,-1.1006,-1.0664,-1.0371,-1.0371,-1.0391,-1.0342,-1.041,-1.0322,-1.0283,-1.0283,-1.0283,-1.0283,-1.0283,-0.9922,-0.9641,-0.9641,-0.9612,-0.9427,-0.9072,-0.9111,-0.8926,-0.8469,-0.8828,-0.9227,-0.9644,-1.0069,-1.077,-1.1745,-1.2197,-1.2429,-1.2479,-1.296,-1.268,-1.0307,-1.0762,-1.094,-0.9819,-0.9401,-0.9175,-0.8421,-0.7522,-0.6763,-0.6783,-0.6817,0.0,0.0,0.0,0.0,0.0,0.0,0.0,0.0,0.0,0.0,0.0,0.0,0.0,0.0,0.0,0.0,0.0,0.0,0.0,0.0,0.0,0.0,0.0,0.0,0.0,0.0,-0.525,-0.5111,-0.5114,-0.5338,-0.5586,-0.5784,-0.5583,-0.5937,-0.6694,-0.6803,-0.7438,-0.8354,-0.8306,-0.8591,-0.9112,-0.8818,-0.8878,-0.9092,-0.8684,-0.8798,-0.9098,-0.8804,-0.8778,-0.8818,-0.8524,-0.8373,-0.8497,-0.9148,-0.9024,-0.8974,-1.0278,-1.0334,-1.0392,-1.1861,-1.1921,-1.1599,-1.1597,-1.14,-1.1152,-1.1152,-1.082,-1.0596,-1.0859,-1.0566,-1.0283,-1.0283,-1.0283,-1.0283,-1.0283,-1.0283,-1.0283,-1.0283,-1.0283,-1.0283,-1.0283,-0.9893,-0.9388,-0.8896,-0.8848,-0.8672,-0.8211,-0.8711,-0.8691,-0.8008,-0.859,-0.89,-0.8835,-0.9446,-1.0097,-1.0809,-1.0838,-1.1387,-1.2404,-1.1871,-1.1795,-1.0,-1.0481,-1.0607,-0.9015,-0.8659,-0.8566,-0.8084,-0.7608,-0.7293,-0.7418,-0.7312,-0.7037,-0.6197,0.0,0.0,0.0,0.0,0.0,0.0,0.0,0.0,0.0,0.0,0.0,0.0,0.0,0.0,0.0,0.0,0.0,0.0,0.0,0.0,0.0,0.0,0.0,0.0,-0.4532,-0.4444,-0.4623,-0.4884,-0.4986,-0.4931,-0.4728,-0.4916,-0.5523,-0.5567,-0.6218,-0.7241,-0.7442,-0.7895,-0.851,-0.831,-0.8357,-0.851,-0.8303,-0.8357,-0.8504,-0.8303,-0.8237,-0.8203,-0.7996,-0.7882,-0.7957,-0.8354,-0.8258,-0.8334,-0.9573,-0.9681,-0.9718,-1.1041,-1.1103,-1.0879,-1.1139,-1.0928,-1.0713,-1.0713,-1.0488,-1.0371,-1.0654,-1.0478,-1.0283,-1.0283,-1.0283,-1.0283,-1.0283,-1.0283,-1.0283,-1.0283,-1.0283,-1.0176,-0.9912,-0.9609,-0.915,-0.8469,-0.8411,-0.8252,-0.7949,-0.8444,-0.8456,-0.7725,-0.848,-0.8619,-0.8015,-0.8939,-0.9587,-0.9932,-1.0281,-1.0935,-1.1864,-1.1274,-1.1123,-0.9519,-0.99,-0.9618,-0.76,-0.7451,-0.7679,-0.7581,-0.7859,-0.8295,-0.8767,-0.8525,-0.7783,-0.6307,0.0,0.0,0.0,0.0,0.0,0.0,0.0,0.0,0.0,0.0,0.0,0.0,0.0,0.0,0.0,0.0,0.0,0.0,0.0,0.0,0.0,0.0,0.0,0.0,-0.3561,-0.3895,-0.4505,-0.4304,-0.411,-0.4022,-0.4019,-0.4019,-0.4019,-0.4751,-0.5091,-0.5189,-0.6557,-0.7392,-0.7882,-0.7882,-0.7882,-0.7882,-0.7882,-0.7882,-0.7882,-0.7882,-0.7875,-0.7875,-0.7875,-0.7875,-0.7856,-0.7555,-0.7506,-0.7702,-0.8645,-0.8415,-0.8265,-0.9949,-1.0642,-1.0801,-1.0391,-1.0283,-1.0283,-1.0283,-1.0283,-1.0283,-1.0283,-1.0312,-1.0273,-1.0283,-1.0273,-1.0273,-1.0273,-1.0273,-1.0273,-1.0273,-1.0273,-0.9941,-0.9092,-0.9004,-0.8828,-0.843,-0.8401,-0.8401,-0.8401,-0.8336,-0.8119,-0.7725,-0.847,-0.8423,-0.7441,-0.8718,-0.9384,-0.9396,-1.0866,-1.1274,-1.0706,-1.1299,-1.0699,-0.963,-1.0047,-1.023,-0.9442,-0.915,-0.9215,-0.9482,-0.8765,0.0,0.0,-0.8159,-0.752,-0.6141,0.0,0.0,0.0,0.0,0.0,0.0,0.0,0.0,0.0,0.0,0.0,0.0,0.0,0.0,0.0,0.0,0.0,0.0,0.0,0.0,0.0,0.0,0.0,0.0,0.0,-0.2635,-0.3221,-0.309,-0.3389,-0.4123,-0.402,-0.4019,-0.4019,-0.4214,-0.4606,-0.5189,-0.6557,-0.7194,-0.7367,-0.7544,-0.7736,-0.7855,-0.7682,-0.7742,-0.7848,-0.7682,-0.7468,-0.7244,-0.7244,-0.7154,-0.7007,-0.7121,-0.7154,-0.7258,-0.7778,-0.7889,-0.8158,-0.9209,-0.9691,-0.9978,-1.0136,-0.9929,-0.9843,-1.0205,-1.0283,-1.0283,-1.0283,-1.0029,-0.9922,-1.0225,-0.9785,-0.9482,-0.9785,-0.957,-0.9385,-0.9385,-0.9385,-0.918,-0.8623,-0.8564,-0.8271,-0.7539,-0.7619,-0.7721,-0.7842,-0.7994,-0.8096,-0.8138,-0.8437,-0.8461,-0.8166,-0.8466,-0.8638,-0.8638,-0.9067,-0.9579,-1.0144,-0.9931,-0.9793,-0.9466,-0.994,-1.0192,-0.9907,-0.9819,-0.9931,-1.0442,0.0,0.0,0.0,0.0,-0.7961,0.0,0.0,0.0,0.0,0.0,0.0,0.0,0.0,0.0,0.0,0.0,0.0,0.0,0.0,0.0,0.0,0.0,0.0,0.0,0.0,0.0,0.0,0.0,0.0,0.0,0.0,0.0,-0.2364,-0.2457,-0.2858,-0.3516,-0.3612,-0.3648,-0.3705,-0.3687,-0.4108,-0.4955,-0.5895,-0.6529,-0.6931,-0.7183,-0.7402,-0.7503,-0.7361,-0.7408,-0.7497,-0.7355,-0.7174,-0.6979,-0.6979,-0.6901,-0.6794,-0.6967,-0.6979,-0.7103,-0.7587,-0.7808,-0.801,-0.8395,-0.8577,-0.8858,-0.9692,-0.973,-0.9592,-0.973,-0.9775,-0.9775,-0.9775,-0.9561,-0.9463,-0.9727,-0.9346,-0.9092,-0.931,-0.916,-0.9004,-0.9004,-0.8857,-0.8662,-0.844,-0.8076,-0.7666,-0.7148,-0.7044,-0.7027,-0.7128,-0.7492,-0.7772,-0.7897,-0.853,-0.863,-0.8181,-0.8456,-0.8399,-0.7939,-0.8399,-0.8713,-0.889,-0.8826,-0.87,-0.9291,-0.9706,-0.9709,-0.9646,-0.9867,-1.0284,-1.0825,-1.1111,-1.097,-0.9901,0.0,0.0,0.0,0.0,0.0,0.0,0.0,0.0,0.0,0.0,0.0,0.0,0.0,0.0,0.0,0.0,0.0,0.0,0.0,0.0,0.0,0.0,0.0,0.0,0.0,0.0,0.0,0.0,0.0,0.0,-0.2159,-0.2435,-0.2484,-0.2921,-0.3155,-0.3279,-0.3142,-0.3613,-0.4499,-0.4892,-0.5579,-0.6455,-0.6799,-0.6961,-0.6981,-0.6981,-0.6981,-0.6981,-0.6981,-0.6947,-0.6907,-0.6934,-0.6927,-0.6866,-0.6934,-0.6941,-0.7065,-0.7732,-0.7863,-0.7754,-0.7602,-0.7502,-0.7821,-0.9114,-0.9433,-0.9319,-0.9048,-0.9004,-0.9004,-0.9004,-0.8975,-0.8955,-0.9004,-0.8945,-0.8887,-0.8887,-0.8818,-0.8789,-0.8828,-0.8457,-0.8234,-0.8234,-0.75,-0.7021,-0.6982,-0.6617,-0.6372,-0.6396,-0.6927,-0.727,-0.7361,-0.8544,-0.8728,-0.7684,-0.8477,-0.8361,-0.7331,-0.8411,-0.8411,-0.7418,-0.8014,-0.7721,-0.9654,-0.986,-0.9834,-1.051,-1.1272,-1.1846,-1.197,-1.1872,-1.1309,-0.9711,-0.926,0.0,0.0,0.0,0.0,0.0,0.0,0.0,0.0,0.0,0.0,0.0,0.0,0.0,0.0,0.0,0.0,0.0,0.0,0.0,0.0,0.0,0.0,0.0,0.0,0.0,-0.0196,-0.0181,-0.0452,0.0,-0.1353,-0.1806,-0.2286,-0.2838,-0.3098,-0.3129,-0.3095,-0.3236,-0.3502,-0.4342,-0.4821,-0.5132,-0.6003,-0.6518,-0.668,-0.668,-0.668,-0.668,-0.668,-0.6379,-0.6032,-0.6303,-0.6186,-0.6039,-0.631,-0.6384,-0.6415,-0.6574,-0.6831,-0.7063,-0.7099,-0.7585,-0.8061,-0.8179,-0.8103,-0.8229,-0.8843,-0.9004,-0.9004,-0.9004,-0.874,-0.8613,-0.8945,-0.8447,-0.7968,-0.7968,-0.7412,-0.71,-0.7461,-0.7109,-0.6826,-0.6826,-0.667,-0.6416,-0.6117,-0.6179,-0.6262,-0.6328,-0.6639,-0.7118,-0.7743,-0.7806,-0.7715,-0.7469,-0.725,-0.7012,-0.6774,-0.745,-0.7631,-0.7418,-0.8014,-0.7914,-0.9356,-0.9693,-0.9893,-1.0775,-1.1443,-1.1884,-1.1884,-1.1764,-1.1128,-0.9316,0.0,0.0,0.0,0.0,0.0,0.0,0.0,0.0,0.0,0.0,0.0,0.0,0.0,0.0,0.0,0.0,0.0,0.0,0.0,0.0,0.0,0.0,0.0,0.0,0.0,0.0,0.0,0.0,-0.0131,-0.0369,-0.0816,-0.1392,-0.2135,-0.2728,-0.2981,-0.291,-0.291,-0.3014,-0.3233,-0.3926,-0.4479,-0.4895,-0.5609,-0.6096,-0.6424,-0.6424,-0.6424,-0.6424,-0.6424,-0.6223,-0.5988,-0.6142,-0.6088,-0.5988,-0.6142,-0.6196,-0.6162,-0.6021,-0.6219,-0.6478,-0.6241,-0.6715,-0.7265,-0.7187,-0.7599,-0.8039,-0.831,-0.8367,-0.8367,-0.8367,-0.8057,-0.79,-0.832,-0.7832,-0.7326,-0.7102,-0.6699,-0.6494,-0.6738,-0.6553,-0.6406,-0.6406,-0.6221,-0.6016,-0.5823,-0.5722,-0.5694,-0.5735,-0.5966,-0.6306,-0.6726,-0.6789,-0.6994,-0.7393,-0.7119,-0.6862,-0.6599,-0.6887,-0.7006,-0.7019,-0.7338,-0.7313,-0.8971,-0.9492,-0.9947,-1.0722,-1.1136,0.0,-1.1349,-1.1349,-1.0834,0.0,0.0,0.0,0.0,0.0,0.0,0.0,0.0,0.0,0.0,0.0,0.0,0.0,0.0,0.0,0.0,0.0,0.0,0.0,0.0,0.0,0.0,0.0,0.0,0.0,0.0,0.0,0.0,0.0,0.0,0.0,-0.0528,-0.1182,-0.1993,-0.2552,-0.2774,-0.2712,-0.2685,-0.2863,-0.3192,-0.3508,-0.4126,-0.491,-0.5192,-0.5625,-0.6115,-0.6115,-0.6115,-0.6115,-0.6115,-0.6082,-0.6035,-0.5981,-0.6001,-0.6035,-0.5981,-0.5967,-0.5927,-0.5691,-0.5841,-0.5965,-0.5506,-0.5843,-0.634,-0.6477,-0.7296,-0.7959,-0.7647,-0.7647,-0.7656,-0.7501,-0.7217,-0.709,-0.7413,-0.7148,-0.6768,-0.6455,-0.6279,-0.6211,-0.6289,-0.623,-0.6182,-0.6182,-0.5869,-0.5685,-0.5738,-0.5402,-0.5166,-0.5166,-0.5368,-0.5492,-0.5492,-0.5925,-0.6469,-0.7129,-0.7218,-0.7031,-0.6599,-0.6599,-0.6599,-0.6599,-0.6599,-0.6649,-0.8977,-0.9639,-1.0147,0.0,-1.0835,-1.1049,0.0,0.0,-1.0634,0.0,0.0,0.0,0.0,0.0,0.0,0.0,0.0,0.0,0.0,0.0,0.0,0.0,0.0,0.0,0.0,0.0,0.0,0.0,0.0,0.0,0.0,0.0,0.0,0.0,0.0,0.0,0.0,0.0,0.0,0.0,-0.0713,-0.1309,-0.1838,-0.2324,-0.2606,-0.2706,-0.2572,-0.2544,-0.2625,-0.2917,-0.3389,-0.402,-0.4381,-0.5062,-0.5772,-0.5772,-0.5772,-0.5772,-0.5772,-0.5605,-0.5357,-0.5066,-0.5184,-0.5383,-0.509,-0.498,-0.5026,-0.5277,-0.5429,-0.5553,-0.5755,-0.6107,-0.6405,-0.6484,-0.658,-0.6768,-0.7109,-0.7442,-0.7472,-0.6703,-0.6543,-0.6514,-0.6572,-0.624,-0.6064,-0.6357,-0.575,-0.5419,-0.5832,-0.5537,-0.5283,-0.5283,-0.5234,-0.5274,-0.5518,-0.5485,-0.5454,-0.5454,-0.5473,-0.5492,-0.5492,-0.5782,-0.5988,-0.6094,-0.6505,-0.6674,-0.6599,-0.6599,-0.6599,-0.6599,-0.6599,-0.6849,-0.8851,-0.9072,-0.9252,0.0,-0.9913,-1.0053,-1.0221,0.0,0.0,0.0,0.0,0.0,0.0,0.0,0.0,0.0,0.0,0.0,0.0,0.0,0.0,0.0,0.0,0.0,0.0,0.0,0.0,0.0,0.0,0.0,0.0,0.0521,0.038,0.04,0.0149,0.0,0.0,0.0,0.0,0.0,-0.0743,-0.1202,-0.1427,-0.2043,-0.2371,-0.2432,-0.2476,-0.2434,-0.2327,-0.2454,-0.2828,-0.3326,-0.3665,-0.4282,-0.4998,-0.5123,-0.5324,-0.5471,-0.5471,-0.5277,-0.501,-0.4854,-0.4787,-0.4763,-0.4629,-0.4568,-0.4623,-0.4756,-0.4816,-0.4899,-0.5206,-0.5567,-0.5877,-0.6072,-0.626,-0.6396,-0.6367,-0.6689,-0.6807,-0.6182,-0.625,-0.626,-0.575,-0.5742,-0.5783,-0.5682,-0.5351,-0.5176,-0.5391,-0.5224,-0.5108,-0.5108,-0.5108,-0.5146,-0.5272,-0.5272,-0.5272,-0.5272,-0.5272,-0.5272,-0.5272,-0.5678,-0.5911,-0.5911,-0.636,-0.6517,-0.6371,-0.6517,-0.6599,-0.6599,-0.6599,-0.6724,-0.8317,0.0,-0.8363,-0.8745,-0.8911,-0.9098,0.0,0.0,0.0,0.0,0.0,0.0,0.0,0.0,0.0,0.0,0.0,0.0,0.0,0.0,0.0,0.0,0.0,0.0,0.0,0.0,0.0,0.0,0.0,0.0,0.1305,0.0983,0.0763,0.0692,0.0311,0.0081,0.0,0.0,0.0,0.0,-0.0628,-0.0956,-0.1062,-0.1729,-0.2077,-0.2104,-0.2304,-0.2279,-0.215,-0.211,-0.2404,-0.2865,-0.3156,-0.3673,-0.4318,-0.4609,-0.4863,-0.5057,-0.5057,-0.491,-0.4688,-0.4615,-0.4516,-0.4389,-0.4315,-0.4295,-0.4309,-0.4382,-0.4398,-0.446,-0.4866,-0.5151,-0.5399,-0.5736,-0.5951,-0.6055,-0.5957,-0.6016,-0.6016,-0.5842,-0.5937,-0.5857,-0.5215,-0.54,-0.5508,-0.5156,-0.5108,-0.5108,-0.5108,-0.5108,-0.5108,-0.5108,-0.5108,-0.5127,-0.5195,-0.5214,-0.5214,-0.5214,-0.5214,-0.5166,-0.5108,-0.5622,-0.5874,-0.58,-0.6325,-0.65,-0.6289,-0.65,-0.6599,-0.6599,-0.6599,-0.6674,-0.7188,-0.7477,0.0,-0.7941,-0.821,0.0,0.0,0.0,0.0,0.0,0.0,0.0,0.0,0.0,0.0,0.0,0.0,0.0,0.0,0.0,0.0,0.0,0.0,0.0,0.0,0.0,0.0,0.0,0.0,0.0,0.1305,0.1172,0.0955,0.0704,0.0499,0.0269,0.0,0.0,0.0,0.0,-0.0305,-0.0609,-0.093,-0.1415,-0.1697,-0.1837,-0.1967,-0.2028,-0.2011,-0.1865,-0.2165,-0.2728,-0.2998,-0.347,-0.4043,-0.4316,-0.4436,-0.4449,-0.4449,-0.4442,-0.4382,-0.4126,-0.4213,-0.4355,-0.4099,-0.4019,-0.4072,-0.4329,-0.4344,-0.4463,-0.5184,-0.5236,-0.5242,-0.5691,-0.5477,-0.539,-0.6201,-0.573,-0.5292,-0.5725,-0.5459,-0.5166,-0.5117,-0.5127,-0.5137,-0.5117,-0.5108,-0.5108,-0.5108,-0.5108,-0.5108,-0.5108,-0.5108,-0.5214,-0.5454,-0.5473,-0.5473,-0.5473,-0.5473,-0.5368,-0.5108,-0.5622,-0.5782,-0.553,-0.6236,-0.6599,-0.6582,-0.6599,-0.6599,-0.6599,-0.6599,-0.6874,-0.7054,0.0,0.0,-0.7589,-0.7709,-0.7869,0.0,0.0,0.0,0.0,0.0,0.0,0.0,0.0,0.0,0.0,0.0,0.0,0.0,0.0,0.0,0.0,0.0,0.0,0.0,0.0,0.0,0.0,0.0,0.0,0.2057,0.1666,0.1311,0.1086,0.0652,0.0273,0.0,0.0,0.0,0.0,-0.0499,-0.0781,-0.0916,-0.1468,-0.1763,-0.1806,-0.1861,-0.1865,-0.1859,-0.1827,-0.1923,-0.218,-0.2657,-0.3077,-0.3481,-0.3973,-0.4242,-0.4402,-0.4402,-0.4282,-0.4133,-0.4025,-0.3915,-0.3798,-0.3721,-0.3687,-0.3707,-0.3791,-0.3922,-0.4143,-0.4582,-0.4776,-0.493,-0.5262,-0.5224,-0.5195,-0.5497,-0.5322,-0.5156,-0.5312,-0.5215,-0.5108,-0.5108,-0.5108,-0.5108,-0.5108,-0.5108,-0.5108,-0.5108,-0.5108,-0.5108,-0.5108,-0.5108,-0.5127,-0.5233,-0.5253,-0.5253,-0.5253,-0.5253,-0.5195,-0.5108,-0.5622,-0.5856,-0.5763,-0.6307,-0.6517,-0.6354,-0.6517,-0.6599,-0.6599,-0.6599,-0.6712,-0.6979,0.0,0.0,0.0,0.0,-0.7395,0.0,0.0,0.0,0.0,0.0,0.0,0.0,0.0,0.0,0.0,0.0,0.0,0.0,0.0,0.0,0.0,0.0,0.0,0.0,0.0,0.0,0.0,0.0,0.0,0.2303,0.1995,0.1612,0.1168,0.0669,0.027,0.0,0.0,0.0,0.0,-0.0499,-0.0781,-0.0914,-0.1405,-0.1692,-0.1803,-0.1803,-0.1803,-0.1803,-0.1803,-0.1847,-0.1978,-0.2502,-0.2856,-0.3156,-0.3654,-0.3948,-0.4108,-0.4108,-0.3981,-0.3821,-0.3821,-0.3687,-0.3506,-0.3506,-0.3506,-0.3527,-0.3605,-0.3828,-0.4089,-0.4374,-0.4626,-0.4873,-0.5049,-0.5108,-0.5108,-0.5108,-0.5108,-0.5108,-0.5108,-0.5108,-0.5108,-0.5108,-0.5108,-0.5108,-0.5108,-0.5108,-0.5108,-0.5108,-0.5108,-0.5108,-0.5108,-0.5108,-0.5108,-0.5108,-0.5108,-0.5108,-0.5108,-0.5108,-0.5108,-0.5108,-0.5622,-0.5911,-0.5911,-0.636,-0.6517,-0.6336,-0.6517,-0.6599,-0.6599,-0.6599,-0.6599,0.0,0.0,0.0,0.0,0.0,0.0,0.0,0.0,0.0,0.0,0.0,0.0,0.0,0.0,0.0,0.0,0.0,0.0,0.0,0.0,0.0,0.0,0.0,0.0,0.0,0.0,0.0,0.0,0.0,0.1042,0.1932,0.2106,0.1784,0.0926,0.0582,0.028,0.0,0.0,0.0,0.0,-0.0279,-0.0579,-0.0914,-0.1185,-0.1496,-0.1803,-0.1803,-0.1803,-0.1803,-0.1803,-0.1957,-0.2237,-0.2567,-0.2875,-0.3132,-0.3393,-0.3506,-0.3506,-0.3506,-0.3506,-0.3506,-0.3506,-0.3506,-0.3506,-0.3506,-0.3506,-0.3548,-0.3807,-0.4089,-0.4354,-0.4626,-0.4893,-0.5108,-0.5108,-0.5108,-0.5108,-0.5108,-0.5108,-0.5108,-0.5108,-0.5108,-0.5108,-0.5108,-0.5108,-0.5108,-0.5108,-0.5108,-0.5108,-0.5108,-0.5108,-0.5108,-0.5108,-0.5108,-0.5108,-0.5108,-0.5108,-0.5108,-0.5108,-0.5108,-0.5108,-0.5108,-0.5622,-0.5911,-0.5911,-0.636,-0.6599,-0.6599,-0.6599,-0.6599,-0.6599,-0.6599,-0.6599,-0.6979,0.0,0.0,0.0,0.0,0.0,0.0,0.0,0.0,0.0,0.0,0.0,0.0,0.0,0.0,0.0,0.0,0.0,0.0,0.0,0.0,0.0,0.0,0.0,0.0,0.0,0.0,0.0,0.0,0.0439,0.1638,0.175,0.1534,0.1055,0.0626,0.0271,0.0,0.0,0.0,0.0,-0.052,-0.0803,-0.0914,-0.1427,-0.1718,-0.1803,-0.1803,-0.1803,-0.1803,-0.1803,-0.1957,-0.2237,-0.2567,-0.2875,-0.3132,-0.3393,-0.3506,-0.3506,-0.3506,-0.3506,-0.3506,-0.3506,-0.3506,-0.3506,-0.3506,-0.3506,-0.3506,-0.3584,-0.3807,-0.4109,-0.4587,-0.4893,-0.5108,-0.5108,-0.5108,-0.5108,-0.5108,-0.5108,-0.5108,-0.5108,-0.5108,-0.5108,-0.5108,-0.5108,-0.5108,-0.5108,-0.5108,-0.5108,-0.5108,-0.5108,-0.5108,-0.5108,-0.5108,-0.5108,-0.5108,-0.5108,-0.5108,-0.5108,-0.5108,-0.5108,-0.5108,-0.5622,-0.5911,-0.5911,-0.636,-0.6599,-0.6599,-0.6599,-0.6599,-0.6599,-0.6599,-0.6599,-0.6979,-0.6979,-0.6979,0.0,0.0,0.0,-0.6867,-0.6974,0.0,0.0,0.0,0.0,0.0,0.0,0.0,0.0,0.0,0.0,0.0,0.0,0.0,0.0,0.0,0.0,0.0,0.0,0.0,0.0,-0.0912,0.0067,0.1614,0.1788,0.1691,0.1311,0.0847,0.0456,0.0168,0.0048,0.0,0.0,-0.0604,-0.0892,-0.0914,-0.1516,-0.1803,-0.1803,-0.1803,-0.1803,-0.1803,-0.1913,-0.2132,-0.2437,-0.274,-0.3025,-0.3287,-0.3442,-0.3506,-0.3506,-0.3506,-0.3506,-0.3506,-0.3506,-0.3506,-0.3506,-0.3506,-0.3506,-0.3527,-0.3626,-0.3952,-0.4313,-0.4606,-0.4893,-0.5108,-0.5108,-0.5108,-0.5108,-0.5108,-0.5108,-0.5108,-0.5108,-0.5108,-0.5108,-0.5108,-0.5108,-0.5108,-0.5108,-0.5108,-0.5108,-0.5108,-0.5108,-0.5108,-0.5108,-0.5108,-0.5108,-0.5108,-0.5108,-0.5108,-0.5108,-0.5108,-0.5108,-0.5108,-0.5622,-0.5911,-0.5911,-0.636,-0.6599,-0.6599,-0.6599,-0.6599,-0.6599,-0.6599,-0.6599,-0.6979,-0.6979,-0.6979,0.0,0.0,0.0,-0.6653,-0.6587,-0.6506,0.0,0.0,0.0,0.0,0.0,0.0,0.0,0.0,0.0,0.0,0.0,0.0,0.0,0.0,0.0,0.0,0.0,0.0,-0.1995,-0.1193,-0.0037,0.1665,0.2058,0.2052,0.1625,0.1178,0.0743,0.0401,0.0134,0.0,0.0,-0.0604,-0.0892,-0.0914,-0.1516,-0.1803,-0.1803,-0.1803,-0.1803,-0.1825,-0.2088,-0.2394,-0.2719,-0.3004,-0.3266,-0.3506,-0.3506,-0.3506,-0.3506,-0.3506,-0.3506,-0.3506,-0.3506,-0.3506,-0.3506,-0.3506,-0.3506,-0.3548,-0.3786,-0.4232,-0.4606,-0.4646,-0.4853,-0.5069,-0.5088,-0.5108,-0.5108,-0.5108,-0.5108,-0.5108,-0.5108,-0.5108,-0.5108,-0.5108,-0.5108,-0.5108,-0.5108,-0.5108,-0.5108,-0.5108,-0.5108,-0.5108,-0.5108,-0.5108,-0.5108,-0.5108,-0.5108,-0.5108,-0.5108,-0.5108,-0.5108,-0.5146,-0.5622,-0.59,-0.5936,-0.6378,-0.6599,-0.6599,-0.6599,-0.6599,-0.6599,-0.6599,-0.6599,0.0,0.0,0.0,0.0,0.0,0.0,-0.6653,-0.6587,-0.6506,0.0,0.0,0.0,0.0,0.0,0.0,0.0,0.0,0.0,0.0,0.0,0.0,0.0,0.0,0.0,0.0,0.0,-0.3306,-0.2587,-0.0865,0.052,0.1355,0.2058,0.2224,0.178,0.1303,0.0858,0.0401,0.0134,0.0,0.0,-0.0604,-0.0892,-0.0914,-0.1516,-0.1803,-0.1803,-0.1803,-0.1803,-0.1825,-0.2088,-0.2394,-0.2719,-0.3004,-0.3266,-0.3506,-0.3506,-0.3506,-0.3506,-0.3506,-0.3506,-0.3506,-0.3506,-0.3506,-0.3506,-0.3506,-0.3506,-0.3506,-0.3569,-0.3807,-0.4109,-0.4333,-0.4567,-0.4834,-0.5049,-0.5108,-0.5108,-0.5108,-0.5108,-0.5108,-0.5108,-0.5108,-0.5108,-0.5108,-0.5108,-0.5108,-0.5108,-0.5108,-0.5108,-0.5108,-0.5108,-0.5108,-0.5108,-0.5108,-0.5108,-0.5108,-0.5108,-0.5108,-0.5108,-0.5108,-0.5195,-0.5406,-0.5726,-0.5973,-0.6147,-0.6436,-0.6599,-0.6599,-0.6599,-0.6599,-0.6599,-0.6599,-0.6599,0.0,0.0,0.0,-0.6979,0.0,0.0,0.0,-0.6705,-0.6697,0.0,0.0,0.0,0.0,0.0,0.0,0.0,0.0,0.0,0.0,0.0,0.0,0.0,0.0,0.0,0.0,0.0,-0.3225,-0.2636,-0.0905,0.0329,0.0826,0.1689,0.2118,0.2017,0.1412,0.0944,0.0647,0.0224,0.0,0.0,-0.0604,-0.0892,-0.0914,-0.1516,-0.1803,-0.1803,-0.1803,-0.1803,-0.1825,-0.2263,-0.2546,-0.2719,-0.3004,-0.3266,-0.3506,-0.3506,-0.3506,-0.3506,-0.3506,-0.3506,-0.3506,-0.3506,-0.3506,-0.3506,-0.3506,-0.3506,-0.3506,-0.3506,-0.3689,-0.3931,-0.4068,-0.4386,-0.4726,-0.4873,-0.501,-0.5108,-0.5108,-0.5108,-0.5108,-0.5108,-0.5108,-0.5108,-0.5108,-0.5108,-0.5108,-0.5108,-0.5108,-0.5108,-0.5108,-0.5108,-0.5108,-0.5108,-0.5108,-0.5108,-0.5108,-0.5108,-0.5108,-0.5108,-0.5233,-0.5349,-0.5492,-0.5863,-0.6159,-0.6401,-0.6535,-0.6599,-0.6599,-0.6599,-0.6599,-0.6599,-0.6599,-0.6599,0.0,0.0,0.0,0.0,0.0,-0.7863,0.0,0.0,0.0,0.0,0.0,0.0,0.0,0.0,0.0,0.0,0.0,0.0,0.0,0.0,0.0,0.0,0.0,0.0,0.0,0.0,-0.3004,-0.2355,-0.1028,-0.0039,0.0388,0.1338,0.1987,0.219,0.1509,0.1057,0.0894,0.0291,0.0,0.0,-0.0604,-0.0892,-0.0914,-0.1516,-0.1803,-0.1803,-0.1803,-0.1825,-0.1913,-0.2394,-0.2676,-0.281,-0.3068,-0.3309,-0.3506,-0.3506,-0.3506,-0.3506,-0.3506,-0.3506,-0.3506,-0.3506,-0.3506,-0.3506,-0.3506,-0.3506,-0.3506,-0.3506,-0.3647,-0.3828,-0.389,-0.4273,-0.4626,-0.4686,-0.4912,-0.5108,-0.5108,-0.5108,-0.5108,-0.5108,-0.5108,-0.5108,-0.5108,-0.5108,-0.5108,-0.5108,-0.5108,-0.5108,-0.5108,-0.5108,-0.5108,-0.5108,-0.5108,-0.5108,-0.5108,-0.5108,-0.5108,-0.5108,-0.5349,-0.553,-0.5587,-0.6034,-0.6371,-0.6599,-0.6599,-0.6599,-0.6599,-0.6599,-0.6599,-0.6599,-0.6599,-0.6616,0.0,0.0,0.0,0.0,-0.8193,0.0,0.0,0.0,0.0,0.0,0.0,0.0,0.0,0.0,0.0,0.0,0.0,0.0,0.0,0.0,0.0,0.0,0.0,0.0,0.0,0.0,0.0,-0.1765,-0.0863,-0.0148,0.0388,0.1506,0.2161,0.2193,0.1605,0.1162,0.0894,0.0291,0.0,0.0,-0.0604,-0.0892,-0.0914,-0.1516,-0.1803,-0.1803,-0.1803,-0.1935,-0.215,-0.2237,-0.2567,-0.3089,-0.3351,-0.3464,-0.3506,-0.3506,-0.3506,-0.3506,-0.3506,-0.3506,-0.3506,-0.3506,-0.3506,-0.3506,-0.3506,-0.3506,-0.3506,-0.3506,-0.3527,-0.3605,-0.3828,-0.413,-0.4406,-0.4646,-0.4912,-0.5108,-0.5108,-0.5108,-0.5108,-0.5108,-0.5108,-0.5108,-0.5108,-0.5108,-0.5108,-0.5108,-0.5108,-0.5108,-0.5108,-0.5108,-0.5108,-0.5108,-0.5108,-0.5108,-0.5108,-0.5108,-0.5108,-0.5108,-0.5349,-0.5595,-0.5856,-0.6307,-0.6564,-0.6599,-0.6599,-0.6599,-0.6599,-0.6599,-0.6599,-0.6599,-0.6599,-0.6689,0.0,0.0,0.0,0.0,0.0,0.0,-0.8134,0.0,-0.8092,0.0,0.0,0.0,0.0,0.0,0.0,0.0,0.0,0.0,0.0,0.0,0.0,0.0,0.0,0.0,0.0,0.0,0.0,0.0,0.0,-0.0608,0.0116,0.1118,0.1914,0.2469,0.1713,0.1219,0.1008,0.0336,-0.0071,-0.0246,-0.0692,-0.0983,-0.1141,-0.1604,-0.1803,-0.1803,-0.1803,-0.1869,-0.2,-0.235,-0.2632,-0.2918,-0.333,-0.3506,-0.3506,-0.3506,-0.3506,-0.3506,-0.3506,-0.3506,-0.3506,-0.3506,-0.3506,-0.3506,-0.3506,-0.3506,-0.3506,-0.3506,-0.3506,-0.3569,-0.3828,-0.4089,-0.4366,-0.4626,-0.4912,-0.5108,-0.5108,-0.5108,-0.5108,-0.5108,-0.5108,-0.5108,-0.5108,-0.5108,-0.5108,-0.5108,-0.5108,-0.5108,-0.5108,-0.5108,-0.5108,-0.5108,-0.5108,-0.5108,-0.5108,-0.5108,-0.5166,-0.533,-0.5686,-0.6016,-0.629,-0.6495,-0.6599,-0.6599,-0.6599,-0.6599,-0.6599,-0.6599,-0.6599,-0.6599,-0.6599,-0.6651,-0.6979,0.0,0.0,0.0,0.0,0.0,0.0,0.0,0.0,0.0,0.0,0.0,0.0,0.0,0.0,0.0,0.0,0.0,0.0,0.0,0.0,0.0,0.0,0.0,0.0,0.0,0.0,0.0,-0.2171,0.0,-0.0226,0.0691,0.158,0.2411,0.1708,0.1242,0.111,0.0379,-0.0146,-0.0401,-0.0736,-0.105,-0.1321,-0.1648,-0.1803,-0.1803,-0.1803,-0.1847,-0.1957,-0.2481,-0.274,-0.2853,-0.3309,-0.3506,-0.3506,-0.3506,-0.3506,-0.3506,-0.3506,-0.3506,-0.3506,-0.3506,-0.3506,-0.3506,-0.3506,-0.3506,-0.3506,-0.3506,-0.3506,-0.3548,-0.3751,-0.4048,-0.4345,-0.4547,-0.4853,-0.5108,-0.5108,-0.5108,-0.5108,-0.5108,-0.5108,-0.5108,-0.5108,-0.5108,-0.5108,-0.5108,-0.5108,-0.5108,-0.5108,-0.5108,-0.5108,-0.5108,-0.5108,-0.5108,-0.5108,-0.5108,-0.5243,-0.5576,-0.5925,-0.6266,-0.6582,-0.6599,-0.6599,-0.6599,-0.6749,-0.6824,-0.6824,-0.6824,-0.6824,-0.6824,-0.6674,-0.6633,0.0,0.0,0.0,-0.7995,0.0,0.0,0.0,0.0,-0.8285,0.0,0.0,0.0,0.0,0.0,-0.7098,-0.7071,0.0,0.0,0.0,0.0,0.0,0.0,0.0,0.0,0.0,0.0,0.0,0.0,-0.2605,0.0,-0.0716,0.0326,0.1198,0.1807,0.1487,0.1242,0.111,0.0379,-0.0146,-0.0401,-0.0736,-0.105,-0.1321,-0.1648,-0.1803,-0.1803,-0.1803,-0.1957,-0.2215,-0.2567,-0.2853,-0.3111,-0.3393,-0.3506,-0.3506,-0.3506,-0.3506,-0.3506,-0.3506,-0.3506,-0.3506,-0.3506,-0.3506,-0.3506,-0.3506,-0.3506,-0.3506,-0.3506,-0.3506,-0.3506,-0.3506,-0.3911,-0.4313,-0.4313,-0.4706,-0.5108,-0.5108,-0.5108,-0.5108,-0.5108,-0.5108,-0.5108,-0.5108,-0.5108,-0.5108,-0.5108,-0.5108,-0.5108,-0.5108,-0.5108,-0.5108,-0.5108,-0.5108,-0.5108,-0.5108,-0.5108,-0.5319,-0.5845,-0.5911,-0.6129,-0.6582,-0.6599,-0.6599,-0.6599,-0.7106,-0.7381,-0.7381,-0.7381,-0.7381,-0.7356,-0.6849,-0.6706,0.0,0.0,-0.7523,-0.7363,0.0,0.0,0.0,0.0,0.0,0.0,0.0,0.0,0.0,0.0,-0.75,-0.75,-0.7598,-0.7482,0.0,0.0,0.0,0.0,0.0,0.0,0.0,0.0,0.0,-0.3328,-0.2788,-0.202,0.0,-0.0418,0.0358,0.1305,0.1053,0.088,0.0838,0.0277,-0.0235,-0.0724,-0.0847,-0.1161,-0.1626,-0.1736,-0.1803,-0.1803,-0.2,-0.2106,-0.2237,-0.2762,-0.3025,-0.3132,-0.3393,-0.3506,-0.3506,-0.3506,-0.3506,-0.3479,-0.3287,-0.324,-0.3206,-0.2977,-0.3061,-0.324,-0.324,-0.3353,-0.3506,-0.3506,-0.3506,-0.3584,-0.3931,-0.4171,-0.4386,-0.4745,-0.4971,-0.5108,-0.5108,-0.5108,-0.5108,-0.5108,-0.5108,-0.5108,-0.5108,-0.5108,-0.5108,-0.5108,-0.5108,-0.5108,-0.5108,-0.5108,-0.5108,-0.5108,-0.5108,-0.5108,-0.5108,-0.5272,-0.552,-0.5874,-0.6016,-0.6248,-0.6582,-0.695,-0.7119,-0.7119,-0.7701,-0.7989,-0.7989,-0.7989,-0.7789,-0.7393,-0.7388,-0.7218,-0.6967,-0.699,0.0,0.0,-0.75,0.0,-0.7833,0.0,0.0,0.0,0.0,0.0,0.0,0.0,-0.7695,-0.7695,-0.7695,-0.7454,0.0,-0.6365,0.0,0.0,0.0,0.0,0.0,0.0,-0.4002,-0.3537,-0.3149,-0.2454,0.0,0.0,-0.019,0.0734,0.0738,0.0712,0.0686,0.0143,-0.0401,-0.0893,-0.1007,-0.1314,-0.1803,-0.1803,-0.1847,-0.1957,-0.2128,-0.2259,-0.2415,-0.2891,-0.3036,-0.296,-0.3355,-0.3446,-0.3366,-0.3466,-0.344,-0.3327,-0.316,-0.3026,-0.2902,-0.2805,-0.2922,-0.3113,-0.322,-0.336,-0.3506,-0.3506,-0.3569,-0.3731,-0.4068,-0.4293,-0.4527,-0.4873,-0.503,-0.5108,-0.5108,-0.5108,-0.5108,-0.5108,-0.5108,-0.5108,-0.5108,-0.5108,-0.5108,-0.5108,-0.5108,-0.5108,-0.5108,-0.5108,-0.5108,-0.5108,-0.5108,-0.5108,-0.5108,-0.5349,-0.5614,-0.5893,-0.6299,-0.6626,-0.6869,-0.7425,-0.7814,-0.8001,-0.8386,-0.8675,-0.8876,-0.8675,-0.8452,-0.8188,-0.8142,-0.8011]}]]